GFSWCAN_925_spd_000.txt.gz
Wind_Speed
8 8 25 27 28 24 21 19 16 14 11 9 6 2 1 1 1 2 5 5 3 3 3 4 4 5 3 2 4 3 4 3 3 3 3 3 2 5 2 4 4 4 3 4 2 3 8 3 1 2 7 1 7 10
5 8 15 31 30 28 25 22 19 16 14 12 9 5 2 0 1 3 3 4 5 5 3 2 2 2 2 7 5 1 3 4 4 4 1 3 3 2 4 3 1 4 7 3 8 7 5 4 6 8 4 6 5 0
4 6 11 24 32 31 28 25 23 19 16 14 12 9 5 1 1 2 5 4 3 3 3 2 2 2 5 5 4 4 3 3 3 2 4 2 3 3 4 5 3 4 3 4 3 6 6 11 12 6 6 5 10 8
8 5 7 11 31 31 30 28 26 23 19 16 14 11 8 5 2 2 3 4 6 7 3 4 3 3 2 7 9 8 5 7 7 3 3 3 3 5 4 4 5 6 2 4 6 13 9 8 5 5 5 6 3 3
7 11 3 7 17 33 31 31 28 24 22 18 17 14 11 8 5 3 3 3 3 3 4 3 9 4 7 8 10 9 6 4 3 2 2 3 2 2 1 1 3 5 6 4 11 6 5 7 2 2 5 5 1 8
5 10 8 5 7 24 34 33 29 27 22 21 18 16 14 12 8 3 3 10 10 4 3 1 3 2 0 2 2 2 3 2 3 3 3 3 3 3 3 4 6 4 7 5 4 6 4 4 5 9 5 4 9 8
1 4 6 7 4 5 23 32 28 26 25 23 21 20 15 15 16 5 4 1 15 9 3 2 4 2 1 3 3 2 2 1 3 2 3 3 3 4 2 7 2 6 4 4 4 3 3 2 4 2 5 9 13 14
1 1 3 5 4 1 4 15 29 27 24 23 20 16 17 18 18 8 7 5 19 6 4 2 3 4 3 2 2 3 1 2 1 1 0 2 1 1 3 4 4 3 4 3 6 6 6 8 4 4 9 10 7 7
5 4 4 3 1 2 3 6 10 19 24 21 21 21 12 6 5 4 10 17 16 3 3 2 4 3 1 2 0 2 1 1 1 1 1 1 1 3 2 6 7 6 4 3 6 6 6 7 4 6 6 8 6 8
7 6 4 3 2 1 6 8 10 11 18 28 19 3 2 3 11 14 2 2 3 2 2 2 1 2 2 1 1 2 2 0 1 1 2 1 2 2 6 5 4 6 8 7 5 4 1 4 6 6 7 8 10 12
9 7 5 7 8 6 6 13 18 22 23 3 4 2 8 10 3 4 2 1 1 1 2 2 2 3 1 2 1 0 2 1 1 3 1 1 2 1 6 5 5 8 8 5 3 4 7 7 7 8 7 11 18 21
11 8 6 8 9 8 13 19 27 9 4 7 15 10 5 2 3 3 2 0 2 4 2 3 2 1 1 1 2 1 2 1 2 2 0 2 2 2 1 1 2 4 7 7 7 8 13 14 17 16 16 18 22 26
15 11 8 10 10 7 5 11 4 23 21 7 6 4 2 2 2 5 6 2 2 3 3 2 2 1 1 3 2 2 2 3 0 1 3 3 1 2 2 2 4 5 9 9 13 16 16 18 21 22 20 26 26 26
18 15 12 11 13 11 17 24 12 4 2 3 3 4 3 2 2 2 2 3 2 1 3 3 2 2 1 2 1 3 0 1 1 2 5 2 3 2 3 3 3 6 12 12 14 16 19 20 22 27 26 24 23 24
20 18 15 13 15 15 20 10 8 6 4 3 3 3 2 0 1 1 2 2 1 2 2 3 3 2 2 3 1 3 2 3 4 4 3 3 2 1 2 3 6 6 10 11 16 16 20 22 21 25 29 27 27 27
22 18 16 16 16 13 13 9 6 4 4 3 4 3 0 1 1 1 1 1 1 2 2 3 3 3 1 4 3 5 5 5 4 3 3 1 2 3 5 7 13 17 18 18 20 20 20 21 22 23 30 29 26 25
29 6 21 18 16 13 11 5 2 4 3 3 1 1 2 1 3 2 2 2 6 2 2 3 3 6 2 2 2 4 5 4 4 3 2 4 4 6 12 15 18 19 18 20 21 23 23 24 22 21 16 24 26 25
8 21 23 21 20 14 7 5 4 3 3 2 3 2 2 1 1 1 1 1 2 2 2 2 3 2 4 5 3 3 4 3 2 3 3 5 11 17 18 16 20 20 20 22 22 22 22 18 16 14 20 24 24 21
20 28 26 22 15 5 3 2 3 3 2 1 0 1 2 2 1 2 1 2 3 4 4 2 3 3 4 3 4 3 3 3 3 4 3 10 15 19 19 20 22 22 21 21 20 18 20 22 21 22 25 25 18 19
28 28 22 17 9 3 3 2 2 3 2 2 2 1 2 1 1 1 2 1 2 2 2 3 4 3 4 4 4 3 3 5 2 4 8 4 14 16 18 19 18 21 21 21 19 19 20 19 19 19 19 18 20 20
27 19 17 10 3 5 4 1 3 1 1 2 1 2 1 1 1 1 3 2 0 3 3 3 3 4 13 12 10 14 13 11 5 5 6 7 13 13 19 23 22 19 16 14 12 14 15 16 18 21 19 20 21 22
12 14 7 6 5 4 4 4 3 1 2 1 2 1 2 1 2 3 2 4 4 4 4 4 6 3 4 4 13 15 18 17 18 18 19 21 6 7 11 18 10 14 14 17 17 17 17 19 19 18 20 20 21 23
14 7 5 3 4 4 1 2 3 2 3 2 2 3 2 2 3 2 3 3 3 7 9 7 13 19 15 20 19 23 26 19 14 15 18 18 20 22 21 22 17 15 15 19 15 17 18 20 19 19 20 20 19 19
8 4 3 3 3 1 1 0 2 2 2 3 2 2 3 3 0 1 3 3 4 2 2 9 12 3 7 9 3 12 18 15 18 20 22 19 14 19 18 15 11 13 17 19 20 19 19 21 17 18 19 18 17 17
5 2 5 3 2 3 3 2 2 1 3 1 2 3 3 2 1 2 4 3 3 3 4 8 5 6 4 3 8 12 10 8 13 8 21 17 20 18 16 16 15 15 9 13 15 17 16 16 19 20 19 17 16 16
4 1 3 5 2 4 4 4 4 5 3 3 5 2 2 3 1 6 3 3 3 3 3 3 3 1 2 12 5 8 20 19 13 10 25 25 23 19 10 4 5 11 11 8 12 15 17 18 21 22 20 19 20 19
3 3 2 2 3 3 2 2 2 3 4 5 3 2 3 3 6 4 3 5 3 6 8 9 10 12 10 15 19 23 22 21 20 21 19 8 6 8 13 14 10 10 10 11 13 16 18 20 21 18 19 20 21 21
4 5 6 4 2 1 4 2 4 6 4 3 4 4 7 8 5 3 4 4 12 16 17 18 18 18 18 22 22 20 18 13 11 9 8 12 11 9 9 7 7 10 11 14 16 15 15 17 18 19 19 21 23 22
2 2 3 4 1 2 5 6 5 4 3 4 5 4 5 4 4 3 8 13 15 13 12 15 18 18 20 19 18 17 14 14 9 4 7 5 5 2 6 10 10 11 14 15 14 13 15 15 16 14 14 16 17 18
4 3 3 3 5 6 4 6 4 3 4 4 2 3 3 3 4 12 15 16 15 10 11 10 10 10 8 9 10 6 4 3 4 6 2 2 3 8 10 10 11 11 12 13 14 17 15 13 12 12 15 17 17 17
1 2 1 1 4 4 4 2 3 1 1 3 2 4 7 3 5 19 24 18 15 15 17 17 16 12 14 15 13 10 4 8 7 6 5 5 5 7 9 10 12 12 12 12 11 12 12 11 12 13 14 12 12 12
2 5 4 3 4 3 3 1 2 2 3 1 5 0 3 3 4 5 20 23 20 18 18 17 15 16 15 11 4 8 8 9 10 10 9 8 9 10 11 13 13 12 11 10 9 9 9 9 10 11 11 11 12 13
1 1 0 2 4 4 3 2 4 5 3 2 3 1 2 3 3 4 11 20 18 19 21 20 13 8 9 10 10 10 10 9 8 8 9 10 11 12 13 14 13 12 11 10 9 8 8 8 9 11 12 12 12 12

GFSWCAN_925_spd_003.txt.gz
Wind_Speed
4 3 12 17 20 18 17 15 13 10 7 5 3 1 1 3 3 2 5 4 2 3 2 3 5 5 3 2 4 4 3 2 3 3 3 3 2 3 2 2 3 3 3 4 2 4 7 2 2 2 3 2 6 8
5 4 7 17 23 22 19 17 15 12 10 7 5 3 0 2 1 3 3 5 6 7 3 3 4 5 2 8 5 1 3 4 4 4 2 3 3 2 3 3 0 4 6 2 7 6 3 1 1 3 1 2 2 3
8 4 8 9 22 26 24 20 17 15 12 10 8 6 3 1 2 2 5 5 4 3 3 3 2 3 4 4 4 4 2 3 3 2 3 2 4 4 4 6 2 3 4 4 1 5 8 4 2 3 2 4 3 3
9 12 4 7 13 27 26 24 21 18 14 11 10 8 6 3 1 2 3 6 6 7 4 3 1 2 3 4 4 4 10 8 8 2 3 3 2 4 4 3 6 5 3 4 5 14 6 2 1 5 3 4 4 5
9 9 11 3 7 18 28 28 24 21 18 15 13 11 8 6 3 2 3 3 4 3 4 2 5 1 3 5 9 9 17 6 3 2 2 3 2 3 1 1 3 5 7 3 6 3 2 3 4 3 6 3 1 4
9 8 10 12 4 9 25 28 28 25 22 19 15 14 11 9 5 1 3 7 6 4 4 1 3 3 3 2 6 7 10 3 3 4 3 3 2 3 2 3 6 5 7 5 3 3 2 5 6 6 3 2 4 7
7 8 8 12 7 4 12 29 29 28 25 20 17 14 13 10 8 3 3 0 10 7 3 2 3 3 3 4 4 3 3 1 2 3 3 3 3 4 2 5 3 2 2 3 2 8 6 4 2 1 5 7 9 11
6 7 6 8 5 7 3 15 31 29 28 23 18 15 14 15 14 7 5 7 13 7 4 3 3 3 1 1 1 2 1 0 0 1 1 2 1 1 4 3 3 4 2 6 7 8 7 8 4 4 7 9 9 10
5 4 5 4 7 8 5 1 17 31 31 26 19 15 11 7 6 5 11 14 8 2 4 3 5 3 3 2 1 1 1 1 1 1 1 1 2 4 1 2 4 4 1 9 8 8 4 2 6 8 8 9 9 11
6 4 5 5 2 4 5 2 3 15 29 27 19 6 1 6 14 16 4 1 2 2 2 2 2 2 1 1 2 2 2 2 2 0 1 2 2 3 2 1 1 7 11 9 4 2 3 5 7 8 9 12 12 15
7 4 3 3 3 2 6 1 6 19 30 5 3 2 7 14 3 4 2 2 1 1 1 1 1 2 2 2 2 1 2 1 2 0 1 1 2 2 2 6 4 6 7 5 2 1 4 6 8 9 9 13 16 18
10 6 3 2 1 1 8 14 9 9 4 8 14 10 3 3 3 3 3 2 2 3 1 2 1 2 2 1 2 1 2 1 2 1 2 2 2 2 3 3 3 5 4 1 2 4 7 8 10 12 13 15 19 24
13 9 5 5 3 4 13 20 13 15 23 8 4 4 2 2 3 5 5 1 3 3 2 2 2 2 1 2 3 2 2 2 0 1 3 2 3 2 2 2 3 4 3 5 8 11 12 15 18 17 18 23 25 24
16 12 8 5 2 3 12 16 21 6 2 3 3 3 2 1 2 3 3 3 1 3 4 3 2 1 1 2 1 3 1 1 1 2 5 2 5 4 3 2 1 4 9 9 11 13 14 17 19 22 22 22 22 23
17 14 11 11 8 14 12 8 7 5 3 3 3 3 1 0 1 2 2 3 2 3 3 3 3 1 1 3 2 3 2 3 4 4 2 3 4 4 3 1 4 5 10 11 13 13 18 21 20 22 24 24 23 24
20 16 13 17 13 13 6 6 5 4 4 3 4 4 1 2 1 1 2 3 1 2 2 3 3 2 1 3 3 5 5 5 3 3 2 1 3 3 3 6 12 15 15 15 16 18 19 20 19 20 24 24 23 22
19 5 18 20 15 10 7 3 4 5 3 3 2 2 2 2 2 2 2 2 5 2 2 2 3 3 3 2 3 4 4 3 3 2 2 3 4 4 8 13 16 17 16 16 19 20 20 21 19 20 16 22 25 24
10 18 24 23 20 14 8 7 5 3 4 1 2 2 2 1 2 1 1 1 2 2 3 2 4 2 4 4 3 3 4 2 3 3 2 4 9 13 16 15 16 17 16 19 20 19 19 18 15 16 18 22 22 21
18 33 28 24 17 7 3 2 3 3 1 1 1 1 1 1 2 3 1 1 1 4 5 2 3 3 3 3 3 2 2 3 3 3 3 12 16 20 19 18 19 19 17 17 16 13 13 15 15 17 19 17 17 20
29 28 22 18 12 4 3 2 2 3 2 1 2 2 2 2 1 1 1 1 1 2 1 3 4 3 4 3 4 3 3 4 2 4 6 4 13 16 16 17 15 17 17 19 18 15 16 16 13 15 17 18 17 19
24 19 15 15 6 7 3 1 3 1 2 2 1 2 2 1 1 1 1 0 0 2 2 3 3 4 10 7 7 10 11 9 5 4 5 7 11 15 17 20 19 18 13 13 11 13 15 15 18 17 18 18 19 21
13 14 9 6 5 4 4 5 3 1 2 1 2 1 2 2 1 1 1 2 3 3 4 3 3 3 3 3 11 12 14 14 15 15 18 20 6 8 10 14 12 11 14 16 15 14 16 18 17 18 19 20 21 21
16 9 6 5 4 5 1 2 4 3 3 1 2 2 2 1 2 1 2 3 3 6 9 7 9 13 11 16 16 17 16 15 11 12 15 15 17 19 19 21 20 15 11 15 13 15 17 18 17 20 19 19 20 20
10 5 3 3 4 1 0 2 1 2 2 2 2 0 2 2 1 2 3 3 4 2 3 6 5 3 5 6 3 9 8 6 10 13 15 14 11 17 20 22 21 18 16 14 14 15 16 17 19 18 18 20 20 19
6 2 4 3 2 3 3 2 1 2 2 2 2 2 2 1 1 2 3 3 2 2 2 3 3 5 3 3 7 11 7 9 12 8 22 18 18 21 21 23 21 16 10 12 14 14 15 15 15 17 19 19 19 20
5 0 4 5 1 4 4 4 4 3 2 3 4 1 2 2 1 5 3 3 3 3 3 4 4 2 3 12 5 9 16 12 10 10 23 20 14 13 11 7 6 7 7 8 11 10 12 15 15 17 19 19 19 20
4 3 2 2 3 4 3 2 2 3 4 5 3 2 3 2 5 4 3 4 3 4 5 9 10 12 11 18 19 17 16 18 18 20 23 20 14 11 11 10 8 8 6 8 9 10 14 15 15 16 17 18 17 18
3 3 6 4 2 1 4 2 4 5 4 3 4 4 6 8 5 3 1 9 12 16 16 14 12 12 15 18 19 21 22 20 17 14 15 12 7 7 4 4 5 6 7 7 10 13 14 14 16 18 16 14 16 17
0 1 3 4 2 2 4 5 5 3 4 4 5 4 4 3 2 7 9 17 15 12 13 15 17 19 16 13 12 12 13 12 10 8 10 4 1 3 8 9 9 8 9 10 10 11 12 15 14 13 11 12 13 13
2 2 3 2 5 5 4 6 3 2 3 3 2 2 1 4 7 14 17 20 20 16 15 14 15 15 12 13 14 12 11 12 12 7 4 3 5 8 10 11 11 12 12 11 11 12 11 12 10 11 12 11 14 13
2 2 2 2 4 3 3 3 2 1 0 2 1 3 3 4 5 18 24 20 18 19 20 19 20 18 16 15 12 9 6 15 13 12 10 8 8 10 11 12 13 13 12 12 11 11 10 9 9 9 9 10 11 12
1 2 3 3 4 3 4 2 1 1 3 2 3 2 3 3 4 5 19 22 19 20 20 18 16 17 15 11 11 11 10 11 13 13 12 12 12 12 13 13 12 12 10 10 9 7 6 6 7 9 9 11 11 12
0 0 0 2 3 5 3 2 4 5 3 2 2 1 1 3 3 3 12 20 17 19 22 21 14 10 11 14 15 15 15 14 13 13 12 12 12 13 13 13 12 11 10 9 8 7 7 8 9 10 10 10 10 10

GFSWCAN_925_spd_006.txt.gz
Wind_Speed
5 8 16 18 18 14 14 13 11 8 6 4 2 1 3 3 3 3 4 4 2 3 3 1 4 5 4 4 5 6 5 2 2 3 3 3 2 3 3 2 3 3 2 4 3 4 6 2 2 2 5 6 2 4
8 4 5 14 18 17 15 14 12 10 8 6 4 2 2 2 2 4 2 5 7 5 3 2 2 2 2 4 5 5 1 5 4 4 3 3 3 1 1 3 4 4 5 4 7 6 5 8 7 4 1 4 6 1
13 5 3 5 16 18 18 15 14 12 9 8 6 4 1 2 3 2 4 5 4 3 3 3 3 1 4 3 5 4 1 3 4 3 4 2 3 5 4 6 4 5 6 4 6 11 12 10 5 3 2 1 2 4
12 13 6 2 6 18 22 19 16 14 12 10 8 7 4 2 2 3 4 5 5 5 4 2 1 2 3 4 3 3 11 9 8 2 3 3 3 6 4 6 8 8 7 11 12 15 12 4 3 3 3 4 5 4
11 10 12 6 3 7 20 22 21 18 15 12 10 9 7 4 3 4 5 4 4 0 3 2 1 2 1 3 6 10 16 7 3 3 3 4 3 3 2 1 7 9 12 5 4 3 7 1 3 5 5 5 2 5
9 11 8 9 7 4 10 24 23 21 19 16 12 10 9 6 5 3 1 3 3 4 3 2 2 1 3 3 7 8 8 3 2 4 3 3 3 5 4 3 7 11 8 8 7 7 2 0 4 4 2 3 5 8
7 9 9 9 7 6 5 16 26 24 22 18 15 11 9 7 7 1 0 1 7 5 3 1 2 2 2 3 3 2 2 1 3 3 3 3 4 4 2 5 7 6 2 2 4 7 4 6 2 2 3 6 10 15
6 7 9 8 7 8 6 6 23 25 25 21 17 13 12 12 7 4 4 5 10 6 3 3 2 1 2 2 2 1 2 1 2 1 1 2 2 2 4 6 2 4 6 6 5 2 5 7 4 4 7 11 12 13
5 5 7 9 8 7 9 5 9 28 26 26 22 18 11 7 6 5 10 10 5 2 3 2 6 4 4 2 1 2 1 2 1 1 1 2 3 5 5 4 2 5 5 8 8 7 5 0 4 7 10 12 13 14
5 6 7 8 7 6 6 8 4 16 26 29 23 7 1 6 14 17 4 1 2 2 1 2 2 3 3 2 2 3 0 1 3 1 1 2 2 2 3 3 3 6 11 10 7 4 2 4 7 9 11 13 14 16
5 5 6 7 9 8 1 8 2 10 25 11 3 2 6 18 4 3 2 3 2 1 1 2 2 3 3 2 2 1 2 1 2 2 2 2 3 5 7 9 8 9 8 5 4 2 3 6 8 9 11 14 15 16
4 6 7 7 8 7 3 9 15 6 7 8 14 12 5 2 2 3 4 2 3 4 3 3 2 2 1 1 2 1 1 2 2 2 2 3 3 8 10 11 8 8 7 3 1 4 7 9 10 11 13 15 16 19
4 4 6 4 5 5 6 8 11 20 17 7 6 3 2 1 3 5 6 3 4 4 4 3 3 2 2 2 3 2 4 2 1 3 3 3 7 9 10 8 8 7 2 3 7 9 11 12 12 13 15 19 19 18
8 7 6 4 4 1 10 8 12 5 5 2 1 4 1 3 2 2 2 3 3 3 5 4 3 2 0 2 1 2 2 2 3 4 5 4 9 10 7 6 6 3 2 6 10 12 11 14 15 19 19 20 18 18
9 9 7 6 3 4 13 6 6 4 2 2 1 2 2 3 3 2 1 2 2 4 3 4 3 0 2 3 1 3 4 4 4 3 0 5 8 7 7 5 3 3 8 9 11 12 14 16 16 17 19 18 15 21
5 7 14 11 9 8 8 3 5 3 4 1 3 3 2 2 1 1 2 3 2 3 2 2 2 3 2 3 4 5 3 5 1 1 2 5 5 5 5 5 6 10 12 13 14 13 14 16 15 16 20 22 21 19
5 5 12 15 10 8 1 3 4 4 2 1 2 3 2 2 2 2 1 2 6 2 2 2 5 2 4 2 3 4 4 0 2 3 2 2 3 6 7 8 11 12 13 14 14 13 14 15 15 13 15 18 16 15
9 7 18 17 12 6 4 4 3 3 4 2 2 3 2 2 2 2 2 2 2 2 3 2 4 4 4 4 3 2 3 1 2 1 0 1 5 10 12 14 17 16 15 14 15 15 13 13 11 13 15 16 17 16
10 12 21 20 12 5 3 3 2 2 2 2 3 2 2 2 3 3 1 1 2 2 4 2 2 3 2 3 2 2 2 2 2 4 5 9 11 12 14 16 16 16 16 15 14 14 14 12 14 14 14 15 15 18
12 14 27 20 10 3 3 2 2 2 2 2 2 3 2 2 1 1 1 1 2 2 2 2 3 2 3 2 3 2 2 2 3 6 7 6 10 12 13 15 16 16 15 16 15 13 11 11 11 13 15 16 18 19
19 15 20 18 7 8 4 1 2 2 3 2 2 1 2 1 1 1 1 1 0 2 2 3 3 4 4 2 3 4 6 8 6 5 7 7 11 11 14 15 16 14 14 13 12 12 10 11 13 12 13 16 18 20
10 13 8 7 5 3 3 4 2 2 1 3 3 0 2 2 1 1 1 3 3 3 4 4 5 4 4 4 8 9 11 8 9 12 14 13 6 8 10 12 12 12 13 14 14 12 11 11 11 11 14 17 19 20
15 7 5 3 4 3 2 2 1 2 2 3 2 2 2 2 1 2 2 3 4 6 8 7 7 7 7 7 6 9 8 10 9 8 8 9 11 13 13 13 12 14 14 16 12 12 11 11 12 14 16 17 16 18
7 5 3 3 3 3 1 2 2 2 2 1 2 2 1 1 1 1 3 3 4 3 3 6 4 4 4 4 5 8 8 9 8 8 9 9 11 14 14 16 15 14 15 15 12 12 10 11 12 12 14 15 16 18
5 4 2 4 2 3 3 3 2 2 2 3 2 2 2 2 2 3 3 3 2 3 2 3 3 4 3 3 5 7 8 10 9 10 12 11 13 16 16 14 15 13 12 10 9 10 10 11 11 12 14 15 17 19
5 2 2 3 3 2 3 4 4 3 3 3 3 1 1 2 3 4 3 1 1 1 1 2 2 2 4 6 6 10 11 6 7 11 17 13 9 11 13 10 11 12 7 8 8 7 9 9 13 15 14 13 14 16
4 2 2 2 3 4 3 2 3 2 4 5 3 4 4 3 4 2 1 5 3 8 10 9 8 8 9 14 15 14 13 13 14 16 18 18 15 12 11 12 12 7 7 8 8 7 10 12 13 13 13 14 13 12
3 3 5 5 2 0 4 4 6 6 4 4 5 5 4 5 1 2 4 8 11 10 9 8 9 11 12 13 15 14 13 14 17 18 18 17 15 8 4 4 6 7 7 7 8 9 10 12 10 12 13 12 11 10
2 4 4 4 2 3 4 5 4 4 4 5 4 4 3 2 3 6 8 13 11 11 12 14 14 15 12 13 10 11 12 13 14 11 11 8 5 6 12 10 9 9 9 9 8 8 9 9 10 9 8 8 8 7
2 3 2 3 3 4 2 4 1 1 3 1 1 2 3 3 6 8 10 13 14 13 11 10 11 12 13 14 14 10 10 12 13 11 7 6 10 12 12 12 12 12 12 11 10 10 9 8 7 6 6 5 7 7
2 3 2 3 3 2 1 2 2 2 2 2 1 3 2 4 5 11 16 12 11 11 13 14 13 13 13 13 14 12 9 12 15 13 11 9 10 11 13 14 14 14 13 11 10 8 7 5 5 5 6 7 8 8
1 1 1 2 2 1 2 1 1 2 1 2 1 2 3 3 3 4 13 12 13 14 14 13 12 12 12 9 9 9 8 10 13 15 15 14 14 14 14 14 13 12 11 9 7 5 5 5 5 5 6 7 7 8
0 0 0 2 2 2 2 2 2 3 1 1 2 2 3 3 3 3 5 10 8 10 13 14 13 9 7 7 9 11 11 12 15 17 17 16 14 14 13 12 11 10 9 6 5 4 5 6 6 7 7 7 7 8

GFSWCAN_925_spd_009.txt.gz
Wind_Speed
17 24 22 20 17 16 14 13 11 8 5 4 3 1 2 3 3 5 1 4 3 3 5 2 2 7 4 6 5 8 5 2 2 2 3 3 1 4 3 2 4 6 5 4 3 3 6 4 4 3 8 11 6 4
12 16 21 19 18 15 14 13 11 8 6 4 3 1 1 2 2 3 1 4 7 2 4 3 3 2 3 4 4 9 0 6 6 3 3 3 2 0 1 3 4 4 6 3 8 6 9 6 8 10 4 5 6 2
14 9 10 16 18 17 15 14 11 9 7 5 3 3 1 1 1 3 2 2 3 2 3 4 4 2 3 2 1 3 2 3 5 3 4 3 3 5 5 6 7 6 10 7 8 7 13 8 9 7 6 2 4 5
17 13 9 6 10 16 17 15 13 11 9 7 5 4 2 1 1 3 1 0 2 4 4 3 2 3 2 1 2 1 9 6 8 4 3 3 3 8 5 7 7 8 8 10 14 17 14 11 6 3 2 3 4 8
14 12 12 8 4 8 17 17 15 13 11 8 7 6 4 2 3 4 3 2 2 3 3 2 2 0 0 2 4 5 12 6 3 2 2 3 3 2 2 2 8 9 14 10 10 7 5 6 5 5 5 5 3 5
13 11 10 10 7 3 5 18 19 17 14 11 8 6 6 5 4 2 3 1 1 2 3 3 2 3 1 4 6 8 9 4 4 4 3 3 6 5 5 4 6 7 9 12 10 0 2 3 2 6 3 2 4 7
11 11 12 10 9 7 1 6 19 20 18 15 11 7 6 5 2 3 1 1 4 2 2 2 3 2 1 5 3 4 2 3 3 3 4 4 5 4 3 7 8 9 8 3 2 6 3 6 4 3 2 4 6 11
8 8 10 11 9 8 7 1 9 23 21 16 13 10 9 7 4 4 1 4 5 3 2 2 2 2 5 3 3 2 2 1 4 2 2 3 2 1 4 9 11 5 5 4 6 4 4 6 4 4 3 7 10 12
7 6 9 10 9 7 6 6 3 16 21 20 16 14 10 6 5 3 6 5 1 1 2 3 6 4 5 2 2 2 2 2 1 1 2 2 3 6 8 9 8 8 6 8 7 8 8 3 2 4 7 10 11 13
7 7 10 11 11 10 5 6 4 7 20 23 17 7 2 6 11 13 3 1 2 2 1 4 3 4 4 3 2 3 0 3 3 2 2 2 3 8 4 4 3 7 9 9 9 7 3 3 4 7 9 11 13 15
5 7 10 11 13 12 5 9 2 6 10 8 2 1 3 18 4 1 3 2 2 2 3 2 4 4 2 3 3 1 2 1 3 3 3 3 3 8 10 7 6 9 11 8 4 5 1 3 6 8 9 11 13 14
7 4 8 9 10 9 11 7 9 6 7 8 10 7 5 2 2 3 2 2 4 5 3 3 2 2 2 1 3 2 3 2 3 5 2 3 3 7 10 11 10 11 10 7 3 1 4 7 9 10 11 13 15 15
4 3 6 8 9 7 10 14 21 18 14 9 6 3 2 1 2 6 9 3 3 4 3 3 2 2 2 2 2 3 5 2 1 2 3 4 7 7 10 11 10 11 8 2 2 5 8 11 11 10 13 15 18 16
5 3 3 6 9 4 9 11 14 8 5 2 2 3 2 2 2 2 3 2 2 3 5 4 2 2 1 2 2 3 2 2 3 3 4 1 6 8 9 7 8 8 7 1 6 10 10 11 13 15 17 20 19 18
2 3 4 2 5 8 7 10 9 6 3 2 1 2 2 1 3 3 3 2 2 3 2 4 3 2 2 2 1 3 3 3 4 2 3 2 6 7 7 6 6 2 2 5 10 12 13 16 15 15 15 16 14 19
2 2 5 4 2 6 7 8 4 3 3 2 2 2 1 1 2 2 3 2 3 2 2 2 2 2 2 1 3 3 2 4 1 1 1 5 5 5 6 5 6 5 8 12 15 15 15 14 16 16 16 19 21 18
1 2 5 9 6 3 5 3 2 2 3 3 2 2 2 3 3 2 0 2 2 1 1 1 2 2 2 2 2 2 3 2 2 3 3 5 4 2 5 8 7 9 12 15 15 15 14 14 15 14 14 16 12 14
4 4 8 11 8 4 4 5 2 1 3 2 3 3 1 1 3 2 1 2 1 1 1 1 2 3 3 2 2 1 2 2 3 3 3 2 2 5 9 12 15 16 17 16 14 15 15 15 13 14 15 16 15 15
4 5 11 15 8 5 2 2 2 2 2 2 3 2 2 3 3 3 2 2 3 1 3 1 1 2 2 2 1 2 3 2 2 3 3 7 9 10 10 13 14 15 16 16 16 16 17 18 18 17 15 14 16 17
9 5 7 15 7 3 2 1 2 1 3 3 3 3 2 3 2 1 1 0 1 2 2 3 2 1 1 1 2 2 2 3 3 6 7 6 7 7 11 13 14 15 16 17 17 17 17 16 16 14 14 14 14 17
11 6 12 12 2 5 2 1 2 2 3 2 3 3 3 2 2 2 2 0 1 2 3 4 4 4 3 2 2 3 5 7 6 6 7 7 10 11 13 13 13 13 14 14 13 16 16 16 17 14 11 13 15 17
7 15 5 4 4 3 3 3 2 2 1 3 4 2 2 2 2 2 1 2 3 5 4 4 5 4 4 5 7 8 8 8 9 11 11 12 7 7 8 10 12 12 14 15 17 17 17 18 16 12 13 15 16 16
16 5 4 3 3 1 2 1 2 1 2 3 3 3 2 2 1 1 2 3 3 4 7 6 4 5 6 6 5 8 9 10 10 11 8 7 9 10 12 14 14 14 15 19 18 19 19 16 14 13 14 15 16 15
8 4 2 2 2 4 3 2 1 3 2 2 3 2 2 1 1 1 2 2 3 1 2 3 4 3 5 4 4 4 7 8 10 9 8 10 12 15 15 16 16 16 17 19 17 19 19 16 16 14 15 15 13 14
3 2 1 4 2 4 4 4 3 2 2 2 3 2 2 2 2 3 3 1 2 3 4 3 1 0 1 2 4 7 8 7 11 13 15 17 17 18 18 18 18 18 18 16 14 15 15 13 12 11 12 14 14 14
4 2 2 2 3 2 4 4 4 4 3 4 3 2 2 3 3 4 2 4 3 5 6 6 6 4 4 9 9 12 13 13 14 16 19 19 18 16 14 13 14 17 13 10 12 13 13 12 10 12 15 14 12 12
4 3 3 3 3 4 4 2 3 2 4 4 4 5 4 3 4 2 4 8 3 7 8 8 9 8 9 12 13 13 14 14 13 17 23 24 21 20 19 15 14 10 11 13 14 14 12 11 12 14 13 12 13 12
3 2 4 4 2 1 3 3 4 5 3 3 5 5 3 3 1 3 4 6 7 8 6 6 7 9 11 11 13 13 14 16 17 18 16 14 6 10 13 13 13 15 12 11 12 12 12 12 13 12 12 13 11 7
3 3 3 3 2 1 1 3 2 3 2 4 3 3 2 3 3 4 5 8 8 8 9 10 11 12 11 11 10 8 11 14 16 13 13 8 13 15 19 17 16 16 15 15 14 12 12 11 10 10 9 8 6 6
2 0 2 2 2 1 1 1 1 1 2 1 1 2 3 4 6 6 7 9 10 10 9 9 10 11 12 12 12 10 10 12 13 12 8 9 16 19 19 19 18 18 17 16 15 15 12 10 9 7 7 6 7 5
1 1 1 1 1 1 2 2 2 1 2 2 1 3 3 4 5 9 10 8 8 8 9 9 9 10 11 11 12 12 11 10 14 13 14 14 15 16 18 19 18 18 17 16 15 13 11 10 7 6 5 5 6 7
1 0 1 2 2 1 2 1 1 2 2 3 3 2 3 3 2 3 7 7 7 8 9 9 10 11 10 9 9 8 10 12 13 15 16 17 17 17 18 17 17 17 16 15 12 10 9 8 6 6 4 6 6 7
1 2 2 2 2 2 1 2 2 2 3 2 2 2 3 4 3 3 2 6 6 7 9 11 12 12 9 9 9 10 12 13 15 16 17 18 18 18 18 15 16 16 14 12 10 8 8 7 6 6 6 6 6 7

GFSWCAN_925_spd_012.txt.gz
Wind_Speed
33 28 26 22 20 19 17 15 11 8 6 4 3 3 4 4 4 6 2 5 3 2 3 5 3 6 3 7 4 8 4 1 2 3 3 3 1 4 1 4 7 7 6 4 3 3 6 1 1 2 6 9 5 6
32 28 26 23 20 17 16 14 11 8 6 4 3 2 3 4 3 2 1 5 8 2 3 5 5 6 6 7 4 7 2 7 5 3 2 1 2 2 3 3 7 4 6 4 9 5 7 3 4 2 1 3 3 3
18 27 27 23 19 17 14 12 10 8 6 4 3 1 3 4 3 3 4 2 3 2 3 3 3 3 3 5 4 3 1 4 6 3 4 3 3 4 4 4 3 4 7 3 3 8 10 7 2 6 6 4 3 2
20 20 18 20 18 17 15 13 10 8 6 4 3 1 2 3 4 5 2 2 2 5 4 3 2 2 2 2 1 3 5 8 6 4 3 3 3 8 5 6 4 5 4 6 8 12 10 6 10 9 5 1 3 8
20 20 17 13 12 14 14 14 12 10 8 5 3 2 1 2 3 5 2 3 2 3 3 1 0 2 1 2 4 5 10 6 3 2 2 4 2 1 3 1 3 5 9 7 8 6 1 5 8 3 2 2 5 3
21 17 16 14 11 8 13 15 14 12 9 6 4 2 1 1 1 1 3 3 2 4 3 2 2 2 2 3 6 6 7 3 4 4 3 3 6 3 3 3 7 9 7 6 6 5 7 8 5 3 4 3 2 5
20 19 16 14 13 9 5 9 18 14 11 8 5 3 2 1 2 2 1 2 1 3 2 1 2 2 4 5 2 2 3 2 1 1 3 2 2 4 4 5 7 8 8 5 6 9 6 3 4 4 4 2 4 6
16 17 16 14 12 11 9 3 7 17 15 11 8 4 3 1 1 2 2 2 3 1 1 2 2 1 4 1 2 4 2 2 1 1 1 2 2 1 4 8 10 13 8 8 6 4 7 9 7 9 6 1 5 7
15 15 15 14 12 9 7 7 2 10 17 13 9 6 3 2 3 2 3 2 2 1 2 2 5 4 4 2 2 2 1 1 0 1 1 1 3 6 6 7 8 7 7 9 8 6 9 10 5 2 2 4 6 8
14 14 15 15 15 8 6 6 2 4 18 17 12 4 1 3 6 9 2 1 2 2 2 3 3 3 4 2 1 2 2 1 2 2 2 2 3 10 10 8 4 8 9 10 8 8 7 4 1 2 4 6 8 9
12 13 13 14 16 11 10 11 4 10 11 4 2 1 1 9 4 1 2 3 2 2 3 3 6 5 3 3 2 0 3 2 3 2 4 3 3 6 11 7 3 4 9 8 8 6 8 3 2 3 4 6 5 7
10 11 12 12 14 10 11 8 5 4 5 7 10 7 4 3 2 4 5 1 4 4 3 3 1 3 2 0 3 2 3 2 4 6 2 3 3 6 9 7 6 8 11 10 10 7 4 2 5 5 6 7 8 10
7 8 10 12 11 11 15 16 17 18 10 7 7 4 2 2 2 2 4 2 2 2 2 2 2 2 2 2 3 2 6 5 1 3 3 2 6 5 8 7 8 13 15 10 6 5 6 5 7 9 11 13 15 15
3 5 6 9 11 8 8 8 8 5 6 3 2 3 2 2 2 1 2 2 2 2 2 3 3 2 1 2 2 3 1 2 3 3 4 1 5 5 7 5 7 10 10 7 4 3 5 8 11 13 15 17 17 18
3 2 4 6 7 7 4 5 2 5 3 2 0 2 2 1 1 2 2 1 3 1 2 2 2 2 2 3 0 3 4 3 2 2 3 4 7 9 7 7 8 6 5 2 3 7 10 12 13 15 16 16 17 17
2 3 3 2 6 7 7 5 5 4 2 2 2 2 1 1 1 2 2 1 1 1 0 2 2 1 2 2 2 1 1 0 2 2 2 5 6 6 4 4 4 1 2 4 7 10 13 14 15 16 15 17 23 21
3 2 2 5 4 3 4 4 3 3 1 1 2 1 2 3 2 1 1 2 4 2 2 1 2 4 1 0 1 1 1 2 2 2 4 5 5 3 1 1 3 4 7 9 12 14 14 15 16 17 15 19 18 18
1 1 1 7 6 2 3 3 2 1 1 2 1 2 2 3 2 1 2 1 1 1 1 1 2 1 0 1 2 2 2 2 2 2 3 2 2 4 6 7 9 9 11 12 14 16 17 17 15 16 19 20 14 11
5 3 2 9 3 3 2 2 3 1 2 2 2 2 2 2 2 4 3 4 3 1 1 1 1 2 1 2 1 1 2 1 2 2 1 1 3 3 5 7 9 12 13 14 14 13 15 16 18 19 19 17 14 15
6 4 2 11 3 3 2 1 0 1 1 2 2 2 2 2 1 1 1 1 1 1 1 1 2 1 1 1 0 2 1 1 2 2 3 3 6 3 6 9 9 12 14 14 14 15 15 15 17 18 19 20 18 11
6 3 1 8 3 2 2 2 2 1 2 2 2 3 2 2 2 1 1 1 1 2 3 3 1 1 2 4 4 4 2 1 2 2 3 4 6 8 10 12 12 12 11 11 11 15 16 16 18 20 21 15 8 8
4 9 4 3 1 2 2 1 2 2 2 2 2 2 2 2 2 1 1 1 2 4 3 2 3 1 2 4 4 4 4 4 6 7 9 9 4 7 7 8 9 10 11 13 15 16 17 18 18 21 21 18 15 16
10 6 3 2 2 2 3 2 2 3 3 4 3 3 2 2 1 2 2 3 3 2 5 4 1 2 3 3 2 3 4 5 6 7 9 8 9 11 12 13 15 16 14 17 17 17 16 15 19 19 16 17 15 14
5 2 2 2 1 3 2 3 2 3 3 4 4 3 3 2 2 2 2 2 1 3 0 1 2 3 5 2 3 4 9 9 9 8 10 11 11 14 17 18 19 20 19 18 18 18 17 19 20 18 16 13 13 13
3 3 2 3 2 3 4 5 4 3 3 3 4 2 3 3 3 3 2 2 6 5 5 10 6 1 2 3 5 10 19 18 14 12 14 16 17 17 17 17 19 18 23 23 18 14 14 14 15 15 13 11 15 16
2 2 2 2 2 2 3 3 4 4 3 3 2 3 2 2 2 3 2 4 5 5 6 7 7 5 5 12 9 12 14 17 16 14 16 18 20 18 17 14 14 13 20 22 22 19 18 17 16 15 11 14 16 13
3 2 1 3 2 5 4 2 3 2 3 3 4 4 3 3 4 3 4 9 4 7 7 9 8 9 8 10 10 11 12 13 13 16 19 19 9 15 16 14 14 16 20 19 19 19 20 19 17 15 15 14 11 13
2 1 3 2 3 2 3 3 3 3 2 3 6 4 3 2 3 3 3 6 6 5 5 8 9 8 8 9 9 8 11 14 15 13 11 6 12 17 22 20 20 22 21 21 21 21 20 19 19 15 14 13 12 5
2 2 2 3 2 2 1 2 2 2 2 3 3 3 3 3 4 5 6 6 6 6 8 8 10 10 9 9 9 7 9 13 15 12 12 7 13 17 25 23 24 24 23 24 22 21 21 21 18 14 13 7 8 8
2 3 2 2 1 2 3 4 2 3 3 3 2 3 4 3 6 6 6 7 8 8 7 7 7 9 9 10 10 11 8 11 13 13 9 9 16 23 23 23 25 24 24 23 23 23 20 20 17 8 7 8 9 9
2 1 2 2 2 3 3 2 1 1 1 1 2 2 3 4 5 7 8 7 6 7 7 8 8 9 10 10 10 11 10 9 13 11 13 15 18 20 22 24 24 22 22 21 21 20 18 16 12 10 8 10 11 11
2 3 2 1 2 2 1 2 1 1 1 1 2 3 4 4 3 3 5 7 5 6 7 8 9 10 10 10 8 7 9 12 13 15 17 16 19 21 22 23 21 21 21 20 18 16 13 12 9 9 10 10 10 10
2 2 2 2 1 1 2 3 2 2 1 2 3 3 4 4 3 3 3 5 4 5 6 7 9 11 11 6 10 9 10 13 16 16 16 19 21 23 24 21 19 18 21 18 16 12 10 9 8 9 9 9 9 8

GFSWCAN_925_spd_015.txt.gz
Wind_Speed
37 33 28 25 23 21 18 15 12 10 7 6 5 6 7 7 6 6 6 7 4 3 3 6 7 4 4 5 5 5 4 4 3 3 3 3 2 4 2 6 7 7 6 4 3 3 7 6 4 7 5 3 6 6
37 32 30 26 23 20 18 15 12 10 8 6 5 6 6 7 5 5 4 8 8 5 3 5 7 9 6 1 5 4 7 4 5 4 1 3 1 0 2 3 4 2 7 6 9 6 7 6 7 5 5 5 4 4
33 32 29 26 22 20 17 15 12 9 7 5 5 5 6 7 7 9 6 6 5 3 4 4 3 6 4 10 5 5 2 5 4 3 3 3 3 4 4 5 1 3 6 3 4 6 6 5 5 5 6 7 7 6
33 30 27 25 23 20 17 15 12 9 7 5 5 5 6 7 8 9 6 5 6 6 4 3 2 3 4 5 5 5 7 9 8 4 3 3 3 5 4 4 4 5 2 1 3 3 4 5 7 8 8 7 6 4
28 26 27 24 21 20 17 15 12 10 8 6 5 4 5 6 8 9 8 7 6 4 4 2 2 3 3 2 4 6 15 6 3 3 2 3 3 2 1 2 2 3 5 3 5 4 4 5 6 6 7 8 6 3
28 25 23 21 19 17 16 15 13 10 9 7 5 4 4 4 5 4 2 3 5 4 4 1 1 2 2 1 1 5 4 2 3 4 3 3 3 4 3 3 4 6 7 5 3 3 7 10 8 8 6 7 8 7
24 21 21 20 16 13 14 15 14 12 10 7 5 4 4 4 5 5 3 1 2 3 3 2 1 5 4 3 5 4 7 2 2 3 2 3 2 3 3 4 6 8 5 7 12 10 5 5 4 6 10 10 8 6
23 22 19 15 15 13 10 9 15 13 12 8 6 5 6 6 5 2 4 3 3 5 5 3 2 3 3 2 2 5 2 3 3 2 1 1 3 2 3 7 8 11 8 9 7 5 6 9 7 5 6 9 7 6
21 21 19 15 13 10 9 6 8 16 13 10 8 5 3 3 2 2 2 3 2 2 3 2 5 4 2 2 1 3 2 1 1 0 1 2 2 5 6 6 7 6 8 11 9 9 8 7 7 5 8 8 7 5
20 19 20 17 14 10 6 5 7 13 15 12 7 3 1 1 2 3 1 3 4 3 2 2 3 2 4 1 1 2 2 2 1 3 1 1 3 5 6 5 3 6 12 13 11 8 8 6 8 7 7 8 6 2
18 18 18 16 15 12 11 12 12 15 14 4 3 1 2 6 2 3 1 2 1 2 2 3 4 4 2 3 3 1 2 1 2 3 4 2 3 5 7 2 5 7 10 6 10 14 14 10 7 6 5 3 2 4
16 18 17 16 17 17 13 11 9 5 5 7 11 7 3 4 2 3 3 1 2 3 3 1 2 2 2 1 3 1 3 2 5 3 2 3 3 5 9 8 7 10 16 16 19 15 16 16 12 7 3 6 8 8
12 15 17 12 16 18 18 21 20 16 10 6 6 4 2 3 2 4 5 1 1 2 1 1 2 2 2 3 2 2 5 5 2 3 3 3 2 5 7 10 12 18 22 20 16 16 12 7 5 5 8 10 11 12
10 12 14 12 8 11 12 12 13 7 5 3 2 3 1 2 2 1 1 1 1 0 1 2 2 2 1 2 2 4 1 2 3 3 3 2 5 6 6 8 10 7 11 12 8 6 3 4 8 9 10 12 12 13
8 8 11 12 9 6 4 3 7 6 4 3 2 2 2 2 0 0 0 0 3 0 2 1 2 1 1 2 1 3 1 1 1 1 2 2 2 6 7 6 7 6 7 6 4 1 5 8 9 11 12 13 13 16
7 7 8 7 8 8 8 6 6 3 3 3 3 3 1 1 1 0 1 1 1 1 1 2 1 1 2 1 1 0 2 1 2 1 2 2 3 3 5 5 6 6 6 2 4 7 8 9 11 14 15 16 20 21
8 5 2 4 4 5 5 4 4 4 3 2 2 2 1 2 2 1 0 1 1 1 1 1 3 1 0 1 1 2 2 1 2 0 1 3 4 3 5 5 2 3 5 6 7 8 11 13 15 16 16 21 21 22
7 4 3 5 4 4 4 5 3 2 2 2 2 2 2 2 2 1 1 2 2 1 1 2 3 1 0 0 1 1 2 0 2 3 3 2 4 3 1 2 3 4 7 10 12 13 14 15 15 17 20 20 21 22
9 6 2 5 3 3 2 4 3 2 2 2 1 2 2 2 3 3 1 4 2 0 2 2 1 1 1 1 2 1 1 2 2 2 1 3 4 6 4 3 5 7 8 10 11 14 16 17 18 21 24 26 24 26
3 7 6 3 3 2 2 1 1 2 2 2 2 2 2 2 1 1 1 2 1 1 2 1 2 2 2 1 1 2 2 2 3 2 2 2 4 3 3 6 9 10 11 12 13 14 15 18 22 23 21 19 16 16
2 2 4 1 3 3 2 2 1 1 2 2 2 3 2 1 1 1 1 1 1 1 1 3 2 2 9 8 7 5 4 3 1 3 3 1 5 10 13 13 12 14 15 15 13 17 18 19 24 22 18 19 21 20
1 1 3 2 3 4 1 3 2 1 2 2 1 2 2 2 2 1 1 1 2 2 2 1 1 1 2 1 1 2 1 2 3 4 6 8 2 4 7 10 10 12 17 20 22 21 22 23 19 14 21 18 16 17
2 1 1 1 2 2 2 3 2 3 3 2 1 2 1 1 1 0 2 2 3 1 5 6 5 7 6 5 3 4 4 1 3 5 15 17 16 17 19 19 20 18 16 17 18 20 22 26 23 20 19 18 17 15
4 2 1 2 3 3 1 1 1 2 3 3 3 3 3 3 2 1 2 2 1 10 8 11 7 2 3 7 11 14 17 16 16 17 22 17 13 15 18 19 21 22 18 19 19 19 21 21 18 15 17 17 17 13
2 2 1 3 1 3 4 3 4 2 3 3 3 2 1 2 2 2 2 1 3 4 5 14 14 13 6 4 11 14 18 20 14 11 15 16 18 17 16 16 15 10 23 21 20 20 20 20 20 21 20 20 15 14
4 3 3 4 2 3 4 4 4 5 3 3 2 2 2 2 2 3 2 2 2 3 5 6 5 4 7 13 8 12 13 17 16 9 10 16 12 11 12 11 12 15 25 23 22 22 22 23 22 23 20 19 19 18
3 4 2 1 2 2 1 1 2 3 2 4 3 3 3 3 4 2 2 6 3 9 7 9 11 10 7 9 9 7 10 13 11 11 12 8 15 18 18 15 15 19 24 23 24 24 23 23 22 23 23 18 19 21
1 1 3 2 0 0 3 2 2 2 2 1 4 2 5 4 2 2 3 6 6 6 11 11 9 7 8 8 7 8 11 14 13 11 11 9 14 15 23 21 20 25 23 22 24 24 25 25 26 23 23 20 9 8
1 1 2 2 2 1 1 2 2 1 2 3 4 1 3 3 5 4 6 8 6 9 10 10 11 9 9 12 12 10 12 16 19 7 6 4 13 17 27 24 26 29 27 25 26 24 24 25 25 27 21 7 8 9
1 2 1 1 2 2 2 3 2 3 4 2 4 3 3 3 7 9 9 8 9 10 10 10 10 11 12 12 12 11 10 15 16 10 4 5 14 22 25 27 27 29 26 26 30 28 22 24 22 17 10 11 10 10
2 2 2 2 2 2 2 2 1 0 2 2 4 4 3 3 4 7 9 9 8 8 11 11 12 13 11 11 12 8 8 7 11 10 15 16 16 20 24 27 28 23 23 27 27 23 24 19 16 11 11 12 12 11
2 4 1 1 2 1 1 1 0 1 1 2 2 3 3 3 2 3 6 8 9 10 9 8 9 11 11 8 7 9 4 7 12 15 14 16 19 21 25 24 20 21 23 26 23 21 17 13 12 11 10 10 10 10
2 1 1 1 1 0 1 2 2 0 0 1 3 2 2 2 3 3 4 4 3 3 4 6 5 6 10 9 7 6 11 14 10 12 15 14 19 21 21 20 20 20 19 22 17 15 14 12 11 11 10 9 9 9

GFSWCAN_925_spd_018.txt.gz
Wind_Speed
34 34 32 29 26 24 21 18 16 13 10 9 9 9 9 9 8 8 9 7 3 3 2 4 3 4 4 3 5 4 4 4 3 4 3 4 3 5 3 5 6 7 6 4 3 2 8 7 5 7 6 4 7 6
36 32 30 28 26 24 21 18 16 13 11 9 9 9 9 9 8 8 6 7 8 4 3 4 9 8 3 5 6 1 6 4 5 4 2 3 1 1 2 3 3 2 7 6 10 7 5 7 7 5 7 6 7 8
36 32 30 28 26 24 21 18 15 13 11 9 9 9 9 9 9 9 9 6 5 3 4 4 3 7 7 7 5 5 2 5 4 3 4 3 2 4 4 5 4 4 5 2 3 6 9 7 0 5 4 5 7 5
35 31 30 28 25 23 21 18 15 13 10 9 9 9 10 11 10 8 8 6 7 5 4 3 3 4 6 7 6 3 10 9 8 3 3 3 3 4 3 3 4 5 4 5 4 5 2 3 1 6 7 8 7 8
33 31 29 27 25 23 20 17 14 12 10 8 8 9 9 11 12 12 13 11 7 5 4 2 1 4 5 6 9 12 19 6 3 3 3 3 2 3 1 2 3 4 7 4 6 6 5 5 8 8 8 7 9 7
34 31 28 25 24 22 19 17 15 13 11 9 8 8 7 9 12 4 3 5 6 4 4 1 4 5 9 6 9 6 5 3 3 4 3 2 3 4 4 4 6 6 5 5 5 5 4 7 8 7 7 9 8 9
31 28 28 25 21 20 18 17 15 13 11 10 9 9 8 7 6 6 3 2 4 4 3 2 3 4 5 4 4 3 6 2 3 2 1 3 2 3 2 4 6 8 8 3 6 9 5 4 5 8 11 12 17 18
26 26 25 21 18 16 16 16 15 14 12 10 11 11 10 11 10 6 9 7 5 9 5 3 2 4 5 2 2 4 2 3 3 2 1 2 1 2 3 8 7 9 8 6 8 1 6 8 8 8 12 16 10 8
25 22 19 17 17 14 13 15 15 14 12 11 11 9 5 4 3 2 4 5 6 4 4 2 5 4 2 2 1 3 2 1 2 1 2 2 2 5 7 6 5 6 6 8 6 7 10 11 10 8 9 6 8 5
25 22 18 14 12 11 11 12 16 16 13 12 6 5 2 3 2 3 2 4 5 3 3 2 2 1 3 1 2 2 2 1 1 3 1 1 3 5 7 7 3 5 8 14 12 8 8 9 10 6 6 7 7 5
23 21 18 17 15 14 13 13 17 20 16 3 3 1 1 3 1 4 2 2 0 2 1 0 3 3 2 3 2 1 2 0 2 4 3 2 3 4 8 3 3 6 10 8 11 11 17 11 8 6 5 5 4 1
21 21 23 22 18 14 15 16 14 7 5 8 12 7 3 4 3 3 2 1 1 2 3 1 1 1 1 2 3 1 3 2 5 2 1 2 2 4 6 8 12 15 20 19 24 17 15 11 11 8 4 4 4 5
19 17 19 19 21 21 20 19 20 21 14 6 5 4 2 3 2 3 6 1 2 2 2 1 1 1 2 3 2 2 5 4 2 2 2 1 4 6 7 10 12 18 22 19 14 16 12 8 6 6 4 5 7 9
17 17 13 12 13 14 15 14 9 6 5 3 3 3 1 2 2 1 1 1 0 1 1 1 2 1 1 2 1 3 1 1 2 1 2 1 5 5 4 3 8 7 8 13 12 9 8 6 4 5 7 9 10 11
12 14 14 15 12 10 8 8 7 6 5 3 3 2 1 1 2 1 1 1 2 0 1 2 2 1 1 2 1 2 2 1 0 2 2 1 4 3 5 6 6 5 6 9 6 4 3 5 6 9 10 11 12 15
7 8 14 12 11 11 8 6 6 4 4 3 3 3 1 2 1 1 1 1 1 0 1 1 2 2 2 1 0 1 3 3 2 1 2 1 3 6 5 3 5 3 3 3 4 6 6 8 9 10 13 14 15 16
12 6 7 8 10 13 11 4 5 4 3 2 2 2 2 3 3 1 1 0 1 1 0 1 3 3 1 1 1 2 2 2 2 2 1 3 3 3 3 3 3 3 4 6 6 7 8 9 10 12 13 18 18 20
10 9 5 4 8 7 5 7 3 4 4 2 2 1 2 2 2 2 1 1 2 1 1 1 2 2 1 1 0 2 2 2 1 3 3 4 5 4 1 2 2 3 4 5 6 7 8 10 10 14 17 21 21 21
12 9 6 5 9 5 5 5 4 3 2 2 2 2 2 2 2 2 2 5 1 1 2 2 3 1 2 2 2 1 1 2 2 2 1 1 2 4 3 3 5 6 8 9 10 12 12 13 14 16 19 20 18 17
7 11 8 5 7 3 3 3 2 3 2 2 2 2 2 1 1 0 1 2 1 1 2 1 3 2 3 2 3 2 1 2 3 2 2 2 5 6 5 6 8 10 11 12 14 16 17 18 21 22 20 18 15 14
4 6 8 6 4 6 2 1 2 1 2 2 2 2 1 0 1 1 0 1 2 2 1 3 3 3 2 5 8 10 8 6 2 3 3 1 4 6 9 14 13 12 13 15 16 19 19 19 23 23 21 19 19 20
3 3 4 3 3 4 2 5 1 1 2 1 2 2 2 2 3 1 1 1 1 2 2 2 1 2 2 1 4 7 6 5 7 12 15 12 5 9 10 16 18 14 14 15 15 15 16 19 23 25 24 25 16 16
1 2 1 3 4 2 4 5 1 2 3 2 1 2 1 1 1 1 2 2 2 4 4 4 3 3 11 16 20 21 18 17 13 13 13 13 13 14 15 16 17 14 12 13 16 17 18 22 23 24 23 21 21 21
2 1 1 1 1 2 2 1 1 1 2 2 2 2 3 2 1 1 2 1 2 6 6 9 7 6 11 13 10 12 16 14 10 12 17 13 11 13 15 15 12 16 17 16 17 19 21 22 26 25 24 24 23 23
1 4 3 2 0 2 1 2 1 2 3 2 3 1 2 2 2 1 2 1 1 2 4 12 13 12 6 5 9 9 14 16 12 7 13 14 11 11 13 13 13 15 24 21 20 21 22 23 23 23 23 22 25 25
2 4 4 5 2 3 4 3 4 5 3 2 3 1 2 3 2 3 1 1 2 2 4 5 5 4 6 9 5 7 9 12 8 9 12 12 16 14 11 10 12 14 26 23 20 21 23 23 23 24 25 26 27 26
2 3 2 1 1 1 1 0 1 2 2 3 2 2 2 3 4 1 2 5 2 7 11 11 9 9 7 7 10 11 12 12 10 4 10 14 16 18 19 14 15 18 24 23 20 21 23 24 25 25 26 26 24 24
2 2 3 2 2 1 1 1 1 2 2 1 3 3 4 4 2 2 3 5 10 12 14 14 12 11 11 12 10 10 12 14 10 16 8 5 15 10 23 23 24 23 24 22 20 24 26 25 26 27 28 28 8 8
1 1 2 3 3 2 1 2 2 1 3 2 3 2 2 3 5 4 6 9 8 10 12 13 12 11 14 11 10 11 14 17 18 6 4 3 10 14 23 26 28 28 25 23 24 26 22 21 21 23 15 8 11 11
2 1 2 0 1 0 1 3 2 3 4 3 4 3 3 3 9 11 9 9 13 14 14 14 11 9 12 11 9 8 12 13 13 12 1 4 13 17 23 26 28 24 23 22 26 27 21 18 18 15 13 12 13 12
2 2 0 1 2 1 1 1 1 1 2 2 4 3 3 3 4 10 11 10 9 8 10 11 10 10 10 11 10 7 6 6 8 12 10 9 13 18 21 22 20 19 20 21 23 20 18 16 15 13 12 12 11 11
2 3 1 1 1 1 2 2 2 2 1 1 2 3 3 3 2 3 5 5 5 8 7 6 6 8 8 6 5 5 4 9 11 10 11 11 14 18 19 18 18 18 18 19 18 13 14 12 13 12 10 10 10 9
2 4 4 3 4 4 3 3 4 3 3 2 2 2 2 3 3 3 3 4 5 5 6 7 5 5 5 6 6 7 10 10 9 10 8 10 14 16 17 17 17 15 16 18 12 10 11 11 11 10 10 9 9 9

GFSWCAN_925_spd_021.txt.gz
Wind_Speed
43 40 38 35 33 30 27 25 22 18 16 13 13 14 14 17 18 11 8 5 3 3 1 2 1 5 4 3 5 5 4 4 3 4 3 4 3 5 2 4 6 7 6 4 3 1 8 7 3 8 6 2 9 9
39 38 35 33 31 29 26 24 20 17 16 13 13 13 13 13 13 11 6 11 13 5 3 4 10 9 3 6 6 1 5 4 5 4 1 3 2 2 2 3 2 3 7 5 9 6 4 6 4 5 6 6 7 8
38 35 33 31 29 27 24 22 19 16 15 14 13 13 12 11 9 8 12 7 7 4 4 4 3 7 12 3 4 5 2 5 4 2 4 3 3 4 4 5 3 4 4 2 2 5 8 8 5 3 6 5 5 6
36 35 32 30 28 26 23 20 17 16 14 14 13 13 12 11 11 11 9 7 9 4 4 4 5 4 9 6 3 3 11 8 7 3 3 3 3 4 3 3 4 4 5 5 5 7 5 7 7 5 5 6 7 9
31 31 30 29 27 25 22 19 17 15 14 13 13 13 13 13 14 16 18 14 8 5 4 2 3 8 11 7 11 14 19 6 3 2 2 3 2 3 1 2 3 5 7 4 7 8 5 5 5 7 9 10 10 9
34 31 29 27 25 23 21 18 16 15 14 13 12 12 11 13 12 4 4 8 9 5 4 2 4 5 11 12 14 10 6 3 3 4 3 2 2 3 4 4 7 5 5 6 6 5 4 3 5 6 7 8 7 9
31 29 27 25 24 22 20 18 16 16 14 13 12 11 8 7 4 7 4 2 5 4 3 3 3 4 5 5 4 3 6 2 2 2 2 3 1 3 3 5 7 8 8 7 4 6 1 4 5 7 7 10 18 18
30 27 25 23 22 20 19 18 17 16 15 14 14 16 17 16 12 8 10 8 6 9 4 3 3 3 7 2 2 4 2 2 4 2 1 2 1 2 3 9 6 7 5 2 6 3 3 6 7 8 18 19 13 10
28 26 24 21 19 19 18 17 18 16 15 15 14 12 6 5 4 2 5 8 12 7 3 2 4 3 3 2 1 3 2 2 2 1 1 3 1 4 4 4 5 4 4 3 4 3 6 8 11 12 12 12 10 5
22 21 21 20 18 16 17 16 16 16 14 12 5 5 3 4 3 3 2 4 5 3 3 2 1 1 2 1 2 2 2 1 1 3 1 2 3 4 3 7 7 7 5 7 5 5 8 10 11 13 10 6 5 4
27 26 22 18 17 15 16 18 17 15 11 3 3 2 2 3 2 4 3 3 1 3 3 1 2 3 2 3 2 1 1 0 2 3 2 2 2 4 10 9 8 8 10 10 13 17 16 14 11 6 5 7 2 4
30 28 25 21 19 17 17 20 19 7 5 7 12 7 3 4 3 5 2 1 2 2 2 1 0 1 0 1 3 0 2 1 5 2 1 2 1 5 9 10 12 16 21 19 24 20 17 15 11 6 3 0 3 3
24 25 26 26 23 20 15 10 10 20 16 6 5 4 2 3 2 4 6 1 2 1 2 2 1 1 2 3 3 2 3 3 1 2 2 1 3 6 6 5 9 13 20 18 15 14 13 9 6 4 1 2 5 7
22 20 20 20 19 18 15 11 9 6 4 3 3 3 1 2 2 1 2 2 1 1 1 1 2 2 1 2 1 2 0 0 2 1 2 2 5 5 7 6 6 7 9 11 9 9 6 5 3 3 4 5 7 9
21 22 21 22 17 14 11 9 7 6 5 3 3 2 2 2 2 2 1 2 1 1 1 2 2 1 1 2 1 2 1 1 2 1 2 2 4 5 4 6 7 7 8 6 1 3 3 3 2 4 6 7 8 11
8 12 22 16 17 15 9 6 6 4 4 3 3 3 1 3 2 2 1 1 1 1 1 1 2 2 1 1 2 1 2 1 1 1 1 3 3 4 4 4 4 5 2 2 2 3 4 6 6 7 9 10 12 13
14 7 11 13 15 12 9 4 5 5 3 3 2 2 2 3 2 1 1 1 1 1 1 1 3 2 2 2 1 1 2 1 1 2 1 1 1 3 5 4 2 1 2 5 6 6 6 7 8 8 9 14 16 17
13 11 10 14 15 7 5 6 4 3 4 2 2 1 2 2 2 2 1 2 2 2 2 2 3 2 2 2 1 3 2 3 2 1 2 2 3 4 2 1 3 3 4 5 6 7 8 9 11 13 16 19 20 20
15 11 11 14 14 4 4 5 5 3 2 2 2 2 2 2 2 1 1 3 0 1 3 2 3 2 2 2 2 1 1 2 2 3 2 2 2 0 2 2 3 4 6 7 8 12 13 13 14 17 20 22 20 21
10 13 10 9 11 4 4 3 3 3 2 1 2 2 2 1 1 1 2 2 2 2 2 1 3 3 3 2 2 2 2 4 3 2 1 1 4 8 11 11 12 11 13 15 15 18 19 19 20 22 22 22 18 19
11 18 13 9 7 9 3 2 3 1 2 2 1 2 2 1 1 1 1 1 3 0 1 2 2 2 2 7 9 9 6 4 2 3 3 2 11 15 15 16 14 16 15 14 12 14 15 13 17 19 20 19 21 23
8 11 7 8 7 6 4 8 1 1 2 1 2 2 2 1 0 1 1 2 1 2 1 1 2 1 3 4 9 11 9 16 16 16 15 10 4 6 9 14 14 12 12 13 13 12 13 15 19 22 20 22 23 23
9 8 5 6 4 4 3 6 2 1 1 1 1 2 1 1 1 2 1 2 0 3 4 4 7 14 16 14 17 22 18 16 14 13 13 11 10 11 11 12 12 12 10 12 13 13 16 20 22 24 25 23 23 23
7 4 4 3 2 2 3 2 2 1 2 1 2 1 2 2 1 1 2 1 2 4 5 6 7 7 11 12 10 13 14 12 11 13 12 8 9 11 11 11 13 15 16 15 14 17 21 23 25 23 24 23 23 23
2 3 2 3 2 4 3 4 2 2 2 2 2 2 2 2 2 2 2 1 2 2 4 10 11 10 6 5 8 7 12 11 7 9 12 11 11 10 11 11 10 12 21 22 21 19 21 25 24 23 25 23 26 25
2 3 3 4 2 1 3 2 3 5 3 3 3 1 1 2 2 3 1 2 2 2 3 5 4 4 6 8 6 7 9 10 6 10 8 12 15 15 11 9 10 12 21 21 21 21 22 24 24 26 25 29 28 27
2 3 3 3 1 1 1 1 1 2 3 3 2 2 2 3 2 2 1 6 3 7 10 11 11 8 8 10 10 10 10 7 4 10 13 12 14 16 17 14 13 16 20 18 17 17 22 25 25 25 26 28 18 17
3 2 2 2 2 2 2 1 1 2 2 1 3 2 3 3 2 2 3 7 11 12 15 16 14 13 15 13 11 10 14 9 14 10 6 7 10 8 18 18 19 19 17 16 16 18 20 21 21 23 23 16 15 16
1 2 1 2 2 2 1 1 1 1 2 1 3 2 2 3 4 5 6 7 7 10 14 16 15 12 12 11 11 12 12 13 10 5 3 3 8 9 19 21 22 20 19 20 18 18 17 15 16 15 13 12 13 13
2 1 2 1 1 1 1 2 2 2 4 3 4 3 3 3 7 7 7 8 11 14 14 13 11 9 10 9 8 10 9 10 12 10 1 3 9 15 19 22 22 21 21 20 20 20 16 15 16 16 15 15 14 13
1 2 1 1 1 1 1 2 2 1 1 3 4 3 3 3 4 10 11 11 10 8 7 9 10 9 7 8 8 5 3 5 10 9 8 9 11 15 18 20 20 20 19 18 20 15 13 14 15 14 13 12 12 11
3 3 2 2 2 2 5 3 2 2 3 1 2 3 2 3 2 3 3 4 5 10 9 7 6 5 5 5 5 5 6 9 9 11 12 10 11 15 17 19 19 18 17 18 14 11 11 12 13 12 11 10 10 11
3 3 3 2 4 5 3 3 5 4 3 2 2 2 1 3 2 2 4 6 6 8 8 7 7 5 3 4 6 7 9 10 10 10 9 10 13 14 16 18 17 15 15 15 13 11 10 10 10 9 9 9 9 10

GFSWCAN_925_spd_024.txt.gz
Wind_Speed
43 42 39 37 35 33 29 26 23 20 18 17 17 18 26 33 23 13 5 4 3 3 2 3 2 5 4 3 5 5 4 3 3 3 3 4 3 5 2 4 6 7 6 4 3 2 7 6 4 7 6 2 6 8
42 41 39 35 33 31 28 25 22 19 18 18 17 18 22 27 23 10 6 9 12 5 3 6 11 8 2 6 6 0 4 5 5 4 1 3 2 1 2 3 2 2 6 4 9 6 4 6 5 3 2 3 5 7
39 37 35 33 31 29 26 24 22 19 18 19 16 16 19 21 21 11 13 8 9 4 4 4 3 6 12 3 5 5 2 5 3 2 4 2 3 4 4 5 2 4 4 2 2 4 7 9 7 6 5 7 3 4
37 35 34 31 29 27 25 22 21 20 17 19 18 17 17 16 15 18 9 7 9 4 4 3 5 4 11 3 3 3 11 8 7 3 3 3 3 4 3 3 3 4 5 4 5 9 6 9 8 9 5 4 5 4
35 34 32 29 27 25 23 22 20 19 19 18 18 18 20 20 21 24 22 16 10 6 4 2 1 9 14 7 11 14 17 6 3 2 2 3 3 4 1 2 3 5 7 4 6 9 4 7 4 2 6 7 6 7
33 31 30 27 25 22 22 21 19 18 18 17 17 19 19 16 12 7 4 11 12 6 4 2 3 5 12 15 19 12 7 4 3 3 2 1 1 3 4 4 8 4 5 4 6 1 5 4 5 3 4 6 6 8
31 29 27 25 23 21 21 20 18 18 18 16 15 14 12 9 10 9 5 3 7 6 3 3 3 4 6 5 4 3 6 3 3 2 1 2 1 3 3 3 4 6 7 6 5 4 4 4 4 4 6 10 18 19
28 27 24 23 21 21 21 18 17 17 19 21 22 21 20 18 15 12 16 9 8 11 4 3 2 3 8 2 2 4 2 2 4 2 1 2 2 2 3 4 7 7 7 5 4 4 1 2 6 8 15 18 14 12
26 24 22 20 19 20 18 16 16 16 17 18 17 14 6 8 5 3 6 11 16 8 3 2 4 3 3 2 1 3 2 2 2 1 0 2 1 3 3 9 9 8 5 7 3 4 7 11 12 12 14 13 14 11
26 22 18 18 18 20 18 15 14 15 14 12 5 6 3 4 4 4 3 4 5 4 4 3 1 1 2 1 2 2 2 1 1 2 1 2 2 3 8 7 8 9 7 3 3 6 10 12 12 13 12 10 10 6
26 21 19 18 18 18 17 16 14 12 7 4 4 2 2 5 4 4 3 4 3 2 2 1 2 2 2 2 2 1 1 1 2 2 2 0 1 4 8 9 9 12 16 15 16 16 16 15 12 9 6 8 6 2
28 26 23 20 17 17 15 14 12 5 6 7 12 8 3 5 3 6 2 1 3 2 2 1 0 1 1 2 3 0 2 1 3 1 1 1 2 5 5 8 9 14 19 19 22 17 17 14 10 8 4 3 0 2
30 29 27 25 20 14 12 10 10 20 11 5 5 4 3 3 5 4 4 1 2 1 0 1 2 1 2 3 3 2 2 2 1 1 1 2 2 5 6 6 9 11 12 15 15 11 9 5 3 5 4 4 4 4
28 29 28 24 19 16 14 14 12 8 7 4 3 3 2 2 2 1 2 2 1 1 2 2 2 2 1 3 1 2 1 1 2 0 1 1 3 4 3 4 6 5 6 6 6 5 5 5 4 5 5 6 7 9
24 24 25 26 19 13 11 10 9 8 6 3 3 3 2 2 3 2 1 2 1 1 1 2 2 2 2 2 1 2 2 1 2 3 1 1 4 3 4 5 5 4 4 4 3 4 5 5 6 6 6 5 6 7
8 12 28 22 16 11 8 6 5 5 4 3 4 3 2 2 2 1 2 2 0 1 1 2 2 2 0 2 2 2 4 4 3 3 2 3 3 4 5 5 4 1 3 4 4 4 4 4 5 6 8 7 11 13
15 11 19 20 12 11 7 6 6 5 3 3 2 2 2 3 3 2 1 1 1 1 2 2 3 3 2 2 1 1 3 3 3 2 2 4 5 5 5 4 4 1 1 1 2 4 6 8 10 13 15 18 19 20
16 16 16 18 10 7 6 8 4 4 5 3 2 2 2 2 2 2 1 2 2 1 1 2 3 2 3 3 2 3 2 1 1 2 1 1 3 5 3 2 3 3 5 8 10 11 13 16 15 13 16 20 22 20
16 15 13 16 11 5 4 5 5 3 3 1 1 2 2 2 2 1 2 3 2 1 3 2 3 2 2 2 2 1 2 2 2 1 2 6 6 6 7 7 8 10 12 12 14 12 13 14 13 14 15 17 16 17
14 15 15 14 8 4 4 3 3 4 2 0 2 2 2 1 2 2 2 2 2 2 3 1 2 2 3 2 2 2 1 3 3 3 2 5 10 14 14 13 13 11 12 10 10 13 12 12 14 16 18 19 19 20
13 18 13 10 6 10 3 3 3 2 2 2 0 2 1 2 2 2 2 1 3 1 1 1 1 2 4 10 10 10 8 4 2 2 3 3 9 13 12 13 12 13 13 14 13 12 13 13 15 19 23 23 23 23
11 13 9 10 9 5 4 8 2 1 2 1 1 1 2 1 1 1 2 2 1 1 1 2 1 1 4 5 9 14 11 15 15 14 16 11 4 6 10 11 12 11 11 12 11 12 14 15 20 23 24 26 27 25
8 7 6 10 5 5 2 8 3 2 1 1 1 2 1 1 1 2 1 1 1 2 2 3 8 13 15 13 16 19 16 15 14 13 13 13 11 11 11 12 14 14 11 13 13 12 16 19 22 23 24 26 26 25
7 5 4 4 5 1 2 3 2 2 3 2 1 0 1 2 1 2 1 1 1 2 3 5 8 7 11 12 11 12 11 11 14 16 12 11 10 11 10 9 10 12 12 12 15 16 17 20 21 23 25 25 25 22
6 5 3 4 3 5 5 5 4 3 1 2 2 2 2 2 2 1 1 1 2 3 3 7 9 8 5 5 9 10 12 10 9 10 11 11 11 10 9 8 7 8 17 19 20 20 20 21 23 23 24 23 23 24
4 2 2 0 2 2 2 1 1 3 2 1 3 0 1 2 2 2 1 3 2 3 4 4 5 5 7 9 7 6 7 6 6 10 7 10 12 13 10 9 10 10 17 15 16 18 20 22 22 23 24 23 19 21
3 3 2 1 1 1 2 1 1 1 2 3 2 2 1 2 1 2 1 6 3 8 10 10 10 10 10 9 9 9 6 5 5 10 13 10 11 12 13 12 11 13 15 14 14 15 18 19 20 20 21 21 14 16
3 2 0 2 1 2 2 1 2 2 1 2 2 2 1 2 2 2 4 7 10 12 14 16 16 16 17 14 12 9 10 12 14 10 7 5 4 6 14 13 14 14 14 14 15 15 15 15 16 16 16 13 15 15
1 2 2 2 2 2 2 2 2 2 3 1 1 2 2 2 4 5 7 5 5 9 13 14 13 12 12 11 11 12 11 4 1 4 2 3 5 4 13 15 17 17 17 17 15 15 12 11 12 11 12 12 11 11
3 0 2 1 2 0 0 1 1 1 4 3 4 3 3 3 8 7 6 7 11 13 11 10 7 5 6 5 6 6 6 7 9 6 1 3 6 11 14 16 19 19 19 18 18 16 12 11 12 13 13 12 12 12
2 2 2 1 1 2 2 3 2 1 3 3 5 3 3 2 4 11 12 10 8 6 6 8 8 7 6 6 6 4 2 5 9 8 9 10 9 11 14 16 18 19 18 18 17 14 13 13 13 13 12 12 12 12
3 2 2 2 3 3 6 3 2 2 3 2 2 3 3 3 2 3 4 3 4 8 7 6 4 3 3 4 5 5 5 8 9 10 11 10 10 13 14 16 18 18 17 16 15 13 12 12 12 11 11 11 11 12
3 3 3 3 4 5 3 3 5 3 3 2 2 2 1 3 3 1 3 5 6 6 6 6 5 3 4 5 6 6 8 10 12 11 11 11 12 14 15 15 17 17 16 15 14 13 11 11 10 10 11 11 12 12

GFSWCAN_925_spd_027.txt.gz
Wind_Speed
38 40 36 33 34 30 27 26 25 23 21 21 23 28 36 43 37 8 8 7 3 3 1 1 2 5 3 2 5 5 4 2 2 3 3 3 3 4 2 3 4 5 6 3 3 1 6 5 3 4 4 2 2 5
35 32 34 32 31 30 28 26 22 19 18 18 21 28 36 42 36 11 6 7 9 4 3 7 13 8 1 5 6 1 3 4 4 4 1 3 2 1 2 3 1 3 4 3 8 5 3 6 4 2 2 3 2 3
36 34 33 31 30 29 27 24 20 18 17 17 20 28 35 39 29 11 12 11 5 3 3 4 3 5 10 3 4 5 2 4 3 2 4 2 3 3 4 5 2 4 4 3 1 3 8 10 7 7 6 9 5 6
35 34 32 31 28 26 24 22 20 19 18 19 23 29 35 32 22 17 4 6 5 4 4 2 5 5 12 3 1 2 10 8 7 2 3 3 3 3 3 2 3 3 6 3 4 8 5 8 8 11 9 6 7 3
34 33 31 28 26 25 23 21 21 21 19 23 26 28 29 26 26 21 11 7 5 4 4 1 1 9 14 10 15 17 16 6 2 3 2 2 3 4 1 1 3 5 6 4 5 5 3 5 4 3 3 4 4 5
33 31 29 28 26 25 23 22 22 21 23 29 32 31 31 33 31 16 2 9 8 6 4 3 3 5 12 15 20 12 6 4 2 3 2 2 1 3 3 3 3 2 4 3 4 2 4 7 7 4 5 3 3 7
31 30 28 27 26 24 23 22 21 20 20 18 19 19 15 11 8 7 4 0 5 6 3 3 2 4 7 5 4 4 6 3 2 2 2 2 2 2 2 3 8 10 10 10 5 3 3 6 5 8 10 16 22 22
29 28 26 26 24 24 22 23 25 25 25 26 26 27 26 24 17 12 18 11 9 12 4 4 1 3 8 3 2 3 2 2 4 2 2 2 2 1 2 7 12 13 14 2 11 4 3 8 12 13 17 20 17 14
27 27 25 24 22 22 20 21 21 20 20 18 15 11 6 9 4 2 7 13 19 10 4 3 4 3 3 2 1 2 2 3 1 2 2 2 1 2 4 7 10 11 6 10 8 12 13 15 14 15 17 16 16 11
23 22 21 21 19 18 18 17 14 13 11 6 1 6 3 4 3 4 5 4 5 4 4 3 1 2 2 1 2 2 2 1 2 0 0 2 3 5 5 5 5 8 10 6 3 8 11 10 13 13 13 12 10 5
22 20 19 18 15 14 17 13 9 8 5 4 3 3 3 5 3 4 4 4 3 3 3 1 1 3 3 2 2 1 2 0 3 1 2 1 2 2 4 6 7 10 15 16 19 17 16 11 9 7 5 6 5 6
25 21 18 16 13 13 15 10 4 5 6 7 12 8 3 5 4 6 2 2 4 2 1 2 1 2 1 1 3 0 2 1 2 2 1 2 2 4 5 6 7 10 15 16 19 16 14 13 10 7 4 1 1 1
32 29 23 18 13 12 12 12 18 18 8 5 5 4 3 3 6 4 5 1 2 2 1 1 2 1 1 2 3 2 3 2 1 2 2 2 3 3 5 4 6 7 9 9 8 6 5 4 4 4 4 4 3 4
28 27 26 23 18 15 14 12 8 6 6 4 3 5 3 2 2 2 2 2 1 1 2 2 2 2 1 3 1 3 1 1 3 3 3 2 4 4 3 2 6 5 3 4 5 6 6 6 7 7 8 7 8 9
28 27 24 23 15 14 15 12 11 9 7 4 4 4 3 2 3 2 1 2 2 1 1 2 2 2 2 3 2 3 2 1 2 3 2 4 7 5 5 4 4 3 3 3 4 5 7 7 8 9 11 11 11 12
9 17 27 16 13 10 11 12 16 7 5 3 4 3 1 3 2 2 2 2 1 1 0 2 3 2 2 2 2 2 4 2 2 2 3 5 6 5 4 4 4 1 2 4 7 8 8 10 9 8 10 15 18 18
19 12 20 13 9 12 7 5 5 5 3 3 3 2 2 3 3 1 1 1 2 2 2 2 3 1 1 2 2 1 3 3 5 5 4 5 6 7 5 4 1 4 7 8 9 11 11 10 11 16 16 17 19 17
16 16 17 12 6 9 7 9 4 4 5 3 2 2 2 2 2 2 2 3 2 1 1 2 3 2 3 3 2 2 2 2 3 4 3 3 5 7 5 6 8 9 11 12 12 11 13 14 13 12 14 17 16 17
17 16 15 12 8 6 4 6 5 4 3 1 1 2 2 2 2 3 2 4 3 2 3 2 3 1 2 2 1 3 3 2 3 2 3 7 9 11 12 13 13 13 12 11 11 10 9 10 10 11 13 14 15 16
13 16 14 17 7 5 5 3 4 3 2 1 2 2 2 2 1 1 2 4 2 2 3 2 1 1 1 1 1 1 2 4 4 5 4 6 10 14 14 12 12 11 11 10 10 11 9 7 9 11 13 14 15 18
13 18 17 9 7 11 4 3 3 2 2 2 1 1 1 1 2 2 2 2 3 2 2 1 1 2 7 7 8 8 9 5 2 2 4 5 9 12 12 11 10 11 10 8 8 8 9 9 11 13 15 16 17 17
11 13 8 11 7 6 4 9 2 1 2 1 2 2 2 2 2 2 2 2 2 1 2 2 1 2 4 6 10 13 11 13 14 17 19 14 5 8 9 9 8 8 9 9 8 8 9 10 13 15 17 18 18 18
8 7 7 13 6 5 2 9 4 3 2 1 1 2 1 1 1 2 2 2 2 3 3 3 7 12 14 13 15 17 15 14 14 13 12 13 13 11 10 9 8 8 7 9 9 8 9 14 15 18 18 18 17 18
9 6 5 5 5 2 3 4 2 3 3 2 2 1 1 0 1 2 1 1 2 4 3 7 8 7 10 11 11 12 11 12 13 13 10 10 10 9 7 7 7 9 9 8 10 12 13 15 17 18 18 17 17 14
6 7 5 5 3 5 5 4 4 3 2 1 2 2 1 2 2 2 1 2 4 4 4 7 7 8 6 6 8 9 10 7 8 11 10 9 10 7 7 7 6 6 12 12 15 16 16 17 17 17 17 17 15 15
6 4 3 2 2 3 1 2 0 2 1 2 2 1 1 2 2 2 2 4 3 4 6 5 4 5 7 9 7 5 5 6 6 9 7 8 9 8 6 6 6 6 13 13 15 16 16 17 17 17 18 17 15 15
4 3 1 0 0 0 2 1 1 1 1 1 1 1 1 2 2 2 2 7 3 7 10 12 11 10 9 8 8 8 7 7 6 11 11 9 10 11 12 9 7 10 14 14 14 15 16 18 16 16 17 16 14 14
1 1 3 3 2 0 1 1 2 3 2 2 1 3 2 2 2 2 4 6 8 11 14 16 16 15 14 12 11 12 14 14 12 9 7 5 4 5 10 10 11 12 13 14 14 14 15 14 14 14 14 14 14 12
3 3 2 4 4 3 2 2 1 2 3 1 1 2 2 2 3 4 6 5 5 8 10 11 12 12 13 13 14 13 7 3 3 3 3 2 5 4 10 12 14 15 16 16 14 13 11 9 11 11 11 11 10 9
3 1 3 1 2 1 1 0 1 0 4 3 4 3 3 3 8 7 7 9 12 11 9 8 5 4 6 6 6 7 7 8 10 7 2 2 6 11 11 13 15 16 17 16 16 15 10 9 9 9 9 9 10 10
1 1 2 2 1 2 2 7 4 3 3 3 5 3 3 2 4 11 11 9 6 5 6 8 8 8 7 8 7 5 3 6 8 7 8 9 9 9 11 13 15 17 17 16 15 14 13 11 11 10 10 10 10 11
3 2 1 3 3 3 6 3 2 2 2 2 2 2 2 2 2 3 6 5 6 9 8 7 6 5 5 6 6 5 4 7 9 9 9 10 10 11 13 14 14 16 16 15 14 13 12 11 10 9 9 10 10 11
2 2 2 2 3 4 3 3 5 3 3 2 2 1 1 2 2 1 4 6 8 8 8 7 4 3 4 7 7 6 8 10 13 13 12 11 11 14 15 14 13 16 16 14 13 12 11 10 9 9 9 9 10 10

GFSWCAN_925_spd_030.txt.gz
Wind_Speed
27 29 27 23 27 37 35 34 32 33 32 33 33 33 35 45 52 7 6 7 2 3 5 1 3 6 5 6 6 8 6 2 2 2 2 3 2 4 3 2 4 5 6 3 3 3 4 6 6 3 4 4 6 6
23 25 24 29 25 25 26 30 31 31 29 29 30 32 36 45 50 10 5 11 13 6 4 6 8 5 3 2 6 11 1 6 6 3 1 3 2 1 1 2 3 3 3 1 6 1 3 7 6 4 5 7 8 7
35 31 30 29 30 31 28 26 26 26 25 27 29 33 38 46 44 7 11 15 8 4 4 4 4 5 6 3 1 5 2 4 4 3 4 2 3 4 4 4 3 4 4 3 1 1 6 7 8 10 9 11 12 11
32 33 33 32 29 26 24 21 20 20 23 26 31 35 41 49 35 10 10 12 7 4 4 3 3 4 9 2 0 2 9 9 7 2 2 3 3 3 2 0 3 2 7 4 4 10 6 5 3 5 9 9 9 8
36 34 31 29 26 23 20 17 17 19 22 27 32 37 42 45 26 16 14 8 4 1 4 4 4 8 11 7 11 12 15 8 3 3 2 2 3 4 1 0 2 2 2 2 3 7 5 7 10 10 10 10 11 9
34 32 29 26 24 22 20 19 18 22 27 31 35 38 41 35 25 11 4 3 5 6 4 4 2 4 9 12 16 13 7 4 3 3 3 3 2 1 4 4 4 6 6 7 5 13 10 9 7 11 10 10 10 10
33 31 28 27 26 24 25 26 29 31 30 35 40 39 36 32 21 7 2 2 7 5 3 4 3 3 6 4 4 4 6 3 3 3 3 3 2 2 3 3 8 8 8 6 9 9 4 13 7 10 13 17 22 24
31 30 29 29 29 27 27 27 27 30 29 30 30 28 25 23 23 9 5 5 6 5 3 4 2 2 7 3 2 4 2 2 5 3 2 2 2 1 2 5 8 9 9 6 10 9 8 10 12 13 17 19 18 14
30 29 27 29 30 28 28 29 28 28 28 26 24 22 13 8 3 3 4 10 14 7 3 3 4 3 2 2 2 2 2 3 1 2 2 2 2 1 2 4 5 8 6 2 8 11 12 14 14 14 14 13 12 8
27 27 26 26 29 26 19 16 20 17 15 12 7 7 3 3 4 4 4 3 5 5 5 3 1 3 0 1 2 2 2 2 3 2 1 2 2 4 3 2 3 5 6 9 10 10 12 13 12 11 11 12 11 9
21 22 22 21 23 22 18 16 12 8 7 7 4 3 3 4 2 4 3 4 3 3 3 2 2 4 2 2 3 2 2 0 3 3 2 2 3 2 3 4 4 8 10 14 19 15 15 13 10 8 7 6 4 3
20 19 17 16 15 15 16 13 13 7 8 8 13 8 4 4 3 6 3 1 3 2 1 2 2 3 2 1 3 1 2 1 3 4 2 3 3 7 6 7 11 14 16 16 15 13 10 9 7 6 4 2 3 4
22 20 18 17 16 13 11 11 12 12 7 5 4 4 3 4 5 3 5 1 2 1 1 1 3 2 2 3 3 2 3 2 3 2 1 2 6 6 5 6 9 9 10 10 9 7 6 6 6 6 5 5 5 5
26 23 20 19 17 16 15 16 14 8 8 5 4 4 3 2 3 2 2 3 2 2 2 3 3 2 1 3 1 3 1 2 4 4 3 4 7 6 5 4 8 8 5 6 7 7 7 6 7 8 8 9 10 9
22 21 21 22 17 14 13 13 11 9 6 4 3 3 3 1 3 2 2 2 2 1 1 3 3 2 2 3 2 3 4 3 2 1 3 6 8 7 7 8 7 5 4 4 5 7 7 7 7 9 10 10 11 12
9 16 20 14 14 15 16 16 15 7 5 3 5 3 2 2 2 1 2 2 1 1 1 2 3 2 2 2 3 2 2 2 3 3 5 9 10 7 7 5 5 3 4 6 7 8 8 9 9 7 7 11 11 10
17 9 12 9 12 9 7 8 7 5 4 3 3 3 2 3 2 1 2 2 3 2 2 1 2 2 3 2 3 1 1 3 5 6 6 8 9 8 8 7 4 8 8 8 10 9 8 7 6 8 9 12 12 10
13 15 12 5 6 7 6 8 4 4 5 3 3 2 2 3 2 3 2 3 1 1 0 2 3 2 2 3 2 3 3 4 6 6 4 4 8 9 8 9 9 10 10 9 9 8 6 6 7 8 9 12 12 12
17 15 11 10 7 6 3 6 5 4 4 2 2 2 2 2 2 2 1 3 3 2 3 1 2 2 2 2 3 5 6 4 4 4 4 7 8 10 11 11 11 10 9 8 6 6 6 8 8 8 9 11 12 14
13 13 16 15 7 5 4 3 4 4 3 2 2 2 2 2 1 2 3 4 2 1 3 3 3 3 3 3 3 3 6 7 8 7 6 6 9 11 9 9 9 9 9 7 8 8 6 5 7 9 9 10 12 14
11 15 16 9 8 11 4 3 4 3 2 3 2 2 2 1 2 3 3 4 3 3 3 3 3 3 6 6 6 7 7 7 4 3 6 7 9 10 10 9 8 8 7 6 6 6 6 6 8 9 10 10 11 12
10 11 6 10 6 5 4 9 2 2 2 2 2 2 2 2 2 3 4 3 3 3 3 2 2 3 4 6 9 11 11 14 15 17 18 14 7 8 8 7 6 7 8 7 6 5 5 6 7 9 9 11 11 12
8 8 7 11 5 5 3 6 3 4 2 2 1 1 2 2 2 3 2 3 3 6 5 4 7 10 11 10 13 14 12 13 14 13 12 12 12 11 10 9 8 7 5 6 5 5 5 7 8 9 9 10 11 11
9 6 6 5 6 3 2 4 3 2 2 2 1 2 2 2 2 1 2 3 5 10 5 6 6 6 9 10 9 11 11 12 15 13 10 9 9 9 8 8 7 7 5 4 4 5 6 7 9 9 9 10 11 11
5 8 5 6 4 3 4 3 3 3 3 3 2 2 2 1 1 2 2 3 6 7 7 10 9 8 5 5 8 9 10 8 9 11 10 9 9 8 7 6 5 5 6 6 7 8 8 8 9 10 10 10 11 11
7 6 4 3 3 3 3 2 3 5 3 2 3 2 1 1 2 3 2 4 4 5 7 8 5 4 6 9 6 8 8 8 8 11 9 8 8 6 4 3 3 3 8 7 8 10 10 10 11 11 11 11 11 12
5 5 4 2 2 1 2 1 1 1 2 2 2 1 0 1 2 2 2 7 4 7 8 10 10 10 8 8 9 9 9 10 10 10 9 8 8 8 7 5 5 6 8 8 8 9 10 11 11 11 12 12 11 11
4 3 3 3 2 3 2 2 2 3 2 3 2 1 1 2 2 2 4 5 5 6 9 12 12 11 10 8 8 8 10 10 9 7 6 6 5 5 7 5 6 9 9 10 10 9 10 10 11 11 12 12 11 9
3 3 1 3 1 3 3 2 2 2 3 2 1 2 2 3 3 4 5 5 4 4 6 7 9 8 9 10 10 9 7 6 4 3 3 2 2 2 6 6 7 8 9 11 10 10 9 9 9 9 9 9 8 8
3 3 1 1 1 1 2 2 2 2 4 4 4 3 3 3 7 7 7 8 8 8 6 6 5 4 5 4 5 6 7 8 8 6 4 4 6 8 7 8 9 10 11 11 11 11 9 7 7 6 7 6 6 7
3 2 0 1 1 2 3 4 2 4 3 3 5 3 4 3 4 8 9 8 6 5 4 5 6 6 6 7 6 4 3 5 8 7 6 7 8 8 8 9 10 11 11 11 10 10 10 9 8 8 7 7 7 7
3 3 3 2 1 2 4 2 2 1 2 2 2 2 2 2 2 3 7 6 5 6 7 5 5 4 4 5 6 4 4 7 8 11 11 10 9 8 10 12 13 12 12 11 10 9 9 8 8 8 8 8 8 8
0 0 2 2 2 3 3 3 3 2 3 2 3 2 2 2 3 3 4 8 7 5 5 5 4 3 4 7 8 6 8 10 12 13 13 12 10 11 14 12 11 12 13 12 10 9 9 8 8 8 7 8 8 8

GFSWCAN_925_spd_033.txt.gz
Wind_Speed
28 29 28 29 29 28 29 26 30 38 37 43 42 40 40 43 45 45 9 6 5 5 7 2 6 14 8 12 8 10 7 2 3 3 3 3 1 4 2 2 5 6 7 3 3 2 5 6 6 2 5 7 8 9
27 26 26 24 24 29 30 33 32 39 40 41 40 38 40 42 43 45 7 3 12 5 7 8 9 9 3 4 6 12 2 11 7 5 1 3 2 1 2 3 3 4 4 1 6 1 5 4 4 4 5 7 8 10
22 22 23 25 26 26 34 34 33 33 35 34 35 37 38 39 40 33 2 4 8 4 5 5 6 7 5 4 2 4 2 4 5 2 4 2 3 4 4 4 2 3 2 2 1 3 1 3 3 3 7 8 11 11
26 26 24 31 32 32 30 30 32 31 33 35 36 35 35 36 41 31 4 0 5 5 4 4 4 3 6 1 3 2 11 7 9 4 2 3 3 4 3 2 3 3 6 4 5 8 4 1 7 9 10 9 10 11
28 31 25 22 23 27 29 28 28 31 33 33 32 32 33 33 36 21 3 4 8 2 4 6 10 7 4 5 7 8 13 9 5 3 2 2 3 4 2 0 3 2 1 3 3 5 4 7 11 9 8 10 10 10
26 26 26 23 21 21 22 25 28 29 29 30 32 33 35 37 40 16 4 5 8 4 4 4 4 5 9 12 12 8 5 3 3 3 3 3 2 2 3 4 4 4 2 3 3 8 4 5 10 11 12 13 15 16
30 29 27 26 25 22 18 19 23 27 30 32 34 37 40 45 18 1 2 6 8 6 3 4 4 4 3 5 3 4 5 3 2 3 2 3 3 3 2 4 5 2 2 3 5 7 8 11 7 12 14 17 21 23
32 30 30 27 25 27 27 23 26 30 33 35 35 35 42 31 8 4 10 8 9 1 1 4 3 3 4 2 3 3 2 2 5 3 2 2 3 1 3 5 4 5 8 7 7 10 10 11 12 13 17 19 16 13
35 37 40 39 39 40 37 37 38 39 42 43 41 36 23 4 2 5 8 9 4 3 1 3 5 4 2 3 2 2 2 3 1 2 2 3 2 2 4 4 5 6 3 5 10 10 10 12 12 13 13 11 11 7
33 32 31 32 31 28 27 28 32 37 41 38 26 6 3 3 6 6 12 3 0 2 4 3 1 4 0 2 2 2 2 3 3 2 3 2 2 5 4 3 2 2 2 11 11 8 11 12 12 12 10 9 8 7
29 29 28 26 25 26 19 17 15 16 15 4 3 3 5 10 4 1 1 0 1 3 3 3 2 5 2 3 3 2 2 1 3 3 3 3 3 4 4 4 3 3 6 9 14 12 13 12 9 7 7 8 6 5
24 24 22 24 19 19 25 18 11 14 8 8 17 10 3 2 3 4 1 1 3 2 2 2 3 3 2 1 3 2 3 2 3 6 2 3 3 8 8 9 10 14 17 16 15 13 12 9 7 7 6 6 7 7
23 21 21 20 17 17 20 18 22 17 10 6 4 4 3 4 5 3 3 2 3 2 1 2 3 2 3 3 3 2 3 2 4 2 2 2 7 7 10 11 11 12 13 12 11 10 9 9 9 8 8 8 5 7
20 21 22 23 21 17 14 12 6 11 12 5 5 5 4 3 4 3 3 3 2 1 2 4 3 2 1 3 0 2 1 2 3 4 3 4 9 9 7 11 11 11 4 8 9 9 8 9 10 11 12 9 9 8
22 21 20 21 18 16 18 14 9 11 9 5 5 4 4 2 3 2 0 2 2 1 1 3 3 2 2 3 2 3 3 3 3 0 3 6 9 8 8 11 11 9 5 6 8 9 8 8 9 9 7 7 7 8
12 18 22 15 17 15 13 18 17 6 4 3 5 2 2 2 3 3 4 3 4 2 1 2 3 2 2 3 3 3 3 2 3 3 6 9 9 9 10 8 9 8 8 8 9 10 10 9 7 6 5 8 9 7
14 8 11 13 16 15 14 9 8 6 4 3 3 3 2 4 3 2 2 2 4 2 2 1 2 3 2 2 3 1 2 3 5 6 6 11 11 10 10 10 7 9 9 9 9 8 7 6 5 4 5 7 8 6
11 11 8 6 8 11 9 9 4 4 5 4 3 3 2 3 2 3 2 2 2 2 1 2 1 2 1 2 3 3 3 5 7 7 7 9 13 14 12 10 10 9 10 8 7 7 6 3 2 4 5 8 8 9
17 15 9 8 7 5 4 5 5 4 5 2 2 2 3 2 3 4 2 3 3 2 2 1 1 2 3 4 3 4 6 5 6 5 4 8 10 10 11 12 12 10 9 8 6 5 5 6 5 6 6 9 9 10
14 14 19 17 8 5 5 4 4 4 3 3 2 3 2 2 2 2 4 4 3 2 5 4 4 3 4 4 4 2 6 6 8 7 6 5 9 12 12 10 8 10 9 8 7 5 3 3 5 7 8 8 10 10
9 15 15 10 8 12 4 3 4 3 3 3 2 2 3 2 3 4 4 5 4 3 3 4 4 4 5 6 9 9 8 4 4 4 7 7 10 11 10 9 7 6 6 5 4 5 5 5 6 7 8 8 9 10
8 10 6 10 6 5 5 10 3 2 3 2 2 2 3 2 3 3 4 4 3 4 4 4 5 4 6 8 10 11 10 13 15 17 17 15 7 8 8 7 7 7 7 5 5 4 4 5 6 8 8 10 10 11
7 7 7 10 5 5 3 6 3 4 3 2 2 2 2 3 3 3 3 3 4 7 9 7 10 11 11 12 14 15 13 11 11 11 12 12 13 12 11 9 7 6 5 6 5 5 5 6 6 8 9 10 11 12
9 6 6 5 6 4 1 4 3 2 3 2 2 2 3 2 3 2 3 3 4 10 9 8 4 4 9 12 10 13 13 11 12 13 9 10 11 10 9 9 9 9 7 5 5 5 5 7 8 9 10 11 11 12
5 7 5 6 4 3 3 3 3 3 3 2 1 3 2 1 2 3 3 3 5 6 7 11 10 9 5 6 9 12 15 11 10 10 12 10 10 9 8 8 8 8 7 5 6 7 7 8 9 10 11 11 12 13
7 8 5 5 3 3 3 2 3 4 3 2 3 2 1 0 2 3 3 4 4 6 8 9 7 5 6 11 8 10 11 9 8 11 10 9 8 6 5 4 2 4 7 7 8 9 10 10 10 12 12 12 11 13
5 6 4 3 2 2 3 3 2 2 3 3 2 2 1 1 3 3 4 8 4 9 10 11 12 10 9 9 10 10 10 12 12 10 8 8 9 9 8 6 5 5 7 7 8 9 10 11 12 12 13 13 12 12
4 5 4 4 3 3 3 2 3 4 3 3 3 3 3 5 4 3 5 6 6 6 8 10 11 10 9 9 8 8 8 7 6 6 6 7 7 7 7 6 6 9 8 8 9 9 10 11 12 13 13 13 13 11
4 3 2 3 3 3 4 3 3 3 4 3 4 2 3 3 5 6 7 6 5 5 6 7 8 7 8 9 9 9 9 9 6 5 5 4 4 5 9 8 8 8 9 10 10 10 11 11 12 12 12 12 12 11
3 3 2 2 2 2 3 4 3 3 6 5 3 4 4 5 8 8 8 9 9 8 7 7 7 7 6 6 6 7 9 10 10 9 5 5 7 9 9 9 9 10 10 11 12 12 11 11 11 10 10 11 10 10
3 3 2 3 2 3 4 3 3 6 3 4 7 5 5 4 5 10 11 9 8 7 6 7 8 8 8 9 8 7 5 7 9 8 7 7 8 9 9 10 10 11 11 11 12 12 12 12 12 12 11 11 11 11
3 4 3 2 2 2 3 2 2 1 2 2 2 2 3 3 3 4 9 8 6 7 8 7 7 6 6 6 6 5 6 7 8 9 9 9 10 10 10 10 11 11 11 12 12 13 12 12 12 12 12 12 11 10
1 2 2 1 0 1 2 3 1 2 2 2 3 3 4 4 4 3 3 8 7 6 6 6 5 5 5 6 7 6 7 8 11 12 13 12 10 10 10 10 11 12 12 13 14 14 13 12 12 12 11 11 10 10

GFSWCAN_925_spd_036.txt.gz
Wind_Speed
29 28 27 26 26 25 25 25 25 25 30 33 32 28 34 39 29 32 37 34 9 5 14 21 14 12 10 14 6 11 6 3 3 2 3 2 2 3 2 6 7 6 6 3 2 2 5 6 5 2 4 5 8 7
26 25 23 23 24 25 24 23 24 28 30 32 29 29 35 33 28 29 19 39 30 8 4 13 17 15 9 5 7 9 6 10 5 4 1 3 2 2 2 2 6 3 4 3 7 3 5 3 4 5 6 4 5 7
23 23 23 24 24 24 25 25 28 33 27 31 35 35 32 28 32 39 40 34 14 6 5 6 8 12 11 8 9 4 3 8 6 2 3 2 3 3 3 3 3 4 4 2 2 2 5 5 3 10 10 8 8 8
18 20 20 20 23 25 27 29 27 29 36 41 38 35 34 36 39 36 29 31 19 5 5 4 4 5 7 6 5 4 7 6 6 5 2 3 3 4 3 1 3 2 7 5 5 3 3 14 13 10 7 10 10 10
18 21 22 27 28 30 33 32 35 31 37 38 38 35 33 34 33 35 35 30 16 3 4 4 8 7 3 4 6 7 10 8 4 3 2 2 2 3 2 1 1 4 1 3 1 8 3 11 10 10 11 12 11 13
26 28 29 33 29 29 31 34 31 33 34 31 33 34 32 28 27 15 4 6 8 10 4 3 2 4 6 8 10 8 6 5 3 3 1 3 3 0 3 3 6 8 7 6 4 4 9 12 16 15 13 12 14 14
24 28 27 26 28 30 30 29 28 29 32 34 33 32 31 32 29 3 4 3 6 4 3 3 4 1 7 8 4 4 3 3 3 3 1 3 2 2 3 2 10 6 5 8 4 3 8 8 9 13 15 15 17 18
31 27 23 25 28 30 30 31 33 33 33 33 31 31 31 27 18 1 5 7 7 2 4 3 0 3 2 2 2 4 2 3 5 3 1 2 3 2 2 9 9 6 10 8 10 13 13 14 15 12 14 15 13 11
49 43 37 32 30 30 32 33 33 33 33 34 36 38 28 3 4 4 10 14 14 10 2 2 4 3 3 3 1 2 2 3 2 2 2 3 2 2 6 9 9 5 5 10 10 10 11 13 12 11 12 11 10 6
50 48 44 42 36 34 33 34 36 39 40 44 44 8 3 1 14 5 3 4 5 2 3 2 1 3 1 2 2 2 2 3 3 1 2 2 2 6 5 7 6 4 10 11 12 9 11 12 12 11 10 8 10 13
31 42 45 36 37 35 39 44 47 51 51 19 3 3 4 6 3 3 3 3 2 2 2 1 4 5 3 3 3 1 2 0 3 3 4 3 3 5 6 6 5 5 11 7 10 13 11 12 8 7 9 12 11 12
26 22 30 35 39 35 26 26 22 13 6 9 19 9 5 4 3 5 2 1 1 1 1 2 3 3 2 0 3 2 3 2 2 5 2 3 3 10 8 8 9 10 14 13 17 14 16 13 10 12 12 11 11 12
30 22 17 20 24 25 30 28 26 26 22 10 7 4 2 4 3 2 4 1 2 0 0 1 3 2 2 3 3 3 3 2 4 1 3 2 7 7 9 10 10 14 14 15 15 15 15 14 14 14 12 8 11 13
28 27 26 21 16 17 14 18 19 9 12 4 4 5 3 2 2 2 2 2 0 2 2 3 2 2 1 3 2 4 1 2 3 4 3 4 10 8 10 9 11 11 5 11 13 14 14 14 14 16 14 12 11 10
24 24 25 27 23 14 10 9 16 18 8 5 4 4 3 2 1 0 1 1 3 2 1 2 3 3 3 3 2 4 3 3 4 0 2 6 10 9 10 9 11 6 5 9 13 11 13 15 13 13 11 10 9 10
13 23 28 22 15 15 19 20 14 9 5 4 5 3 2 1 3 3 4 2 4 3 3 2 2 3 3 2 2 2 4 2 2 3 4 8 10 9 8 10 11 12 9 15 13 12 11 11 12 10 9 9 7 10
21 10 15 18 22 15 12 10 7 5 4 3 3 3 2 4 3 2 3 3 4 2 2 2 3 4 2 2 2 3 2 2 4 5 5 8 10 8 10 12 12 12 13 14 14 13 11 9 10 7 6 8 7 6
12 12 9 11 10 18 10 11 5 4 6 4 3 3 2 3 1 3 2 3 3 2 2 2 2 2 3 2 3 2 3 5 5 6 6 8 9 13 13 12 13 12 15 14 12 10 8 7 6 8 7 7 5 7
19 17 13 14 10 7 4 6 5 4 4 2 2 2 3 2 4 4 3 2 2 1 2 2 4 4 3 3 3 4 5 4 4 4 4 11 14 11 11 16 17 15 12 10 9 10 10 10 9 7 6 6 6 7
15 17 20 21 8 5 4 3 4 4 3 2 2 3 2 2 2 3 4 5 6 3 5 4 4 3 3 4 4 2 5 6 5 5 5 6 13 15 13 11 12 13 12 11 10 7 7 8 8 6 6 6 7 7
11 17 18 10 8 12 4 3 4 3 3 3 2 3 3 3 4 4 5 4 5 4 4 4 3 4 10 12 13 13 9 4 4 4 7 5 10 13 12 12 10 9 10 8 9 8 8 7 6 6 6 6 7 7
8 12 7 11 6 5 5 11 2 2 3 2 2 3 3 2 3 4 2 6 4 4 4 4 6 6 7 12 15 17 13 15 16 18 17 14 6 8 9 9 10 11 12 10 8 7 7 6 5 5 6 7 8 8
8 7 7 10 5 6 3 9 4 5 3 2 2 3 3 3 4 2 4 4 3 6 8 7 10 13 13 14 17 21 20 15 13 14 15 15 16 15 15 15 12 10 10 8 7 6 5 4 5 6 6 8 9 9
9 6 5 5 6 4 1 4 2 2 3 2 2 3 3 3 3 3 4 3 5 11 10 13 10 5 10 13 11 16 15 14 16 16 12 13 13 14 13 13 12 11 8 6 6 5 5 5 7 7 8 9 9 9
5 7 5 6 4 4 4 3 4 4 4 4 2 3 3 2 2 3 3 3 7 7 8 13 12 13 6 7 11 14 18 13 12 12 15 10 11 11 11 11 11 10 9 7 7 7 7 7 7 8 9 9 10 10
7 8 5 5 4 4 4 3 4 4 3 2 3 2 2 2 3 4 3 5 6 6 8 10 9 6 7 13 9 12 13 9 10 12 12 13 14 10 7 5 6 8 9 7 7 8 8 8 9 9 10 10 11 11
5 6 4 1 1 1 3 3 1 2 4 5 3 4 2 2 4 3 4 9 4 9 10 11 12 12 10 10 10 10 11 13 12 10 9 10 11 12 11 9 7 6 6 7 7 8 9 10 11 11 12 12 11 10
5 5 5 4 3 4 3 3 4 5 4 5 4 4 4 5 4 3 5 7 5 6 8 10 11 10 10 11 10 9 8 5 6 6 7 9 9 10 9 7 6 7 5 6 8 8 9 10 11 13 13 13 13 12
4 3 2 4 4 4 5 5 3 3 5 4 4 3 3 3 5 6 6 8 9 10 9 8 7 6 8 10 11 11 12 13 10 6 6 4 4 8 11 8 7 7 8 9 9 10 10 11 11 12 12 11 11 11
4 4 2 4 3 3 3 5 3 4 6 5 4 4 5 5 8 9 9 9 9 8 8 8 8 9 10 9 7 7 10 12 12 9 5 5 8 10 10 9 9 10 10 11 11 11 12 10 12 12 11 10 10 9
2 3 2 3 3 3 3 1 7 6 4 4 10 7 5 4 6 10 11 9 8 9 8 9 11 11 10 10 10 9 5 9 9 7 8 7 8 10 10 11 11 10 11 11 12 12 13 14 12 13 13 13 12 12
3 4 3 3 3 2 2 2 2 2 3 2 3 3 4 3 3 4 11 12 9 10 10 10 10 8 7 6 6 6 6 7 8 10 11 11 11 11 11 11 11 11 12 12 13 13 13 14 14 13 13 13 13 11
2 2 2 2 1 1 3 3 1 3 3 3 3 3 4 4 4 3 4 8 7 7 7 7 6 6 7 7 8 7 8 8 11 13 13 13 18 13 11 11 13 14 14 13 13 14 15 14 14 12 12 13 12 11

GFSWCAN_925_spd_042.txt.gz
Wind_Speed
41 40 39 38 38 38 38 39 40 39 39 41 42 42 42 44 39 33 26 22 12 3 6 6 6 9 12 13 8 4 4 2 2 4 4 3 3 5 4 6 7 7 6 3 3 3 6 6 4 7 6 4 7 6
35 35 34 34 33 33 31 31 35 36 38 39 41 42 42 37 39 39 11 20 23 3 5 19 23 23 17 12 6 1 3 5 4 4 1 3 2 2 4 3 3 1 7 6 8 5 3 3 5 5 7 8 4 8
30 30 28 27 27 28 27 25 27 33 38 39 39 40 39 39 42 39 12 16 13 5 7 3 6 7 13 32 29 5 2 6 6 4 3 3 4 4 4 4 4 2 4 4 5 5 5 7 8 7 7 10 7 7
26 25 23 24 25 24 23 24 23 23 31 32 42 41 41 40 33 30 14 12 16 3 2 5 6 8 7 25 34 19 12 4 6 5 2 2 4 3 4 4 5 5 7 6 4 1 9 8 6 11 13 12 14 12
19 18 21 22 23 23 23 23 23 25 29 31 34 36 34 34 31 25 21 20 19 3 2 5 12 8 3 15 14 23 17 7 4 4 1 2 3 4 1 3 1 4 7 5 5 11 5 4 4 8 13 11 11 15
20 21 21 20 19 19 18 20 21 23 26 27 29 27 27 25 23 17 4 19 29 3 2 3 5 5 9 9 7 6 5 4 3 4 1 3 1 3 3 3 3 0 2 6 6 7 13 13 9 8 14 12 13 14
19 20 21 21 19 18 18 19 21 23 25 24 23 22 21 24 33 8 6 3 33 10 1 3 6 1 4 1 2 3 4 2 3 3 2 2 2 3 3 4 6 4 10 14 19 18 10 1 7 11 16 18 22 21
24 23 22 20 21 21 19 19 18 19 21 18 18 19 24 27 26 16 14 7 14 12 3 1 4 2 4 2 1 1 3 3 4 2 2 3 3 2 1 3 10 9 13 10 6 8 13 16 15 14 19 20 15 13
28 25 23 24 21 20 20 22 21 21 20 22 24 24 19 14 5 12 20 10 4 8 3 2 2 2 3 1 2 3 3 3 2 2 2 3 1 2 2 11 12 11 6 13 14 17 16 16 15 13 13 12 14 10
29 27 26 24 24 25 25 26 26 29 29 29 20 7 1 6 5 16 4 2 2 3 1 2 1 1 1 2 3 3 2 2 3 2 1 3 1 2 3 5 8 12 17 17 17 9 13 13 14 13 12 9 11 11
25 27 27 30 29 29 31 32 33 32 33 15 5 2 14 26 4 1 2 2 1 4 3 1 2 3 5 4 2 2 1 1 3 2 4 2 1 3 2 7 8 11 10 5 9 12 12 16 15 14 12 15 17 16
30 31 30 31 32 33 34 33 36 23 8 8 16 8 6 3 2 4 1 3 4 1 2 2 3 3 3 3 3 2 3 3 2 2 3 3 2 4 7 7 8 9 12 12 17 14 18 21 20 19 18 17 16 18
37 32 31 32 33 34 36 38 21 27 26 11 5 4 3 3 7 4 2 1 2 2 2 1 3 2 3 4 3 2 3 3 1 2 4 2 4 5 6 8 9 12 17 18 16 21 23 21 21 25 20 19 21 19
43 40 33 28 34 38 31 14 8 8 9 4 4 5 4 4 4 2 2 3 2 2 2 3 2 3 1 3 1 3 1 1 2 2 4 2 6 5 7 10 15 14 14 15 15 20 21 22 20 20 21 23 23 18
34 39 36 28 20 19 15 7 4 10 7 5 5 5 4 1 1 1 1 2 1 1 2 2 2 2 2 4 1 2 2 3 3 3 1 3 5 9 10 12 13 13 12 13 18 19 19 20 20 17 19 20 22 21
26 29 27 18 12 17 19 18 16 7 4 4 6 3 2 2 4 4 4 3 4 2 1 1 3 3 3 3 2 1 4 3 0 1 1 6 9 9 12 11 12 16 17 17 18 19 18 17 18 18 20 18 17 17
31 10 14 17 24 18 13 10 8 6 4 4 3 2 1 3 2 0 2 2 3 2 2 1 4 2 2 3 3 3 2 2 1 2 3 7 10 11 12 12 15 18 17 18 18 17 17 19 23 19 14 14 13 14
18 18 9 6 15 26 15 12 5 5 6 3 2 4 4 4 3 5 4 6 3 2 2 3 3 6 4 4 3 3 2 2 3 3 5 8 9 13 14 13 16 18 18 17 18 18 20 18 14 11 15 16 17 15
24 19 14 13 10 8 4 7 6 4 5 2 3 3 2 4 8 7 8 8 7 6 3 3 5 4 3 3 4 5 3 2 3 4 5 11 15 14 16 18 19 19 17 17 17 14 15 16 15 15 15 14 13 11
21 24 26 21 10 5 5 4 6 4 3 2 2 8 4 5 6 9 10 8 8 4 6 5 4 3 3 5 5 3 3 3 5 6 5 6 13 16 14 15 13 17 19 20 19 20 18 16 13 12 12 10 9 7
13 20 18 14 9 14 4 3 4 3 2 3 2 2 3 5 9 7 7 6 8 4 4 4 4 5 13 14 18 14 14 9 5 4 4 6 12 16 16 15 16 16 15 14 15 16 16 13 10 10 9 9 6 5
11 12 7 14 7 6 5 11 3 1 3 0 2 2 3 2 3 4 3 8 4 5 4 4 6 6 8 13 17 23 19 21 23 22 22 18 7 10 12 14 18 16 17 14 13 13 13 10 8 8 7 6 5 4
7 9 8 11 7 6 2 7 5 4 4 3 3 4 3 3 3 2 4 4 4 7 11 8 14 16 15 17 23 26 25 22 18 18 19 19 20 20 20 20 17 16 15 14 14 13 12 9 7 6 5 5 4 3
11 7 6 5 6 3 3 5 3 3 4 4 3 3 3 2 2 4 4 3 4 12 11 15 12 5 12 19 12 17 18 16 18 20 17 15 15 16 18 19 21 20 16 14 13 12 10 9 7 6 7 6 6 5
7 8 6 7 4 6 5 5 5 4 3 3 4 4 3 2 3 4 3 2 4 6 6 11 13 12 6 6 12 16 20 18 15 14 18 14 14 14 15 18 19 17 12 11 12 10 9 7 7 7 7 8 9 9
8 5 5 6 4 4 1 3 4 4 2 3 3 2 3 3 5 4 2 1 2 3 5 6 5 5 7 13 9 12 14 12 16 17 17 18 16 12 9 7 7 9 12 12 11 9 8 8 8 9 10 9 7 9
6 5 3 2 1 2 4 3 3 5 5 5 3 4 3 5 3 2 2 5 2 7 10 12 13 12 10 11 13 13 16 17 18 17 17 21 21 20 16 13 10 6 6 9 10 8 8 8 9 11 9 9 11 11
3 4 4 5 4 3 4 4 4 4 3 4 3 6 3 3 2 2 5 8 13 12 16 17 17 17 19 17 16 13 11 13 13 15 15 16 17 16 14 8 6 6 7 8 8 7 8 9 10 8 10 13 14 13
3 2 4 5 4 5 4 3 2 2 4 2 3 3 2 3 7 6 9 11 11 14 17 15 13 14 16 18 19 21 20 12 6 5 4 3 9 13 15 9 9 9 8 9 11 10 9 10 12 12 12 12 12 12
3 2 4 5 4 4 2 3 2 2 7 5 5 4 4 4 11 14 16 14 16 17 17 16 15 16 15 12 12 15 16 16 17 16 3 2 9 14 15 17 15 13 13 13 12 11 11 13 12 11 11 13 12 10
3 3 4 4 2 1 4 7 12 11 5 4 7 4 3 3 6 18 17 16 16 14 15 15 16 14 12 14 14 9 11 9 10 13 11 10 11 13 14 13 13 14 15 16 16 15 13 12 13 14 14 16 8 7
3 2 4 3 0 2 3 3 3 3 1 3 1 2 2 3 2 4 8 7 11 13 11 10 12 9 7 7 7 5 2 4 10 13 12 12 11 11 13 15 16 14 13 14 14 12 13 13 13 14 15 13 8 8
4 4 4 3 3 2 3 3 3 3 3 2 2 2 2 3 2 3 5 7 8 9 9 7 6 5 2 3 4 4 8 12 11 8 8 10 13 14 13 14 14 14 13 13 12 11 13 14 18 17 14 12 10 8

GFSWCAN_925_spd_045.txt.gz
Wind_Speed
42 44 45 46 47 48 50 49 47 45 44 44 40 39 37 41 38 39 16 13 4 1 5 4 5 4 6 12 12 4 6 2 2 4 4 5 3 6 4 5 7 7 7 4 3 3 6 5 4 8 6 3 7 6
36 39 40 41 42 42 42 41 40 39 39 36 34 34 36 33 34 36 9 14 11 1 3 10 16 25 14 9 8 5 4 6 6 4 2 3 2 2 4 3 2 3 7 6 8 6 3 3 4 1 4 9 5 7
32 32 32 33 33 33 34 34 34 34 34 34 34 35 34 33 32 30 11 13 6 2 6 3 7 14 20 28 24 7 2 2 3 3 4 2 3 4 4 5 4 2 3 4 4 1 1 3 3 3 4 5 7 8
30 30 31 31 31 30 31 32 33 34 34 33 32 32 31 30 31 32 23 11 9 1 1 6 10 8 11 16 23 20 8 6 4 2 3 3 2 2 3 4 5 5 7 7 3 2 3 5 3 5 9 10 14 11
25 27 26 27 27 25 25 29 32 32 33 33 32 31 32 31 28 27 22 18 17 3 1 5 16 5 8 10 19 25 10 5 3 2 2 2 3 3 2 2 2 5 7 6 5 12 5 5 7 7 10 9 10 16
26 29 28 25 28 26 22 21 25 30 40 37 32 33 32 29 28 21 2 23 15 11 1 4 5 4 6 3 8 10 9 3 3 4 3 1 3 4 2 3 2 2 3 4 6 12 6 11 7 5 11 9 11 13
24 26 27 27 26 24 23 20 29 29 31 33 34 34 33 35 27 4 4 3 36 20 2 2 4 4 3 1 2 3 3 2 2 3 1 3 3 1 4 3 4 4 7 11 15 17 9 4 6 10 13 16 19 18
21 22 25 25 24 24 25 28 28 29 32 30 25 27 30 27 23 13 14 8 38 9 2 2 4 4 3 1 3 0 3 1 3 2 2 3 2 2 3 1 5 9 13 10 5 7 11 17 14 13 18 18 15 13
24 24 23 24 25 25 27 30 32 32 29 29 30 29 24 9 5 6 14 22 16 5 3 2 2 3 3 2 2 2 2 2 1 2 0 2 0 4 1 8 11 14 6 13 13 16 17 17 16 15 15 13 16 11
28 27 25 25 26 25 24 27 30 29 27 27 25 4 3 12 17 18 8 3 2 2 2 3 2 2 3 1 3 3 3 1 2 2 2 3 2 2 4 4 7 10 15 17 19 11 13 14 14 15 14 12 12 12
27 25 23 24 24 24 23 28 28 25 24 9 3 3 18 28 7 2 3 1 2 2 2 3 4 3 2 2 3 1 3 4 4 3 3 1 3 3 3 7 9 11 10 5 10 11 8 16 17 16 14 14 17 17
30 28 29 28 28 27 26 26 28 25 16 16 14 17 5 3 3 3 3 2 2 3 2 1 1 2 1 2 3 2 3 2 3 2 4 3 2 3 6 9 10 9 10 12 16 16 16 18 20 18 17 18 17 18
28 30 29 24 23 26 31 31 35 25 19 3 5 5 1 1 3 3 3 1 1 3 3 2 1 1 2 3 3 3 4 1 1 2 2 2 1 4 7 9 10 11 14 14 16 20 22 21 21 24 19 18 21 19
29 26 27 28 26 27 31 35 38 14 1 3 3 4 3 3 3 2 2 0 1 2 1 2 2 2 2 4 1 5 2 2 3 3 4 1 3 6 8 8 13 12 12 15 15 20 20 21 19 18 20 23 23 18
28 27 28 25 26 28 31 32 25 2 6 4 4 4 4 1 1 1 2 1 2 2 2 2 3 1 3 4 3 3 3 2 2 2 0 1 4 8 10 11 12 12 11 12 17 17 20 21 20 18 18 20 23 22
31 25 18 15 23 21 18 18 8 4 4 3 7 4 4 3 5 3 6 4 4 3 1 2 3 4 4 2 3 4 2 2 3 3 2 5 8 9 11 11 11 13 15 16 18 20 21 20 18 18 19 21 21 21
20 8 16 24 25 17 9 7 8 6 4 5 4 4 3 3 4 4 4 4 4 2 2 2 5 4 2 3 3 4 3 3 3 2 3 5 8 10 10 11 14 17 17 18 18 17 17 19 22 20 16 15 16 17
13 13 6 10 14 22 16 10 4 5 7 3 3 5 7 6 4 5 5 6 4 3 3 4 3 6 4 4 3 3 3 2 3 3 4 7 9 10 13 11 16 18 18 16 16 17 18 18 15 12 15 16 18 16
25 19 13 13 8 8 4 6 7 5 5 2 3 2 4 4 7 6 6 6 6 6 3 3 6 4 3 3 5 7 7 3 3 4 5 8 12 14 15 16 17 16 15 16 17 15 14 13 12 14 14 15 13 14
23 24 27 19 8 5 5 3 5 4 3 2 3 6 3 3 5 6 10 8 6 4 6 5 4 4 4 5 6 6 6 3 3 6 6 7 13 15 13 12 14 18 19 19 18 18 17 17 16 15 13 12 12 10
15 21 21 17 9 15 4 3 4 3 3 3 1 1 4 5 11 10 7 7 9 4 5 5 5 5 12 13 16 13 15 14 7 6 5 7 15 18 18 18 19 18 16 15 15 16 17 14 13 12 11 8 6 7
11 13 7 15 7 6 4 11 3 1 3 0 2 2 3 3 3 4 4 8 5 5 4 4 7 6 8 12 17 23 19 21 22 22 23 19 9 10 15 17 18 17 17 16 15 14 13 12 10 9 8 7 5 4
7 9 9 12 7 6 2 6 5 4 4 3 3 4 3 3 2 2 4 5 4 8 13 8 11 15 15 17 22 26 25 22 18 19 19 19 21 21 21 22 20 17 16 16 15 14 13 10 9 7 5 4 1 1
10 7 6 5 6 2 3 6 3 3 4 4 3 3 3 2 2 4 4 3 4 12 11 15 13 7 13 20 12 18 20 17 19 22 19 17 17 18 20 20 22 21 16 13 13 12 11 9 7 7 6 5 4 4
7 8 6 7 4 6 6 5 6 5 3 3 4 4 3 3 3 4 2 2 4 5 6 11 13 12 7 6 13 16 21 18 15 15 19 15 15 15 17 19 21 21 16 14 13 10 9 8 9 9 9 7 7 7
8 5 5 2 3 4 1 3 3 3 3 4 3 3 3 3 5 4 2 1 2 4 5 6 5 5 7 13 9 11 14 13 18 21 19 22 20 15 11 9 8 11 15 15 12 11 10 9 10 11 10 8 8 10
6 5 3 3 2 3 4 4 3 4 4 4 3 4 3 5 3 2 2 6 3 8 13 14 13 11 9 9 12 16 18 18 20 19 18 21 20 18 17 15 11 9 10 10 10 9 10 10 11 11 9 11 12 13
4 4 4 5 5 3 4 3 4 3 2 3 3 5 3 3 2 2 3 8 11 14 17 19 20 20 22 20 13 12 14 14 14 12 12 16 18 17 13 12 9 7 7 7 9 11 10 10 9 10 12 12 12 11
3 3 4 6 5 5 5 3 2 2 5 2 3 2 2 2 5 5 7 9 10 13 14 12 13 13 16 18 19 19 19 15 11 6 5 3 10 14 17 16 13 11 11 12 12 12 10 11 11 13 12 11 11 10
3 2 4 4 4 4 4 2 2 2 7 4 5 4 3 4 10 11 14 15 17 16 14 13 12 12 12 12 13 14 14 16 17 15 3 2 8 12 13 13 15 17 16 15 15 15 13 13 13 13 13 14 14 13
2 3 4 4 3 1 3 8 14 10 5 4 6 4 3 3 7 14 13 12 12 11 12 13 12 11 12 12 9 6 7 8 10 11 10 9 9 9 11 12 14 14 13 13 14 13 13 13 13 14 14 15 14 8
4 3 4 3 1 2 0 2 2 3 2 3 1 2 3 3 2 2 5 4 7 9 7 6 7 5 4 6 7 7 6 8 11 11 9 7 10 11 12 12 14 14 14 13 12 12 12 12 15 17 15 13 12 11
3 3 4 3 3 1 2 3 3 2 3 2 1 2 1 3 3 3 4 5 7 8 8 7 5 3 2 3 6 7 9 9 8 7 6 8 11 13 15 15 14 13 12 12 11 11 11 13 13 13 13 13 12 12

GFSWCAN_925_spd_051.txt.gz
Wind_Speed
10 8 15 20 25 28 33 38 43 31 61 61 59 55 54 56 55 44 8 16 9 1 3 4 5 5 8 14 7 4 6 4 2 5 4 4 4 6 5 3 4 7 7 4 3 2 7 8 6 9 7 3 5 10
4 8 14 17 21 23 34 33 31 58 57 55 52 51 52 50 49 34 7 13 11 2 4 3 7 17 7 22 9 10 6 6 7 4 4 3 2 0 6 8 2 5 5 5 9 7 2 10 4 6 5 4 6 11
33 21 12 16 18 23 33 47 53 52 51 50 50 51 48 46 42 27 16 18 7 3 6 4 6 2 8 12 26 6 2 4 4 3 5 3 5 5 4 6 3 5 4 4 3 5 7 7 4 4 4 5 5 9
36 32 40 43 44 47 48 49 48 45 46 47 48 44 41 40 39 29 15 15 18 2 4 5 10 10 10 16 17 10 3 4 4 2 2 2 3 4 5 3 7 5 6 5 4 5 2 9 11 5 5 5 10 11
32 38 38 38 40 41 44 44 44 44 42 42 40 37 34 34 29 25 17 18 22 2 3 2 3 8 11 17 17 18 9 3 2 2 2 3 1 3 0 1 3 5 7 6 7 8 6 7 11 11 11 11 14 16
26 31 37 39 41 42 42 43 41 39 37 36 32 31 33 37 31 17 2 10 14 14 3 2 4 2 3 16 15 12 9 4 3 3 3 2 2 3 5 6 5 9 6 2 4 3 2 4 5 7 8 13 11 13
23 24 28 31 34 37 37 38 36 34 33 31 28 29 34 35 30 6 5 5 33 19 4 2 3 3 5 5 3 3 4 3 2 3 3 3 2 2 2 4 4 4 5 4 4 8 2 4 4 8 14 14 19 18
22 22 23 26 29 31 33 31 30 32 34 33 31 32 36 30 17 4 7 8 40 7 2 2 3 2 4 3 4 2 3 3 2 3 1 3 2 1 4 5 4 5 6 3 5 3 1 11 16 12 14 16 17 16
19 18 19 23 26 29 31 33 35 33 33 33 33 34 23 6 3 3 5 29 12 4 1 1 2 3 1 1 2 2 1 3 2 3 3 5 3 6 5 7 7 10 8 9 7 8 9 9 16 16 15 15 18 15
20 21 22 22 24 28 31 32 33 32 31 33 31 4 2 5 12 20 8 3 1 1 1 2 2 2 1 1 2 2 1 2 4 3 5 4 5 1 2 3 3 5 7 11 9 7 11 13 14 16 14 12 14 15
21 21 21 24 24 26 36 37 37 37 35 10 3 2 5 22 4 3 2 2 2 3 4 4 7 4 3 2 2 2 1 1 1 3 6 3 2 0 1 4 4 5 8 3 5 7 5 12 13 14 13 13 15 19
21 22 21 23 26 29 35 36 37 17 11 6 7 15 10 3 2 3 3 2 5 6 4 4 3 3 1 2 2 1 2 1 3 0 3 3 3 4 1 6 9 7 4 7 7 14 13 14 13 14 14 13 17 22
20 22 20 19 19 30 44 29 18 8 6 3 2 3 2 3 6 6 8 4 3 1 1 2 2 3 2 2 2 1 2 1 1 2 2 2 5 3 3 2 8 8 8 11 14 13 18 19 20 20 15 20 23 23
16 17 19 18 16 14 13 1 8 10 7 2 0 3 2 2 3 1 2 2 1 1 1 2 2 2 2 2 2 2 0 1 2 4 4 4 6 5 5 5 8 10 8 13 13 13 13 16 17 20 22 23 25 22
12 10 9 11 12 12 10 6 4 6 2 2 3 4 4 3 4 4 2 1 2 1 1 2 2 2 2 3 1 1 3 4 4 4 4 7 6 5 6 7 8 9 9 10 9 11 13 18 19 20 20 23 26 24
12 12 11 15 14 14 11 6 11 7 3 3 7 5 6 5 8 6 7 5 4 4 0 1 3 4 5 3 4 6 3 5 4 5 7 6 5 6 6 8 9 9 10 10 15 17 19 18 19 19 21 20 20 22
15 4 17 18 16 13 11 5 5 4 4 5 4 9 6 2 4 5 5 7 4 2 3 3 6 5 3 4 4 5 4 5 9 8 5 6 6 6 8 9 8 13 13 17 19 20 21 21 23 22 17 15 15 15
9 24 33 31 30 21 5 6 3 4 7 4 3 7 7 6 7 7 8 9 5 3 3 5 4 7 5 4 3 5 5 9 6 7 8 8 9 9 12 11 16 18 19 20 21 21 20 19 18 15 17 17 19 16
32 37 35 27 13 5 3 3 5 5 7 3 4 4 4 6 9 8 8 8 8 7 4 4 7 5 4 4 6 7 7 6 4 6 9 18 21 19 20 23 24 23 23 22 21 19 21 21 17 16 14 14 14 11
39 38 24 16 4 3 4 3 5 5 4 1 1 7 6 6 6 9 12 11 9 4 7 5 5 4 4 5 6 6 6 6 3 8 9 10 19 23 23 20 18 21 22 23 24 22 21 22 21 17 16 13 12 9
19 11 11 11 3 10 4 3 4 3 4 2 2 1 3 5 12 11 9 8 8 5 5 5 5 6 10 12 15 13 15 15 10 8 7 8 17 21 21 22 23 24 22 19 18 20 22 18 16 18 19 16 13 10
7 9 5 4 4 4 4 8 3 1 3 2 2 3 3 3 4 5 4 8 5 5 4 5 7 6 8 12 16 21 19 22 23 22 22 20 10 13 17 20 21 19 21 19 18 17 17 16 15 15 13 10 9 8
8 4 6 9 6 6 2 7 5 5 4 3 3 4 4 3 3 3 4 5 4 8 11 9 11 15 15 16 20 25 23 22 19 19 20 20 21 21 22 22 20 17 15 17 15 15 15 14 15 14 12 12 11 11
7 6 6 5 6 2 3 5 3 3 4 4 3 4 4 3 2 4 4 3 4 11 11 14 11 6 13 17 12 17 18 17 19 21 18 17 17 18 19 20 21 21 16 13 15 16 17 17 16 15 15 14 14 14
7 8 6 6 4 6 6 5 5 5 4 4 4 4 3 3 3 3 2 2 4 6 6 11 12 11 7 7 13 16 18 16 16 16 19 14 12 13 16 17 19 18 17 17 18 16 15 15 15 15 14 14 14 14
8 6 5 3 3 5 2 3 3 2 2 3 3 2 3 3 4 3 2 1 2 4 5 5 5 5 8 11 8 11 10 11 13 18 15 15 14 12 10 10 10 12 16 15 14 13 13 12 13 12 12 13 14 14
6 5 3 4 2 4 4 3 3 4 4 4 2 3 3 5 2 2 2 4 2 4 6 8 8 10 9 10 11 15 17 18 18 16 13 16 16 15 14 11 9 8 11 12 12 12 12 12 12 10 12 14 14 13
3 4 5 4 5 4 4 3 4 3 2 2 3 5 4 4 2 2 2 7 11 10 13 14 13 11 11 10 9 8 9 9 8 9 10 16 17 15 14 13 12 11 11 12 12 10 11 11 11 12 12 13 15 14
4 2 4 6 5 5 5 3 2 2 4 2 3 2 2 2 3 2 4 9 9 9 11 13 13 13 14 14 15 16 15 11 5 5 4 3 6 12 12 12 12 12 12 12 11 10 10 11 11 12 12 12 12 13
2 2 5 3 5 4 2 1 1 1 5 3 3 3 3 3 6 6 9 9 9 10 8 7 6 4 6 6 8 10 12 12 12 8 3 2 4 7 9 11 12 12 11 11 11 10 9 10 11 13 14 14 15 14
1 3 4 4 3 1 3 3 5 6 4 3 5 3 2 2 3 7 8 9 9 9 9 8 7 6 6 6 4 3 6 8 8 7 7 6 6 8 10 11 11 11 10 10 10 10 10 11 13 13 14 14 14 14
4 4 4 4 2 1 1 2 2 3 3 3 2 2 2 3 1 1 2 3 4 5 4 3 3 3 4 4 4 5 5 4 4 3 3 5 8 10 10 9 10 9 9 9 9 10 10 10 10 11 13 13 14 14
3 3 4 4 3 1 2 3 3 2 3 2 2 1 2 3 4 5 4 5 4 3 2 2 4 6 3 2 3 4 4 5 3 3 4 7 10 9 9 9 9 8 8 8 8 9 9 9 10 11 12 13 13 14

GFSWCAN_925_spd_054.txt.gz
Wind_Speed
13 13 11 8 8 12 22 32 41 46 49 49 50 61 67 63 38 38 22 21 17 8 7 7 12 15 18 16 14 15 11 7 7 9 7 5 4 5 5 11 7 8 8 5 7 6 11 11 10 12 13 4 7 9
8 4 9 9 12 19 28 33 38 42 44 46 57 64 63 60 39 29 11 10 9 3 4 5 5 9 9 18 15 14 13 12 7 7 5 5 3 2 8 6 6 6 6 4 7 6 4 19 14 16 6 8 7 10
8 4 3 9 14 23 29 36 32 36 31 54 59 59 56 58 47 23 15 16 12 3 3 4 6 5 11 11 14 9 9 9 15 8 5 4 5 6 5 9 6 6 5 4 5 10 13 13 16 6 8 8 6 8
31 14 7 10 18 24 25 23 26 44 55 55 53 52 46 52 35 31 18 9 9 4 3 3 7 9 25 19 18 17 7 11 5 8 6 4 3 6 7 9 12 10 10 13 14 14 12 13 14 14 10 8 8 10
33 40 42 36 34 38 46 47 51 51 50 49 46 47 45 39 31 23 18 11 7 2 2 4 9 16 14 15 21 18 12 11 6 6 3 5 3 3 2 2 11 8 8 8 9 12 8 16 3 14 15 15 11 15
36 39 41 40 43 43 41 44 45 42 43 45 45 46 44 37 32 20 3 2 5 3 1 2 3 12 18 22 22 19 14 10 5 5 5 6 1 5 4 7 13 15 13 14 10 4 7 3 5 4 13 12 13 15
32 34 39 42 45 48 48 48 49 49 48 48 47 44 42 35 25 5 4 10 18 11 1 3 3 5 18 9 9 7 12 9 9 8 5 5 6 5 3 10 7 12 15 13 6 5 5 6 2 7 6 10 10 13
26 29 33 37 38 40 41 43 42 38 38 37 34 32 30 22 11 2 5 23 24 8 2 3 3 3 14 7 4 5 5 6 8 7 3 8 4 3 6 13 17 14 6 8 10 7 3 5 7 9 11 11 14 16
23 23 26 32 35 36 36 36 36 36 36 36 36 33 21 5 3 3 5 29 13 5 3 3 3 3 1 2 3 2 2 3 2 5 5 6 7 8 7 15 12 12 9 10 8 7 7 8 11 11 13 15 14 15
22 23 24 25 27 32 35 37 39 39 45 43 30 5 3 5 5 25 7 5 3 5 4 3 2 2 3 2 2 5 3 2 3 5 5 4 10 11 0 4 5 5 6 6 4 6 9 8 10 14 14 10 11 13
23 24 25 27 28 31 32 33 35 41 29 4 2 2 6 16 5 1 3 5 5 3 4 4 4 1 4 2 2 2 3 3 3 2 5 5 2 4 13 10 6 5 5 5 5 4 5 5 10 11 10 11 13 15
29 26 29 27 28 29 29 32 32 12 4 4 7 11 6 4 1 2 4 1 5 3 4 5 5 5 3 2 2 1 2 1 1 1 1 2 4 11 10 7 6 3 1 0 2 2 4 8 10 12 13 12 17 21
26 27 28 32 28 28 28 26 7 5 6 4 4 2 1 1 4 4 7 4 4 2 3 2 3 3 2 3 3 2 2 2 1 2 3 3 8 9 10 6 6 6 6 9 11 11 12 10 12 15 14 22 25 24
23 24 32 35 31 23 17 6 5 3 4 3 2 3 2 1 2 2 4 4 3 1 0 4 2 2 1 2 1 2 2 1 2 3 4 7 14 11 7 6 7 9 9 11 12 13 14 13 14 20 20 22 25 23
21 23 25 27 17 17 20 17 11 13 6 5 5 4 4 3 4 6 5 1 3 3 1 2 3 2 2 2 2 2 3 5 5 4 5 10 11 7 6 6 7 7 8 11 10 12 12 17 18 20 21 23 26 26
15 15 16 21 19 15 12 17 16 6 3 3 6 6 7 4 6 6 5 3 3 3 1 2 2 3 4 3 4 6 3 6 5 6 9 8 8 8 8 8 8 10 10 12 16 17 19 20 20 23 25 25 24 24
11 5 19 19 16 14 11 9 7 5 4 4 4 7 7 3 5 7 7 7 3 1 3 3 5 7 3 4 4 5 4 5 8 8 8 10 10 10 11 11 10 14 15 18 21 22 21 22 25 26 19 21 22 20
12 23 22 20 16 20 10 5 4 5 7 5 3 7 5 6 7 6 6 8 2 3 3 5 4 8 6 4 4 4 4 7 6 8 9 12 14 15 17 15 19 21 22 22 23 24 23 22 21 19 21 21 21 20
26 25 26 21 9 5 3 4 4 4 6 3 6 5 4 9 10 10 10 9 9 7 5 4 7 5 4 4 6 6 7 6 4 7 9 19 21 19 20 23 24 25 26 25 24 22 23 23 20 17 16 16 16 13
34 27 19 11 5 4 4 3 4 5 3 2 3 10 10 8 9 10 12 12 11 5 8 6 5 6 4 6 6 6 6 6 5 7 9 10 18 22 23 21 20 22 24 25 26 23 23 22 22 20 19 17 16 14
22 16 6 6 5 8 4 3 4 3 3 3 2 6 7 10 14 13 11 10 9 5 6 7 7 7 12 13 13 12 15 15 10 8 7 8 17 20 21 22 22 23 22 20 19 21 22 20 18 17 17 16 14 12
7 8 3 5 4 4 4 8 3 2 3 3 3 4 4 5 7 9 8 10 6 8 5 6 7 6 9 13 17 19 18 20 20 20 19 18 10 13 17 19 20 20 22 20 19 18 18 17 15 15 15 13 12 12
7 4 6 7 5 5 3 5 4 4 3 3 2 4 4 4 4 4 5 5 5 8 12 11 14 16 15 16 20 23 21 20 18 18 18 19 19 19 20 21 20 18 17 18 17 16 16 15 16 15 13 14 13 13
7 6 5 4 5 4 2 4 3 3 3 3 3 4 4 3 3 4 4 3 5 9 10 12 9 6 13 17 13 16 16 15 16 18 17 15 16 17 18 18 19 19 17 14 15 14 14 14 14 14 15 14 15 14
6 7 4 6 4 4 4 4 4 4 4 4 3 4 3 2 3 3 3 2 4 5 6 10 11 10 7 7 12 15 15 14 14 14 16 13 11 11 13 15 17 16 14 13 14 13 13 13 13 13 13 14 13 12
7 8 5 4 3 4 3 3 4 4 3 3 4 2 2 3 4 4 3 2 3 4 5 5 5 6 7 10 8 10 11 9 10 13 13 13 13 11 10 9 9 12 14 12 11 11 11 10 10 9 9 9 10 10
5 6 5 4 3 5 5 4 3 4 4 4 2 2 2 4 3 3 4 4 3 5 5 6 7 9 9 9 9 10 11 12 12 11 9 11 13 13 12 10 9 7 8 9 8 8 8 8 8 9 9 8 9 9
5 5 5 5 6 5 4 3 4 4 3 3 2 4 2 2 3 2 3 6 8 8 9 9 9 8 8 7 6 5 5 5 6 7 8 10 10 10 9 8 8 7 6 8 7 7 7 7 7 8 8 8 8 8
5 2 4 5 5 6 6 4 3 3 3 2 3 2 2 3 2 4 8 8 7 6 8 9 8 8 9 9 9 8 8 4 1 3 4 4 3 7 8 7 7 7 6 6 6 6 6 6 5 7 6 6 7 7
4 3 4 5 5 5 4 4 3 3 6 5 4 4 3 3 4 3 6 5 5 5 6 6 5 3 4 3 4 6 8 8 7 5 3 4 4 4 6 7 6 6 7 5 5 5 5 5 5 6 7 6 7 7
2 3 5 5 4 3 5 5 5 5 3 4 6 4 4 3 4 4 5 6 7 7 7 6 5 4 4 3 3 3 4 5 6 6 6 4 4 5 5 6 7 7 6 6 5 5 6 5 5 6 7 7 8 8
4 4 4 4 3 4 1 0 2 3 2 2 2 2 2 3 3 5 3 4 4 4 3 3 3 3 3 3 4 4 3 3 2 2 3 4 5 6 6 7 7 6 5 6 5 5 6 6 6 7 7 8 9 9
3 4 4 5 4 5 4 3 2 3 2 2 2 1 1 0 2 3 5 7 3 3 3 3 3 5 4 2 2 2 2 2 2 1 3 6 8 7 7 8 7 6 6 5 5 6 6 6 6 7 7 8 9 10

GFSWCAN_925_spd_057.txt.gz
Wind_Speed
33 23 18 20 19 19 17 24 25 38 45 48 53 54 52 55 55 39 26 37 18 7 6 6 10 18 17 20 15 13 17 10 10 10 9 10 7 11 10 13 18 12 7 6 10 11 15 3 9 15 15 15 8 9
18 10 11 14 11 12 12 20 25 32 43 50 51 50 53 51 59 29 19 30 18 2 0 5 5 6 9 14 15 13 20 21 10 10 7 8 5 2 9 9 16 15 8 8 9 6 6 11 13 16 17 12 7 10
11 6 4 8 9 15 20 25 28 37 43 46 46 47 47 57 49 24 21 24 17 5 2 6 10 9 8 9 15 8 13 17 18 13 6 5 5 7 5 10 8 8 4 13 13 15 15 13 12 14 11 13 12 8
14 6 8 9 13 21 26 29 33 37 40 42 42 43 53 55 36 24 22 20 17 6 3 7 5 12 11 17 14 11 15 23 7 9 6 5 5 8 7 8 10 10 10 10 15 15 13 15 10 10 14 11 11 8
28 17 13 13 15 20 24 31 35 37 42 41 59 59 49 45 34 24 16 7 11 0 3 5 3 7 13 13 17 20 13 12 9 9 5 7 8 8 5 8 10 13 15 10 8 10 10 12 11 4 11 15 14 13
34 37 37 37 32 25 23 26 29 39 48 56 56 46 35 39 37 24 3 1 13 12 3 3 2 7 15 18 21 15 10 10 10 11 8 8 13 10 5 11 15 17 16 17 14 12 13 11 4 5 9 13 11 12
35 37 38 42 43 45 48 49 48 50 49 49 47 44 40 34 23 5 2 9 14 6 1 2 4 1 12 7 5 6 12 10 7 8 6 10 11 7 8 12 12 11 12 15 15 7 9 10 6 3 8 10 7 11
33 36 39 41 40 37 39 38 40 47 51 50 46 40 30 27 20 9 11 19 17 6 2 2 3 4 14 4 2 8 10 10 6 6 4 9 8 5 7 14 20 21 18 15 12 9 12 5 3 6 6 6 10 12
27 31 33 37 41 45 47 48 49 48 46 42 39 33 19 6 2 6 15 14 3 2 4 3 3 2 7 5 4 5 6 8 4 8 10 5 8 8 7 10 12 12 11 14 10 10 10 11 9 6 6 8 10 8
25 27 29 31 34 35 36 38 41 41 39 38 24 5 4 6 17 24 5 1 2 3 2 2 2 2 1 2 2 4 2 5 5 5 5 7 10 5 17 15 12 11 12 10 7 9 10 10 8 7 8 7 7 8
23 25 28 29 29 30 34 37 38 37 24 3 2 3 17 16 5 2 4 3 4 4 5 4 4 1 3 2 3 1 3 2 3 4 6 6 3 11 16 16 15 13 11 10 8 10 9 9 7 5 6 6 7 10
24 28 29 30 31 34 37 34 19 7 4 3 12 14 5 3 2 2 2 1 2 3 3 4 3 4 4 4 2 4 3 3 3 2 3 3 3 14 12 13 13 13 13 10 8 7 6 5 3 4 6 7 9 17
25 27 28 29 32 29 16 13 11 8 6 1 2 3 1 2 3 2 4 1 1 2 2 2 0 2 3 3 2 1 2 3 2 2 3 4 11 14 11 9 7 10 12 13 13 14 16 16 23 20 16 20 21 21
25 26 25 25 24 15 9 12 10 11 7 4 4 4 4 4 6 6 4 4 3 3 3 2 2 2 3 4 3 2 2 1 2 3 4 8 15 11 8 7 7 9 10 11 11 11 14 14 14 21 22 23 25 21
27 24 24 21 15 8 2 6 2 5 6 5 5 5 5 5 6 5 5 3 4 5 3 2 4 2 1 2 3 1 3 5 6 4 6 10 10 9 10 9 9 9 10 11 11 13 14 20 20 21 23 25 27 27
29 18 20 19 15 12 12 12 9 5 4 4 7 6 9 3 7 7 6 4 4 4 2 2 2 2 4 3 5 7 3 6 4 5 8 11 11 10 11 11 11 11 12 13 18 20 22 22 22 24 28 27 27 27
8 5 12 11 8 9 7 6 7 6 5 5 4 7 8 5 6 6 6 5 4 2 2 2 5 6 3 4 4 5 4 4 6 7 7 12 13 13 12 13 12 16 17 21 22 24 24 25 26 27 19 23 25 26
6 20 17 17 10 12 12 8 5 5 7 6 3 7 5 6 9 8 6 7 3 2 3 5 4 7 6 4 4 4 4 4 7 7 8 11 13 17 18 16 20 21 22 23 24 24 24 23 21 18 21 21 22 21
20 20 15 4 4 5 3 5 5 4 4 2 6 5 3 4 8 8 7 6 8 7 4 4 6 4 4 4 5 5 5 5 7 8 9 19 21 19 20 23 24 25 26 25 25 22 25 26 22 20 19 18 18 16
22 17 12 6 3 4 4 3 3 4 3 3 4 8 10 9 9 10 11 9 8 4 7 5 5 6 5 6 5 5 5 5 6 8 9 10 18 21 23 20 20 21 23 24 25 23 22 23 23 22 21 20 18 17
18 11 7 7 5 9 4 2 4 3 3 3 3 6 7 8 13 12 12 11 11 5 6 7 8 8 13 14 14 15 15 15 9 9 8 9 16 19 20 21 22 22 21 20 19 20 22 20 18 18 18 18 17 15
5 6 4 6 3 4 4 7 3 2 3 3 4 4 4 6 7 9 9 9 7 9 7 8 8 8 10 13 16 19 18 20 20 19 19 17 10 12 17 19 19 19 20 19 19 18 18 17 16 16 16 15 14 16
6 4 5 5 4 5 3 3 4 4 3 2 3 4 4 4 4 4 4 5 5 8 11 11 14 15 15 17 19 20 19 18 17 17 17 17 17 17 18 19 18 17 16 17 16 15 15 14 16 14 14 14 12 12
6 5 5 4 5 4 2 4 3 3 4 4 4 4 4 4 3 4 5 3 4 8 7 9 8 7 12 15 11 16 15 14 15 16 15 14 14 15 16 16 16 16 14 12 13 13 13 13 13 13 13 12 12 10
5 7 4 7 4 4 4 3 3 4 4 3 3 3 3 2 3 3 3 3 4 5 5 8 9 9 7 7 12 14 14 13 13 12 14 12 10 9 11 13 15 15 13 12 12 12 11 10 10 10 11 11 11 10
7 8 5 4 3 3 3 3 3 4 3 3 4 3 1 3 3 4 3 3 4 4 5 6 5 6 7 11 8 11 11 10 9 12 13 13 12 10 9 8 8 12 14 11 10 10 10 10 10 10 10 10 11 11
5 5 4 4 3 4 5 5 5 5 4 4 3 2 2 3 3 3 4 4 4 6 6 7 8 9 9 10 10 10 11 13 12 11 10 11 13 13 12 10 9 8 9 10 9 10 9 9 9 9 9 8 9 10
5 5 4 3 6 6 4 4 4 4 3 3 1 4 3 3 3 3 4 7 8 8 8 8 8 8 8 8 7 6 6 6 6 6 7 10 11 10 9 8 7 7 6 8 7 7 7 7 7 7 7 8 7 8
5 3 4 7 6 7 7 5 4 3 4 3 2 3 3 3 3 9 9 8 7 7 7 8 8 8 8 8 8 7 7 5 2 3 2 3 3 7 7 6 6 6 6 5 5 5 6 5 5 5 6 6 7 7
4 3 5 6 5 6 5 5 5 5 6 6 5 6 7 7 5 5 7 6 5 5 5 5 5 3 3 2 4 5 7 7 6 4 3 3 4 4 5 5 5 5 5 5 5 5 6 5 4 5 6 6 7 7
2 3 5 5 5 6 6 8 10 8 5 6 8 7 7 4 5 3 4 5 6 7 6 6 4 3 3 2 1 1 2 4 5 5 5 4 3 4 4 4 4 4 4 4 4 4 5 5 5 6 6 7 7 8
4 5 4 5 4 4 1 2 3 3 2 3 3 3 3 3 3 4 5 5 5 5 3 3 4 3 3 3 4 4 5 4 2 2 2 3 3 3 3 4 4 4 4 4 4 4 5 5 6 6 7 8 8 9
6 8 8 5 3 3 2 2 2 3 2 2 2 2 2 2 2 3 4 4 1 2 5 4 3 4 5 4 4 3 3 2 3 2 0 3 4 3 2 4 4 4 4 4 5 5 6 6 7 8 8 9 10 11

GFSWCAN_925_spd_060.txt.gz
Wind_Speed
36 37 28 19 22 27 27 33 39 41 34 43 43 54 56 56 53 44 25 30 11 7 5 7 7 12 10 13 13 13 12 11 10 11 9 6 5 9 12 15 12 11 10 5 3 3 13 7 8 20 8 10 3 9
30 20 13 13 16 19 15 10 6 28 38 39 44 51 51 53 53 47 10 29 28 4 1 6 9 8 16 10 4 13 15 7 7 8 5 5 3 5 9 7 10 11 8 6 7 6 7 7 6 7 7 9 9 7
22 7 4 9 11 6 3 1 12 25 31 37 43 47 48 48 48 41 23 30 15 3 4 4 7 6 5 1 7 6 10 15 18 9 4 4 4 4 3 4 10 9 16 8 10 19 8 14 8 5 5 6 10 8
14 4 7 10 12 8 8 11 23 31 34 39 42 44 46 45 49 34 21 31 16 4 3 4 10 5 4 9 2 7 8 13 9 8 7 1 4 7 4 4 8 8 5 10 13 10 8 15 9 9 2 7 10 6
18 7 11 16 18 18 22 31 33 33 39 42 45 46 46 49 47 22 28 30 18 1 3 3 7 11 8 7 13 5 8 8 6 0 4 4 8 4 3 6 7 8 8 5 5 6 3 5 8 11 10 11 12 7
31 21 16 17 20 23 26 28 31 39 44 47 46 50 48 43 37 26 4 8 16 4 2 4 3 10 13 10 11 13 4 5 5 5 7 7 8 5 3 5 9 11 11 13 12 10 8 8 7 7 8 7 13 8
34 36 28 22 22 24 30 34 39 38 40 42 53 46 36 30 20 7 2 13 18 10 1 1 3 6 21 7 3 6 8 4 4 6 8 8 7 7 5 8 8 8 12 11 12 9 9 5 3 4 4 8 10 8
31 33 42 43 42 36 34 42 44 50 49 49 45 38 37 33 21 11 14 18 10 2 1 1 1 2 8 3 3 5 5 4 4 3 2 6 5 6 8 11 11 13 17 18 14 8 3 2 2 6 4 7 6 5
35 35 36 38 42 48 51 48 46 46 47 44 40 30 22 10 3 6 15 11 3 1 2 2 3 1 3 4 4 5 6 6 3 2 3 4 5 5 8 12 15 15 11 11 13 12 7 0 3 6 1 4 6 4
29 36 39 41 43 44 45 46 46 44 39 32 15 4 3 4 24 20 5 2 2 2 2 3 2 2 1 2 3 4 3 5 5 5 3 4 2 9 14 13 13 15 16 12 11 10 11 9 7 5 2 3 3 2
28 30 32 35 36 37 35 34 31 29 12 1 3 4 15 19 1 0 3 2 3 3 4 4 5 4 3 2 2 2 2 3 4 5 6 5 3 10 15 15 13 13 14 14 11 9 9 9 7 5 4 5 7 9
26 29 32 33 33 31 26 17 4 7 5 6 15 13 6 2 3 2 3 2 3 2 4 4 3 3 4 4 3 3 3 4 7 2 2 3 5 13 14 15 13 13 13 13 15 14 15 15 14 15 15 14 16 22
27 30 31 29 23 20 16 16 12 11 9 7 4 3 1 2 2 1 3 2 1 5 5 1 3 4 4 6 4 3 4 2 4 3 3 5 12 11 10 10 11 12 13 13 14 15 18 16 22 19 14 19 23 24
26 30 29 20 12 12 13 9 18 8 6 3 3 4 4 4 5 4 5 4 3 3 7 6 1 2 1 1 2 2 1 2 3 4 4 7 12 10 9 9 10 11 12 12 13 13 15 15 15 22 22 22 25 22
23 21 16 9 7 10 10 12 15 13 6 5 6 5 5 4 5 5 5 4 4 5 5 2 1 2 3 2 2 1 3 6 7 4 4 9 11 10 10 11 11 12 11 12 13 14 15 20 20 23 26 26 27 28
22 19 14 10 9 8 8 11 13 8 4 4 7 5 8 5 7 7 7 5 5 6 3 2 2 2 5 4 6 9 4 6 4 4 7 8 12 12 11 11 13 12 13 14 19 21 23 23 23 25 29 29 28 29
6 3 6 10 14 11 7 5 6 6 5 4 4 6 6 4 6 6 5 6 5 4 3 3 5 5 4 4 4 6 4 6 6 7 7 10 12 12 12 13 13 17 18 21 22 24 25 26 27 27 19 24 27 27
4 11 10 8 1 5 11 6 4 5 6 4 3 6 7 6 8 5 6 8 3 2 3 4 4 7 6 5 4 4 6 7 8 8 8 9 11 16 18 14 21 23 23 24 24 24 23 22 20 18 20 19 21 21
14 9 5 5 7 3 3 5 5 5 3 4 4 5 5 7 10 9 7 8 8 7 4 4 7 5 4 4 5 5 5 6 6 7 8 16 19 17 18 22 24 24 24 24 24 22 25 28 24 22 21 20 19 17
10 4 5 10 8 3 4 3 4 5 3 4 5 8 8 7 7 11 11 9 8 4 6 5 4 5 4 5 5 5 6 7 6 7 8 8 16 19 21 19 18 19 21 23 24 22 21 23 24 23 22 21 19 19
9 2 6 5 5 10 4 3 4 3 4 4 6 7 6 9 12 12 11 10 9 4 5 6 7 8 13 12 13 13 14 14 9 8 7 8 14 16 17 18 19 19 18 18 17 19 21 19 18 19 20 20 20 17
3 6 4 8 4 4 4 9 3 2 3 5 5 5 4 7 7 7 9 9 6 8 7 8 8 8 9 11 14 17 16 17 17 17 17 16 8 11 14 16 17 16 18 17 17 17 17 18 17 18 17 15 17 18
5 5 5 5 4 5 2 4 4 4 3 3 3 4 4 4 4 5 4 5 5 7 11 11 13 15 15 16 17 18 17 17 15 15 15 16 16 16 16 17 17 15 14 16 16 16 15 15 17 16 15 14 13 13
6 5 4 4 5 4 2 3 3 3 3 4 3 4 4 3 3 4 5 4 5 8 7 7 9 8 13 14 9 14 14 14 15 16 14 13 13 15 15 16 16 17 15 13 14 14 14 14 14 14 15 13 13 12
4 6 4 6 3 3 4 3 3 4 5 5 4 4 4 3 3 4 3 3 5 5 5 9 10 9 7 7 11 13 14 13 12 12 15 14 10 10 13 14 16 15 14 13 13 12 12 12 12 12 13 13 12 12
6 8 5 4 3 4 3 3 3 4 3 3 4 2 2 3 4 4 3 5 6 5 6 5 5 6 7 11 8 10 12 10 10 13 13 13 13 10 9 8 10 13 12 11 10 10 10 10 10 10 10 11 11 10
4 5 5 4 4 5 5 5 5 5 5 4 3 2 2 3 4 3 4 6 5 7 8 11 10 10 9 10 11 11 11 12 12 12 10 12 13 12 12 9 7 6 8 9 9 9 9 8 8 9 8 8 8 8
5 5 4 4 6 7 5 4 4 4 4 3 2 4 3 4 3 3 3 9 9 8 9 10 12 11 11 10 9 8 7 6 6 7 9 12 11 11 9 8 9 7 5 9 7 8 7 7 7 7 7 7 7 7
4 4 4 6 6 6 7 5 4 3 4 3 2 3 3 3 4 9 9 8 7 8 8 9 9 8 9 9 9 9 8 8 5 3 3 4 5 9 7 6 6 6 6 5 6 6 6 6 5 6 5 6 7 7
3 2 5 6 5 5 5 5 6 4 6 7 5 8 8 7 9 8 7 5 5 8 8 7 4 4 5 5 6 6 8 8 8 8 5 5 5 4 4 5 5 5 5 5 5 5 6 5 4 4 5 7 7 8
3 3 5 5 5 6 6 8 11 12 7 8 7 7 6 4 3 6 7 6 7 7 7 6 5 4 3 3 4 2 5 4 5 6 6 4 3 4 3 4 4 4 4 5 5 5 6 6 6 6 7 8 7 8
4 4 5 5 4 3 3 2 2 4 3 5 5 4 4 4 3 4 4 4 4 5 5 4 4 5 5 4 4 4 5 4 3 3 3 3 3 3 3 4 5 4 5 5 5 5 6 7 7 8 8 10 10 11
7 8 8 5 4 4 2 3 3 3 2 3 2 3 4 4 3 3 3 1 4 4 7 6 6 5 5 4 3 2 3 2 3 1 1 3 4 3 2 3 4 4 5 5 6 6 7 7 8 9 10 11 12 13

GFSWCAN_925_spd_063.txt.gz
Wind_Speed
35 35 38 35 29 26 26 28 33 37 40 41 44 45 50 55 54 45 24 37 15 3 12 10 6 6 8 11 11 5 6 7 3 4 7 5 4 8 6 9 6 7 6 4 3 4 6 6 7 9 1 8 7 7
33 29 22 14 17 21 22 27 31 35 39 43 43 45 49 53 54 49 12 32 33 6 1 12 15 15 6 3 3 8 7 4 4 3 2 2 2 4 7 10 5 3 6 7 8 7 9 2 3 3 13 12 5 6
23 9 4 9 13 13 14 16 20 24 32 35 44 42 46 50 52 43 19 33 25 3 1 3 6 13 12 10 5 3 3 3 5 5 3 2 4 4 3 6 7 6 8 5 5 7 12 8 2 4 9 15 15 7
11 7 8 10 8 9 6 1 3 2 17 39 38 40 47 49 52 38 27 27 21 4 3 3 8 8 18 18 13 6 4 3 3 2 3 2 3 3 4 4 5 5 10 3 3 8 4 4 7 9 4 19 17 10
10 9 12 14 16 16 15 15 14 21 33 36 37 39 44 53 50 29 23 30 26 3 3 4 9 10 14 17 13 12 8 4 1 3 2 3 4 2 3 1 4 4 5 4 4 9 6 6 6 9 14 13 11 8
9 11 15 17 19 22 21 23 25 27 34 36 39 43 44 48 42 21 4 24 17 2 2 2 1 5 5 6 6 6 4 3 2 4 3 4 3 2 2 3 3 3 1 4 4 4 6 8 6 2 3 2 4 7
20 15 18 19 21 27 30 31 34 35 36 39 40 42 47 42 27 4 4 17 32 16 2 2 2 4 8 3 1 1 3 2 3 2 4 4 4 2 1 1 9 10 10 8 9 8 7 5 3 4 5 6 7 7
28 20 24 25 23 29 33 34 39 40 42 39 40 38 35 21 18 11 22 32 13 3 3 3 1 3 4 2 1 1 2 3 2 3 3 3 1 4 2 8 14 18 16 15 15 10 6 5 5 5 5 6 7 7
34 32 38 40 42 40 35 40 47 49 45 43 43 34 14 4 4 6 20 18 13 4 3 2 3 2 5 1 0 1 3 1 3 2 2 2 0 2 7 12 13 14 13 15 15 8 10 11 8 6 6 7 7 6
32 39 40 39 43 45 45 42 40 32 24 22 17 5 3 4 24 14 5 2 2 2 3 2 1 2 2 2 2 2 3 3 2 4 1 4 3 6 12 12 11 12 14 14 9 13 10 11 8 7 9 10 10 9
31 32 33 34 34 34 31 26 23 19 13 4 3 3 9 8 3 2 3 3 1 1 2 3 3 3 2 2 2 2 2 2 3 3 6 1 3 9 10 10 11 12 12 11 9 9 11 11 11 10 12 13 13 13
33 34 31 28 23 17 12 7 4 4 2 7 15 9 3 1 1 4 2 1 2 1 1 3 3 3 2 2 1 3 2 2 3 0 4 3 5 10 10 11 11 11 11 11 13 12 12 14 12 13 13 13 14 20
28 25 24 22 18 17 21 17 15 19 14 3 3 4 2 4 5 4 1 2 2 4 4 4 0 3 3 2 2 2 2 1 2 4 4 3 8 8 9 8 9 10 12 13 14 16 19 19 22 19 13 20 22 24
17 16 16 19 18 18 19 19 7 8 11 4 4 6 4 5 4 4 4 3 2 3 5 4 1 1 2 3 1 3 2 4 4 4 4 4 8 8 8 9 9 11 12 13 13 13 15 16 18 25 25 24 26 24
12 10 15 18 17 17 19 17 14 10 7 5 5 5 4 3 3 4 5 3 3 4 4 3 1 2 3 3 4 5 4 4 5 3 2 6 9 9 10 9 10 10 10 12 13 13 15 21 22 23 26 28 30 29
10 9 17 15 14 12 11 13 17 7 4 4 6 4 4 4 4 3 2 3 3 6 3 2 3 3 4 3 4 6 3 5 3 2 5 6 10 11 10 11 11 12 13 15 19 21 22 23 23 25 29 30 30 30
5 4 16 15 19 22 10 6 8 6 4 4 3 4 3 1 2 3 3 4 3 2 2 2 5 5 3 4 4 5 4 3 5 5 6 9 10 10 11 12 16 17 17 19 22 24 24 25 27 28 20 25 29 28
4 9 5 9 7 6 12 7 4 4 6 4 3 5 4 3 5 4 3 6 4 2 3 4 3 6 5 4 3 3 5 6 6 6 6 7 10 16 18 14 20 21 22 23 25 25 23 22 19 18 22 22 24 24
9 7 3 10 6 3 3 4 5 4 4 3 3 3 3 3 7 7 6 6 5 6 3 3 6 4 3 3 3 4 5 5 6 6 8 17 19 17 17 20 22 23 23 22 22 21 23 26 23 22 22 21 19 20
3 2 2 10 6 3 4 3 6 5 2 4 4 8 7 6 7 9 10 8 8 4 6 5 4 4 4 5 5 5 6 6 6 7 8 9 18 21 22 19 19 20 21 23 25 23 22 23 24 24 24 23 23 21
6 5 8 6 4 9 3 2 4 3 5 3 2 3 4 7 12 12 11 8 8 4 5 5 6 7 14 15 16 17 17 17 9 8 7 8 14 17 18 20 20 20 19 18 17 18 20 19 17 21 23 24 22 23
2 4 4 5 4 4 4 8 3 3 3 3 3 3 3 4 4 6 8 9 6 7 5 7 7 7 8 11 15 20 19 20 19 18 18 16 7 10 12 15 15 15 16 16 16 16 18 19 20 21 17 22 22 22
3 4 5 6 5 5 2 5 4 4 3 2 3 4 3 3 3 3 4 5 4 6 10 11 14 17 15 17 17 18 16 15 13 14 15 16 17 17 17 18 16 14 14 16 16 17 17 18 18 21 21 19 19 20
5 5 5 4 5 3 2 4 3 3 4 3 3 4 4 2 2 4 4 3 3 9 4 8 11 8 13 16 9 14 15 15 16 19 12 14 13 15 17 18 20 20 16 17 18 18 17 16 16 14 18 19 18 18
6 7 4 5 3 5 4 3 4 4 4 5 4 4 2 3 3 3 3 2 3 3 3 12 11 9 6 5 11 15 17 15 13 11 18 16 13 15 15 18 19 20 18 15 15 15 15 16 14 17 16 18 16 17
6 5 4 3 3 4 2 3 3 3 3 4 3 2 3 3 4 4 2 2 2 3 5 4 5 6 7 12 7 9 13 13 15 14 15 15 17 15 12 10 10 13 15 14 14 14 13 12 15 13 14 13 13 11
4 4 3 4 2 3 4 4 4 5 5 3 2 3 3 4 3 2 3 5 3 12 14 15 14 13 10 12 12 9 11 13 13 14 12 14 15 14 11 11 9 8 7 9 8 11 11 11 9 11 10 9 8 8
4 4 5 5 5 5 4 4 4 4 3 4 3 5 3 3 2 2 2 11 14 14 14 15 17 18 17 15 11 8 7 10 12 14 16 17 14 13 11 12 8 6 7 7 6 4 5 5 6 6 7 8 7 8
3 2 4 6 5 6 7 4 3 2 3 2 3 3 2 2 3 6 12 13 12 14 14 13 12 11 11 10 9 7 7 10 5 2 4 4 8 10 7 6 7 5 8 5 7 9 8 7 6 7 5 6 5 7
2 2 4 5 5 5 4 3 4 2 3 5 4 4 4 4 11 9 8 6 10 12 11 9 8 9 10 11 10 10 10 8 10 10 6 4 5 4 2 3 3 5 5 4 4 5 6 2 4 3 3 6 8 9
3 3 4 4 4 2 2 4 13 12 5 5 5 4 3 3 5 11 11 10 10 10 10 9 8 6 7 9 7 10 5 6 7 9 9 6 3 3 4 3 6 3 4 3 3 5 7 6 6 8 8 8 8 9
3 4 4 5 3 3 2 2 2 3 2 2 2 2 1 2 2 2 4 5 4 7 7 10 12 9 4 4 6 6 6 7 6 5 4 3 2 1 1 3 3 4 6 3 3 5 6 7 7 8 9 11 11 12
5 6 4 4 3 4 2 3 2 2 3 2 2 1 2 2 3 2 5 3 7 12 13 11 8 6 7 6 4 5 4 2 0 1 2 3 4 2 1 3 4 5 4 3 4 6 7 8 8 9 10 11 13 15

GFSWCAN_925_spd_066.txt.gz
Wind_Speed
38 38 39 38 37 39 38 39 41 42 45 46 45 46 47 46 45 43 30 35 22 1 5 6 12 9 10 12 8 4 3 4 2 6 4 4 4 6 4 5 6 6 6 3 3 4 7 3 4 3 4 2 6 6
37 34 25 18 18 19 20 26 28 31 34 40 46 48 48 50 53 48 16 32 33 4 4 13 10 22 29 19 11 5 5 5 6 3 3 2 1 1 6 8 5 4 5 5 9 7 8 2 7 5 1 2 5 4
15 11 12 12 14 15 18 22 25 29 32 36 39 40 41 44 46 52 17 30 20 4 5 7 11 10 19 16 15 5 1 2 2 3 4 2 3 4 4 5 7 5 6 5 2 7 8 5 3 6 6 8 5 1
9 16 14 14 12 10 7 10 14 21 29 34 39 41 43 44 43 44 27 32 24 4 4 4 13 17 15 16 14 7 5 4 2 1 2 3 2 3 4 6 7 8 6 13 5 5 3 3 5 7 7 3 2 4
11 17 14 16 10 10 8 4 6 10 21 34 36 37 42 43 43 36 29 32 27 5 3 2 4 6 19 20 16 10 6 4 2 2 2 2 2 2 2 1 4 2 5 4 5 7 6 6 3 5 5 7 5 3
12 14 16 18 17 19 17 18 21 21 35 34 37 40 39 45 38 32 4 18 32 13 2 4 1 4 8 15 11 8 6 3 4 4 3 2 5 4 2 3 6 10 13 10 6 8 6 8 7 5 9 4 2 2
15 17 18 21 23 24 25 27 32 30 30 33 35 40 48 43 28 6 4 17 32 19 3 2 3 3 8 4 2 2 1 2 2 3 4 4 3 4 1 3 11 12 13 9 13 11 5 6 6 3 7 6 5 3
17 21 23 27 27 29 31 32 37 39 46 49 53 51 38 29 15 5 22 37 31 7 2 3 2 3 4 2 3 3 3 1 1 3 1 4 2 1 2 10 12 14 14 9 19 11 5 7 8 5 5 3 7 8
30 27 28 31 38 38 37 37 43 42 47 49 43 36 24 7 2 6 34 17 3 1 3 2 4 3 3 1 2 2 2 1 1 3 3 4 2 3 9 11 12 13 12 14 14 10 11 13 12 13 10 10 8 8
39 41 39 37 36 34 34 34 31 35 38 32 11 3 2 5 16 13 4 3 2 1 2 2 1 3 2 1 0 1 1 3 3 4 2 3 3 2 9 8 10 12 11 12 8 10 11 11 10 12 12 10 9 10
30 32 30 27 24 21 18 15 16 15 12 3 3 4 5 4 3 3 2 2 3 3 2 1 3 3 2 3 2 2 2 1 3 3 4 3 3 5 9 9 10 12 10 8 9 8 9 8 8 7 9 11 12 13
23 21 21 19 19 16 10 5 2 3 4 7 13 6 2 3 3 5 3 2 3 2 3 1 2 3 2 1 2 2 3 2 3 1 4 3 3 8 7 9 9 9 10 12 11 11 11 11 10 10 11 12 15 17
19 18 18 19 20 20 16 17 19 16 7 3 4 4 3 4 9 5 2 2 3 3 4 3 1 2 2 0 2 2 2 1 2 4 3 3 6 7 8 7 10 11 11 13 14 17 18 18 20 17 12 18 21 22
18 19 20 19 19 18 12 6 4 4 9 4 5 7 4 5 4 4 3 2 2 2 5 2 1 1 1 2 1 2 2 4 4 3 3 4 7 8 8 9 10 11 12 14 14 15 15 17 18 23 22 22 24 23
18 23 25 22 16 16 14 14 15 14 7 5 5 6 5 2 2 2 2 2 3 4 4 1 1 2 3 3 4 4 4 5 4 3 2 5 7 8 9 9 9 10 11 13 15 13 16 20 21 23 26 26 27 27
10 8 19 20 20 12 9 17 21 8 4 4 6 4 3 3 5 4 4 3 3 6 2 1 3 3 5 3 5 6 3 4 2 2 3 4 9 10 9 9 10 13 15 16 19 20 21 21 21 24 28 28 28 29
5 4 15 18 17 17 7 7 8 6 4 5 3 2 0 1 2 3 2 4 3 3 3 3 5 5 3 3 3 4 3 3 2 5 6 8 9 9 10 11 16 19 18 18 19 19 19 20 23 25 20 24 28 28
3 3 12 16 11 8 14 8 4 5 7 3 3 3 3 2 3 3 5 7 4 3 3 4 3 6 4 3 3 3 4 6 7 7 7 8 10 16 17 14 20 21 21 22 22 23 23 21 18 17 21 22 24 24
5 1 8 13 8 3 4 5 6 5 5 2 3 5 3 3 7 6 5 6 6 7 4 3 6 4 3 3 3 6 5 5 6 6 8 17 19 18 18 21 22 22 22 22 21 18 20 23 20 20 19 20 20 19
3 2 7 9 4 3 5 3 6 5 3 4 4 8 6 5 6 8 9 8 7 4 6 5 4 3 2 3 4 6 5 5 6 7 7 8 14 18 18 16 16 16 18 19 21 19 19 20 21 21 21 20 20 18
1 6 7 7 5 10 4 3 4 4 4 3 5 6 6 9 13 13 10 7 7 4 4 4 5 6 10 12 14 14 12 11 6 5 6 6 11 14 15 16 17 17 16 15 14 16 18 16 16 19 22 21 23 24
4 5 4 5 4 4 4 7 4 3 3 4 3 2 3 3 4 7 7 8 5 5 4 4 5 6 7 9 13 15 15 17 17 16 15 14 6 9 11 13 14 14 15 15 15 14 15 17 17 19 23 22 21 21
2 4 5 6 5 5 1 3 4 2 4 2 3 3 3 3 2 3 4 4 3 5 9 10 15 16 14 16 18 17 15 14 12 12 13 14 16 16 17 16 15 13 12 14 15 18 18 19 20 20 20 20 19 19
5 5 4 3 4 2 2 4 2 3 3 3 3 3 3 3 2 4 3 2 3 6 6 9 10 7 11 14 9 11 11 14 15 15 13 13 12 13 16 16 18 16 15 17 17 17 18 17 18 20 19 19 18 16
7 8 5 5 4 5 5 4 4 4 4 4 4 4 2 3 3 3 2 1 2 3 3 9 10 8 5 4 8 11 12 14 12 11 13 13 15 14 14 17 19 16 12 14 17 16 16 15 15 16 16 16 16 14
7 4 4 2 3 4 2 3 3 3 3 3 2 1 3 3 4 3 2 2 1 2 1 4 5 5 5 7 4 7 10 10 15 14 12 10 10 14 12 9 9 12 12 10 11 14 14 12 12 12 12 11 10 10
5 4 3 4 2 4 4 4 3 5 4 3 1 3 4 4 2 2 2 2 2 6 14 13 13 11 9 11 13 12 11 12 15 16 15 15 13 9 8 13 10 7 6 6 7 7 9 10 10 9 8 8 6 6
4 4 4 5 5 5 4 4 4 3 1 2 3 4 4 5 2 1 2 14 17 17 18 17 16 16 15 12 11 12 12 13 16 17 17 15 12 11 10 9 8 7 8 8 6 3 3 4 4 5 5 4 5 5
3 2 4 6 5 5 5 3 2 1 2 1 4 2 2 2 1 6 13 16 13 16 18 18 16 15 14 11 9 8 9 14 12 2 1 1 2 5 5 5 5 5 5 5 5 6 4 3 2 3 1 2 4 7
2 2 4 4 5 5 4 3 2 2 3 4 4 5 4 5 8 12 16 16 14 13 12 13 13 10 11 10 11 9 7 5 2 6 6 4 7 6 2 1 1 2 2 1 1 0 1 2 2 2 1 2 4 5
3 3 5 4 4 1 2 3 14 11 4 4 4 4 3 2 7 10 11 14 15 15 15 14 11 10 11 9 7 7 5 5 5 5 6 7 6 3 2 2 2 3 1 1 1 1 3 4 2 3 4 6 7 8
3 3 4 5 3 1 2 2 2 3 2 3 2 3 3 3 2 1 2 7 10 10 10 10 10 6 3 3 4 4 3 7 7 5 3 3 2 3 3 3 2 2 2 2 2 1 2 3 4 5 7 8 8 9
4 5 4 4 3 2 3 3 3 3 4 2 1 2 2 3 3 3 2 1 4 11 11 11 7 5 4 4 4 5 5 3 3 2 2 1 1 2 4 5 5 5 5 4 4 4 3 4 5 6 9 11 11 12

GFSWCAN_925_spd_069.txt.gz
Wind_Speed
42 43 28 31 38 36 37 36 36 39 37 36 37 37 37 38 39 38 15 31 13 2 2 2 14 7 9 12 6 5 3 2 3 6 4 4 3 5 6 5 7 7 7 4 3 3 7 1 5 4 8 6 1 4
34 17 19 18 16 14 24 35 36 40 42 41 41 39 39 40 40 39 10 31 28 2 1 4 7 8 25 22 10 7 7 5 6 3 2 1 2 1 4 3 3 4 5 4 7 6 5 5 6 14 15 11 3 3
15 19 20 17 16 14 15 20 24 24 37 38 42 45 42 41 41 42 21 26 21 3 1 2 6 16 16 26 30 5 2 4 3 3 4 2 4 3 3 5 5 4 4 5 2 8 13 15 8 10 11 12 3 5
15 21 18 17 12 11 10 11 20 24 29 32 35 41 45 45 42 44 25 28 19 3 2 4 16 9 17 19 32 17 7 4 5 3 2 2 2 3 4 4 5 6 5 8 13 14 9 10 8 10 8 7 7 7
15 16 17 15 15 11 10 8 14 20 26 32 35 36 39 44 44 43 22 36 29 6 5 3 1 13 21 15 19 20 10 5 2 2 2 2 2 1 2 1 2 3 0 2 4 6 6 15 8 5 6 7 9 8
14 15 16 16 16 16 10 8 4 17 29 31 34 35 38 35 38 29 3 24 30 12 2 1 2 3 10 19 9 6 4 3 3 3 2 2 4 2 3 4 3 4 4 4 5 16 19 18 10 6 7 4 3 1
14 17 20 20 21 26 16 16 20 20 33 32 36 37 40 44 42 7 5 18 32 16 2 2 3 2 9 5 3 2 1 3 3 3 4 3 4 9 1 0 7 8 9 6 11 16 5 11 8 12 7 8 7 9
20 25 25 26 26 33 30 26 32 35 36 36 36 37 45 41 23 2 5 40 35 9 2 3 2 4 3 3 2 2 2 2 1 3 1 3 0 2 1 5 7 9 11 7 12 10 8 8 10 13 12 10 12 11
23 28 29 31 34 33 40 48 44 50 49 47 46 41 29 8 3 8 31 34 21 5 3 2 2 3 0 3 3 2 2 2 1 2 2 3 2 3 5 7 8 10 9 11 14 7 10 9 9 11 12 14 10 10
28 22 27 26 29 32 31 36 38 35 35 29 18 6 2 7 39 31 6 3 3 3 1 2 1 3 3 2 2 3 0 3 3 5 3 3 3 6 7 8 8 8 10 10 9 7 10 9 10 11 13 10 9 9
26 26 19 17 17 18 18 11 14 23 6 2 2 3 11 15 5 2 2 2 1 3 3 2 2 3 1 3 4 2 2 1 2 3 3 2 2 4 6 7 9 9 9 8 7 8 9 9 7 7 11 11 10 11
21 22 23 19 11 13 11 4 1 4 7 7 13 7 5 2 2 4 2 2 4 2 3 2 2 2 2 2 3 2 2 3 4 2 4 2 3 7 8 9 11 10 9 10 10 10 10 11 12 11 11 11 13 17
18 19 19 18 17 13 13 12 10 7 4 5 5 5 4 4 10 5 3 3 3 2 3 3 2 2 2 2 2 2 4 1 3 4 3 2 6 6 6 6 8 9 10 12 12 16 18 18 20 18 13 17 20 21
23 22 20 18 13 8 14 9 5 4 10 5 5 7 4 5 4 3 3 2 2 1 3 1 0 1 1 2 1 1 3 4 4 3 2 3 5 6 6 7 8 9 10 11 12 15 15 17 19 22 22 22 23 23
16 18 24 21 12 13 9 12 18 14 7 5 5 5 4 3 2 3 3 1 3 4 2 1 2 3 4 4 4 3 4 5 4 2 2 4 6 7 8 7 7 7 8 10 12 11 15 19 20 23 25 25 26 27
8 8 21 20 14 7 8 15 21 7 4 4 7 4 3 3 5 4 4 3 3 5 1 2 3 3 4 3 4 5 3 3 2 2 4 5 8 9 9 9 8 10 11 14 17 18 20 21 21 23 28 29 29 30
6 5 13 18 19 14 9 8 9 6 4 5 3 2 1 1 2 3 3 5 4 3 3 3 5 5 3 3 3 4 3 3 5 5 6 9 10 9 10 11 15 18 19 20 18 19 20 21 23 26 20 25 29 28
3 6 10 15 9 9 17 8 4 5 7 4 3 5 3 1 3 3 4 6 3 2 3 4 3 6 4 3 3 3 4 5 5 6 6 7 9 13 15 13 17 17 16 18 19 20 20 19 18 17 20 21 24 23
4 8 12 12 5 5 4 5 6 5 5 2 2 3 2 1 5 4 4 5 6 6 4 3 5 3 2 2 4 4 2 2 3 4 5 12 12 12 13 15 17 18 19 18 17 16 18 21 19 18 18 19 18 17
2 7 11 9 4 4 5 3 6 5 3 2 2 6 4 3 4 3 7 7 5 4 6 4 3 1 1 2 3 4 3 2 5 5 5 6 11 14 14 13 13 14 15 17 19 18 17 20 21 21 20 19 19 17
5 8 8 8 6 10 4 3 4 3 5 3 4 3 4 7 10 7 6 6 6 4 4 3 3 5 11 13 13 13 11 10 6 4 4 5 10 12 13 15 16 16 15 14 13 15 17 15 15 19 23 23 22 21
5 6 4 8 5 5 4 8 5 4 3 3 2 2 3 3 3 5 4 6 4 4 3 4 5 6 8 9 12 15 15 17 16 15 14 11 5 7 10 12 12 12 14 13 12 12 12 14 18 20 22 21 20 19
2 4 5 6 6 5 0 2 4 2 4 2 2 3 3 3 2 3 3 4 3 5 8 9 13 17 14 15 16 17 15 14 11 11 12 12 14 15 15 15 13 12 10 12 14 15 15 15 16 18 19 20 20 21
5 5 4 4 4 2 2 4 3 3 3 3 3 3 3 2 2 4 4 2 2 4 5 7 8 6 9 12 7 10 10 12 13 14 12 12 11 11 13 13 13 12 12 13 14 15 15 15 14 15 15 16 15 15
6 7 5 5 4 5 5 4 4 4 4 3 3 3 1 2 3 3 2 1 1 2 2 8 8 7 4 2 6 8 6 8 10 9 9 11 14 12 12 12 11 9 9 13 14 14 14 13 13 13 11 11 12 10
6 4 4 1 2 4 1 3 3 3 3 3 2 2 3 3 4 2 2 3 1 1 2 4 5 4 3 5 3 4 6 9 13 10 5 5 7 11 10 8 6 7 6 6 8 10 10 10 10 10 11 9 7 6
5 4 3 4 2 4 4 4 3 4 4 3 0 3 3 4 2 2 2 2 2 3 8 10 11 10 9 10 10 8 7 8 9 13 12 10 7 6 5 9 8 6 5 3 3 4 8 8 7 7 7 5 4 4
3 4 5 5 5 4 5 4 3 2 1 2 3 4 4 6 3 2 2 10 18 17 16 15 16 17 17 15 15 15 16 16 18 16 15 14 11 9 8 8 8 7 6 5 4 3 3 3 4 3 2 2 3 3
4 2 4 6 5 5 5 2 2 1 2 2 4 2 2 2 1 4 11 18 18 19 19 18 16 14 13 11 9 8 12 11 9 3 2 1 0 3 4 3 3 3 3 3 3 3 2 2 1 1 1 1 3 4
2 2 4 4 5 4 3 1 1 2 3 3 3 4 3 5 8 13 16 14 14 15 15 16 16 12 12 10 10 7 5 8 12 12 4 5 6 6 4 2 1 1 1 0 2 3 3 3 3 5 4 4 6 6
2 3 4 4 4 1 3 1 7 8 3 4 4 4 3 2 6 5 10 11 11 13 15 15 10 7 7 8 5 6 3 1 2 3 3 5 6 3 2 2 1 2 2 3 4 3 1 2 2 3 4 6 8 9
3 3 4 5 2 1 2 2 2 3 3 3 3 2 4 4 2 3 3 9 12 12 11 11 10 8 5 3 2 1 1 4 4 3 3 2 0 1 2 2 3 4 4 5 4 5 5 5 5 6 8 8 10 11
4 4 4 4 3 1 2 4 4 3 4 3 2 1 2 4 4 4 2 3 8 8 8 7 4 5 5 6 6 6 6 5 3 2 1 1 2 2 3 5 6 7 7 7 6 6 6 7 7 8 10 12 12 12

GFSWCAN_925_spd_072.txt.gz
Wind_Speed
39 43 30 22 24 26 23 35 38 36 34 33 31 31 31 40 39 38 24 37 13 2 0 5 8 10 8 10 7 5 4 2 3 7 3 4 3 5 5 4 6 5 5 3 4 3 8 5 0 3 5 5 4 10
38 27 22 25 23 21 21 17 34 36 34 35 33 32 30 31 40 40 6 29 22 2 2 1 5 10 26 26 11 11 8 6 6 4 3 3 2 0 5 3 3 3 6 5 8 7 4 2 1 5 6 4 4 5
27 22 24 22 21 18 16 17 19 31 35 36 37 34 33 29 34 37 12 26 12 3 2 1 3 14 12 8 17 6 3 5 4 4 4 3 3 4 3 5 5 3 4 4 2 2 9 9 3 6 9 11 10 12
21 19 20 18 18 17 14 13 15 21 28 38 36 38 36 36 34 28 15 20 14 3 1 3 13 11 17 11 10 14 4 3 4 2 2 3 2 3 3 4 5 5 2 4 10 7 8 7 6 13 16 15 14 13
18 18 18 18 18 18 14 14 14 16 27 25 40 44 39 35 34 29 17 25 15 4 2 2 4 12 25 23 14 15 6 4 2 2 1 2 2 1 1 2 3 1 3 4 5 3 5 7 9 19 15 16 9 11
17 18 18 20 19 13 10 4 8 19 24 28 32 38 41 38 37 26 4 22 30 15 3 1 3 3 18 11 10 12 10 3 2 3 2 2 2 1 1 2 4 3 6 6 5 10 11 13 9 14 12 15 12 11
20 21 23 25 18 16 12 8 11 24 27 33 33 35 41 41 36 5 3 15 30 16 2 2 2 4 12 6 2 3 2 3 2 3 3 3 3 4 1 3 2 6 7 10 8 11 4 9 7 12 13 12 10 11
22 26 30 37 28 30 29 28 29 31 31 34 36 34 37 40 22 3 3 36 31 9 1 1 3 3 7 3 2 1 2 2 2 3 2 3 1 3 2 5 7 8 12 6 10 10 7 6 8 10 11 12 11 12
22 27 26 36 40 38 37 31 35 34 35 34 46 45 30 9 3 6 29 28 13 4 4 2 1 1 3 2 3 2 2 1 1 1 2 3 1 1 5 6 8 10 9 12 13 11 7 10 10 12 13 13 11 12
19 20 24 25 29 34 38 36 39 40 43 35 22 3 3 7 43 28 7 2 2 1 2 2 1 1 2 3 2 3 1 2 3 4 3 3 2 4 6 7 7 9 11 11 10 7 10 8 8 9 11 10 10 9
18 16 16 21 21 13 13 20 13 13 11 5 2 3 29 24 6 3 3 2 2 2 2 1 0 3 3 4 3 1 3 2 1 2 3 2 2 3 6 7 9 9 10 9 8 6 6 6 6 8 9 10 9 10
20 20 16 12 17 22 14 16 22 21 12 12 12 11 6 5 4 3 2 2 2 2 3 2 3 3 2 3 3 1 3 2 2 2 3 2 3 6 8 8 9 9 9 9 10 8 8 9 9 9 9 10 13 15
17 16 17 16 16 16 14 11 9 12 18 8 6 5 4 4 8 5 4 3 3 3 4 3 3 2 2 3 3 2 3 1 3 3 2 2 5 6 7 7 8 9 10 10 10 12 14 15 17 16 13 17 17 19
17 19 16 15 18 15 11 6 3 7 10 4 4 7 4 5 4 3 2 1 2 1 3 2 2 3 2 3 2 2 3 3 3 3 2 3 6 6 7 7 8 9 8 9 9 13 14 16 17 21 22 20 22 22
12 20 21 17 11 16 16 16 12 12 7 5 5 5 4 2 2 3 3 2 4 4 2 1 3 3 4 4 4 3 4 4 3 2 2 4 7 9 9 9 8 8 8 10 13 12 16 19 20 22 22 23 24 24
4 5 21 20 12 8 5 13 19 7 4 4 6 4 2 2 4 3 3 2 3 5 1 3 3 3 5 3 4 5 3 3 2 1 2 4 7 7 8 9 10 13 13 15 17 18 20 20 20 21 25 26 26 25
6 4 12 15 19 15 10 8 9 6 4 5 3 1 1 1 2 3 3 4 4 2 3 3 5 5 3 3 3 4 2 1 2 2 2 4 4 5 7 9 12 14 15 16 16 19 19 19 21 23 20 22 25 25
4 6 11 11 3 5 10 10 5 5 7 4 3 4 2 1 3 3 5 6 3 2 2 3 3 5 3 2 2 2 2 2 3 3 4 5 7 10 12 11 14 14 15 16 16 17 18 18 17 16 17 18 20 19
4 10 12 6 6 5 4 5 6 5 4 1 2 2 1 2 2 3 4 4 6 6 4 3 5 3 2 2 3 3 2 2 2 3 5 12 13 12 13 15 16 16 16 15 15 15 17 19 16 14 14 14 15 14
5 8 8 6 5 4 5 3 6 5 3 2 1 4 2 1 3 2 7 6 5 3 6 5 2 0 1 2 3 4 3 3 4 5 5 6 11 14 14 12 11 11 13 14 17 14 14 17 18 17 17 16 17 15
5 8 9 14 6 11 4 3 4 3 4 3 2 2 2 3 6 6 5 6 6 4 3 3 3 5 10 12 12 11 9 8 4 3 2 4 9 11 12 13 13 13 12 11 11 13 14 13 12 16 20 20 19 18
4 5 3 7 5 4 4 7 5 4 3 3 1 3 3 2 3 5 3 7 4 3 3 2 3 5 6 6 10 12 12 15 14 13 13 10 4 6 9 10 10 10 11 10 11 12 12 13 15 17 18 18 18 18
3 3 5 7 6 5 2 1 4 2 4 2 2 3 3 3 2 2 3 3 3 4 6 6 10 14 13 14 15 15 13 13 11 10 11 11 13 13 14 14 13 14 12 11 11 14 15 14 15 17 17 17 18 17
5 5 5 4 4 2 2 4 3 3 3 3 3 3 3 1 1 3 3 2 2 4 4 6 7 5 7 9 5 8 9 13 13 13 11 12 10 10 13 13 12 11 10 10 11 12 12 13 12 13 12 14 13 12
6 7 5 5 4 5 5 4 4 4 3 2 3 2 1 2 3 3 2 1 1 1 2 6 8 6 3 2 4 7 7 7 9 8 8 9 13 11 10 10 10 8 7 9 11 10 10 9 9 9 9 8 8 7
7 4 4 2 2 4 2 4 2 3 3 3 2 1 3 3 4 1 1 3 2 2 2 4 4 2 3 4 2 4 5 6 7 8 5 3 2 4 7 5 4 5 4 3 6 8 8 7 7 6 6 5 3 1
5 4 3 4 2 4 4 4 3 4 4 3 1 3 3 4 1 2 1 1 2 3 5 6 5 7 7 8 8 6 5 4 5 9 7 6 4 3 2 4 5 3 3 3 2 2 4 5 4 4 4 3 1 1
3 4 4 4 5 4 5 3 3 2 1 1 3 4 4 6 3 1 1 4 16 15 13 11 11 13 13 12 12 14 15 15 15 14 12 11 8 7 6 6 6 4 2 3 3 3 3 2 2 2 1 1 1 3
3 2 4 5 5 5 5 3 1 2 3 2 4 2 2 2 1 3 7 16 16 18 18 16 14 13 13 12 9 6 11 10 5 4 3 2 2 2 3 2 2 2 2 2 2 2 1 0 1 2 3 3 5 6
2 2 4 4 5 5 3 1 1 2 3 3 3 4 3 4 7 11 15 13 13 14 14 14 15 9 9 7 7 7 8 9 10 9 3 4 4 6 5 2 1 2 2 1 2 3 4 4 5 5 7 7 8 8
2 3 4 4 4 1 3 1 3 7 3 4 3 4 3 1 5 5 5 7 11 13 14 13 9 6 5 6 4 4 3 2 1 3 4 5 6 4 2 0 1 1 2 3 4 4 4 4 4 4 5 7 8 10
3 3 4 5 2 2 2 2 2 3 3 3 3 2 3 3 2 3 2 9 12 11 8 8 7 4 4 3 3 2 1 6 6 6 5 4 3 1 0 1 2 3 5 5 5 5 6 7 8 9 10 11 12 14
3 3 4 4 3 1 2 4 4 3 3 3 2 1 1 3 4 3 3 5 6 5 4 6 5 5 5 5 5 6 7 6 5 4 3 3 3 3 3 3 4 5 5 6 6 5 5 7 8 10 12 13 14 14

GFSWCAN_925_spd_075.txt.gz
Wind_Speed
38 41 43 38 30 26 27 26 25 28 30 38 35 34 37 40 42 41 30 37 20 2 3 12 11 10 9 11 6 7 4 4 4 6 4 3 3 4 3 2 4 7 6 5 5 4 8 0 2 1 6 4 7 12
41 41 30 26 25 25 25 24 26 26 23 37 35 35 32 42 42 42 13 33 33 4 1 5 11 15 31 25 10 10 5 6 6 3 4 3 4 1 5 3 2 4 6 4 8 6 2 3 4 8 7 12 13 16
37 25 24 23 23 21 21 20 20 20 19 33 34 35 31 30 37 41 17 32 19 3 1 1 5 12 10 22 21 6 6 4 5 3 3 3 3 4 4 5 3 3 3 3 0 3 7 5 3 11 13 14 16 16
22 20 21 22 23 23 23 21 18 17 24 31 34 35 32 29 25 33 23 28 15 3 2 3 11 5 22 11 16 16 4 6 2 2 1 2 2 3 3 1 3 2 3 3 5 7 11 5 11 15 17 14 17 20
19 21 23 25 23 21 20 15 17 16 18 31 35 35 33 28 28 30 25 24 21 4 3 3 4 10 20 22 12 6 8 6 4 3 1 2 1 2 0 0 3 3 3 3 5 2 3 8 13 13 14 14 15 15
19 22 21 22 21 18 14 11 11 17 16 32 35 37 33 30 39 23 4 20 18 7 2 3 2 3 19 19 19 10 6 9 5 3 2 3 3 2 2 2 1 2 4 4 1 7 7 7 8 11 10 13 12 11
21 26 29 26 25 21 16 13 14 17 23 29 39 39 37 38 29 3 3 16 32 8 2 1 1 1 10 6 3 5 5 2 4 2 3 2 2 4 2 4 3 6 8 8 6 8 3 2 5 9 9 11 9 8
18 26 30 38 37 26 21 20 20 24 27 30 46 39 41 36 21 3 8 26 28 7 2 2 2 1 6 3 3 2 3 3 3 2 1 3 3 2 3 4 6 10 11 4 12 10 9 10 5 8 7 10 11 12
14 18 17 29 39 37 28 25 28 32 32 40 44 42 28 7 2 7 26 22 7 4 4 3 3 2 3 2 3 3 5 3 3 3 3 3 3 1 6 7 9 10 8 11 13 11 8 7 8 8 8 10 8 8
14 20 24 17 25 36 40 38 36 41 44 41 27 5 3 6 34 23 6 2 1 1 1 2 1 3 1 2 2 3 1 3 2 1 3 2 3 9 9 8 8 9 10 11 10 9 11 9 8 6 7 6 6 7
16 14 16 23 19 25 23 23 25 27 18 6 2 4 30 22 5 2 3 2 2 3 1 1 1 2 0 3 2 2 2 2 3 2 2 2 3 5 9 8 8 9 9 8 8 7 7 6 6 6 7 8 9 11
17 14 17 20 21 25 23 16 14 17 11 10 17 15 6 5 3 4 2 2 2 2 2 1 2 1 2 1 3 1 2 1 2 3 3 2 3 7 9 9 10 10 9 9 11 9 8 9 10 9 9 9 15 16
16 15 16 15 15 14 19 22 22 19 20 10 6 4 3 5 8 4 3 3 3 4 4 3 3 2 1 3 3 2 3 2 2 3 3 3 6 7 8 7 9 10 11 11 11 13 14 16 18 16 15 17 19 20
19 15 14 18 15 15 15 12 8 7 13 5 5 7 4 4 4 3 2 2 2 3 4 2 2 3 3 4 3 4 3 3 3 2 2 3 6 7 7 6 7 9 11 11 12 15 16 18 18 20 21 20 22 22
13 20 15 13 14 17 16 13 9 11 7 4 5 5 4 1 1 2 2 2 3 4 2 0 3 3 4 4 3 3 3 4 3 2 2 2 4 5 6 8 8 8 8 10 13 13 15 17 19 21 22 22 23 23
3 7 19 15 9 9 9 16 16 6 4 4 6 3 2 2 4 3 4 3 5 5 1 3 3 4 6 3 5 4 2 2 2 1 1 2 4 5 5 7 8 11 12 14 16 16 17 17 18 21 23 24 24 25
5 4 8 7 15 16 9 7 7 6 4 4 3 2 2 2 1 3 3 4 4 3 3 3 5 4 3 3 3 3 2 2 3 3 4 6 6 6 6 9 10 12 14 15 16 16 17 17 19 21 19 20 22 23
4 8 8 3 4 7 7 10 5 5 7 4 4 3 2 1 2 2 3 3 2 2 2 3 3 4 3 3 2 2 3 5 5 5 6 6 9 11 11 11 12 13 14 15 15 16 16 15 16 15 16 15 17 17
5 9 6 9 7 6 4 6 6 5 4 1 1 1 1 1 1 3 4 4 6 6 4 3 5 3 3 3 4 5 4 3 3 4 6 11 11 11 11 12 13 14 15 14 14 14 14 16 14 12 12 12 14 13
6 9 8 6 5 5 5 3 5 5 3 2 1 2 2 1 3 3 6 6 5 3 6 5 3 1 1 2 3 4 5 5 6 6 5 6 9 11 12 10 10 10 12 13 14 13 13 14 15 13 12 12 13 12
5 7 8 9 7 11 4 3 4 3 4 2 1 1 2 2 4 4 5 5 5 4 4 4 4 5 10 10 10 9 7 6 3 2 3 4 7 9 9 9 10 10 11 10 11 12 13 12 10 10 12 13 13 13
3 6 4 6 5 4 4 5 4 4 3 3 2 2 3 2 3 4 2 7 4 4 3 2 3 4 6 6 9 11 10 12 12 12 10 7 3 5 7 7 8 9 10 9 9 10 10 9 11 14 16 16 16 15
4 4 5 5 6 5 3 3 3 2 3 2 2 3 3 2 2 3 4 4 3 4 5 6 9 12 13 11 12 12 11 11 10 10 10 10 10 10 10 10 9 9 9 8 8 10 12 13 13 15 15 15 15 14
5 5 5 3 4 3 2 3 2 3 3 3 3 3 2 1 1 3 4 2 1 4 5 7 8 6 8 9 6 9 9 10 12 10 7 9 9 9 8 8 10 10 8 8 9 11 11 11 11 11 11 11 10 10
6 7 4 5 3 5 4 3 3 4 3 2 3 2 1 2 3 3 2 2 1 1 1 3 5 5 4 3 5 6 6 6 8 8 6 7 9 8 7 7 8 8 7 8 9 9 8 8 8 7 7 6 6 5
7 4 4 2 3 4 1 4 2 3 3 3 2 1 2 3 4 2 2 3 2 2 3 4 5 4 4 5 4 4 5 7 6 7 4 3 3 4 5 4 3 4 5 5 7 7 6 6 5 5 5 4 2 1
5 4 3 4 2 4 4 3 3 4 4 3 2 2 3 4 2 1 2 1 2 4 7 7 5 7 8 8 9 8 6 6 8 9 8 7 6 4 2 2 3 3 3 3 2 2 3 4 3 3 2 1 0 1
3 4 5 4 5 4 5 3 3 2 2 2 3 4 4 4 3 1 1 4 17 16 15 15 14 14 14 13 13 15 15 15 15 12 11 10 8 8 7 7 6 5 3 3 2 2 2 1 2 2 2 2 2 3
4 2 4 6 5 5 5 3 2 2 2 2 3 2 3 2 1 2 5 14 16 18 19 17 15 15 15 11 7 9 12 7 5 4 3 2 3 0 3 3 3 3 3 3 2 2 1 0 2 4 4 4 5 6
2 2 4 4 5 5 2 1 1 1 2 2 2 3 3 3 6 11 13 12 11 13 14 15 14 8 8 5 6 6 6 4 5 3 1 1 2 4 4 2 2 1 1 1 1 2 3 4 5 5 5 6 7 8
2 3 4 4 4 1 1 2 1 4 3 4 4 4 3 2 5 8 5 6 11 14 15 12 8 7 6 7 3 3 1 1 1 2 3 4 5 4 2 1 1 1 1 2 3 3 4 4 4 5 6 7 8 10
3 3 4 5 2 2 2 2 2 3 3 3 3 2 3 3 2 3 3 7 11 11 8 8 5 2 5 1 1 2 2 6 6 5 4 3 2 1 1 1 2 2 3 4 4 3 4 5 6 7 9 9 10 11
3 3 4 4 3 1 2 3 4 3 3 3 2 0 1 2 4 3 3 7 7 4 5 8 6 6 6 6 6 8 8 6 4 4 3 2 2 2 2 1 2 2 3 3 3 4 4 5 7 8 9 11 11 12

GFSWCAN_925_spd_078.txt.gz
Wind_Speed
40 38 38 40 33 28 27 24 26 27 28 29 31 39 40 44 47 50 33 34 27 5 10 16 16 14 14 14 9 6 4 4 4 7 5 4 5 6 5 3 8 10 9 7 9 7 9 3 3 3 9 10 11 13
38 38 33 27 26 24 24 24 26 27 26 26 27 30 40 40 43 50 20 30 36 7 4 16 19 22 23 22 9 11 7 7 7 7 6 4 4 2 7 4 5 5 6 4 6 6 4 2 6 7 8 8 9 14
37 25 25 25 25 25 25 23 22 22 22 26 26 29 40 39 39 49 20 35 26 8 4 7 5 14 17 22 23 6 6 6 6 4 3 4 4 6 6 8 7 5 6 5 3 6 6 4 4 8 9 10 10 11
24 22 23 23 23 22 24 25 24 23 20 20 21 36 39 37 37 45 24 36 25 3 4 4 14 8 10 21 23 27 8 11 5 3 4 4 5 4 6 4 6 3 4 5 10 11 9 6 8 12 13 11 12 12
16 22 24 26 26 25 23 20 21 19 19 18 22 33 36 32 33 38 26 31 35 5 3 4 7 13 22 18 25 25 9 8 4 4 2 5 3 3 3 2 7 6 7 7 8 6 4 6 11 9 13 14 13 12
16 22 28 30 30 23 18 15 15 17 19 23 28 36 33 29 34 31 3 22 31 16 2 3 1 11 19 22 15 11 10 4 2 2 2 3 3 2 3 5 5 6 7 8 5 10 10 12 10 9 11 13 12 10
15 26 26 34 29 25 9 11 13 17 20 21 39 36 34 36 30 5 3 21 27 18 3 2 3 3 16 13 7 7 7 3 4 2 3 4 4 5 3 5 8 7 7 8 10 11 6 9 8 10 11 12 10 9
16 25 21 32 29 21 19 17 16 20 33 39 42 41 42 26 17 7 26 40 24 6 2 3 3 5 12 6 5 4 3 4 3 3 2 5 3 3 3 6 7 9 8 5 11 9 8 9 7 8 9 9 7 7
15 22 17 25 26 20 20 19 24 34 41 46 45 40 21 5 2 8 35 22 8 2 3 3 5 5 6 3 3 2 1 1 1 3 4 3 3 1 6 7 8 10 9 11 12 11 5 7 8 6 7 8 7 7
11 18 13 20 31 28 23 26 41 49 49 48 28 4 3 7 40 31 6 2 1 1 1 3 2 3 4 2 3 4 2 3 3 3 3 2 3 8 8 7 7 8 9 10 10 9 11 10 8 6 7 6 6 7
9 14 17 19 25 35 39 44 45 40 30 6 2 3 30 26 4 2 3 3 3 3 2 1 1 2 1 3 4 2 2 3 3 2 1 2 3 5 7 7 7 7 7 7 7 6 6 6 6 4 5 7 10 11
11 14 14 18 23 24 23 23 16 10 3 9 17 14 6 3 2 3 3 3 1 3 2 1 2 1 2 3 3 2 2 1 3 2 2 3 3 6 7 8 8 8 7 5 7 6 6 7 7 7 8 9 14 16
11 12 13 16 20 22 25 27 32 37 30 11 5 4 2 4 5 2 4 3 3 2 2 0 3 1 2 2 3 1 2 4 1 2 2 3 5 6 7 6 6 7 8 7 7 9 10 11 12 11 13 15 16 19
10 10 15 18 17 15 14 14 13 5 9 5 4 6 4 4 4 3 3 2 2 2 3 2 3 3 2 3 2 3 2 2 3 3 3 3 5 5 6 6 6 7 8 9 9 12 13 14 16 18 17 16 18 20
15 9 7 10 13 11 9 8 8 10 6 5 5 5 5 2 3 3 2 1 3 4 3 2 3 3 4 4 3 3 2 4 3 3 3 4 5 5 6 7 7 7 7 8 10 12 13 15 17 19 19 19 19 19
3 8 12 4 5 11 14 12 13 6 4 4 7 3 3 1 4 3 5 3 5 5 1 2 3 4 5 3 4 4 2 3 3 3 4 4 6 6 7 8 9 10 11 12 13 14 16 16 17 19 20 20 20 20
6 3 3 8 8 7 7 7 7 6 5 4 4 4 3 3 4 4 4 6 6 3 3 3 4 5 2 3 3 3 3 5 5 5 5 7 7 7 7 9 10 11 12 13 14 15 15 14 15 17 18 17 19 19
4 1 3 10 5 7 6 8 5 5 6 5 4 4 6 4 3 5 5 6 3 2 3 4 3 3 3 3 3 3 4 6 6 6 5 6 8 9 9 9 10 10 11 12 12 13 12 12 13 13 13 13 15 15
4 6 9 8 4 6 4 5 5 5 5 3 3 3 3 4 6 5 6 6 9 8 3 3 5 3 3 4 7 6 5 4 5 5 6 8 8 9 9 9 10 11 11 10 10 11 12 13 11 10 9 10 12 11
8 10 7 6 4 4 5 4 4 5 3 3 3 5 3 3 4 6 8 8 7 3 6 5 4 4 4 5 4 5 5 5 5 5 5 5 7 7 8 7 7 8 9 10 10 8 10 11 11 10 10 9 10 10
11 9 6 4 5 10 4 3 4 3 5 4 4 3 4 5 4 5 5 5 5 4 4 4 5 6 10 10 9 8 6 3 3 2 4 4 5 6 6 7 7 7 7 7 8 9 9 9 8 8 9 10 10 11
4 5 3 6 4 4 4 6 5 5 3 4 3 3 3 3 3 5 3 7 4 5 3 4 5 5 6 8 10 10 9 10 11 11 10 6 3 5 6 6 5 7 8 7 7 8 8 8 8 8 9 10 9 9
4 3 5 4 5 4 5 2 3 3 3 4 3 3 3 3 3 2 4 4 3 4 7 8 10 12 12 11 11 11 9 8 9 9 8 8 8 7 7 7 6 5 6 7 6 7 8 8 9 9 9 8 8 8
5 6 5 3 4 4 3 2 3 3 3 2 3 3 3 2 2 3 4 3 3 6 6 7 7 6 8 8 6 8 8 8 9 8 6 5 6 7 6 6 6 6 5 5 6 7 7 7 7 7 7 7 6 5
4 6 3 5 3 4 4 3 3 3 3 2 3 3 2 1 3 3 3 4 5 4 4 4 3 4 4 4 6 6 5 4 5 6 6 6 6 5 5 5 6 5 4 4 4 5 5 4 4 4 4 4 4 3
6 6 4 2 2 3 3 4 3 4 4 3 3 3 1 2 3 4 3 6 5 4 4 4 4 4 4 4 4 4 4 4 3 4 4 2 1 0 2 3 3 2 2 3 4 4 4 3 3 3 2 2 1 0
4 3 3 3 2 4 5 4 3 4 4 3 4 3 2 3 3 2 4 3 4 6 7 6 4 5 7 7 7 5 4 3 3 5 5 3 3 2 1 1 1 2 3 2 2 3 4 4 4 3 3 2 1 1
4 5 4 4 5 5 4 4 3 3 3 2 3 3 3 2 3 3 3 6 11 11 10 9 9 9 9 9 9 10 9 10 10 8 7 6 5 5 5 5 5 4 3 3 2 2 3 3 3 3 2 1 1 2
4 2 4 5 5 6 6 4 3 3 2 1 3 3 3 3 3 5 9 11 11 12 12 12 10 11 10 8 6 7 7 3 1 1 1 1 2 2 2 3 3 3 3 2 2 2 1 1 1 1 2 3 4 5
3 3 4 5 5 5 4 4 3 2 3 4 4 5 5 4 8 8 10 9 8 9 9 10 10 7 7 5 6 4 3 1 1 1 1 1 2 3 3 2 2 1 1 0 1 2 2 2 3 4 3 4 5 6
2 3 5 5 5 5 5 4 9 7 4 6 8 9 7 4 5 6 4 5 8 10 11 8 7 6 6 5 3 3 3 1 0 1 3 3 5 4 2 1 0 0 0 1 2 3 3 3 4 4 5 6 6 7
3 3 5 5 5 5 1 1 3 3 3 3 3 2 3 3 3 3 2 5 7 7 6 6 5 5 5 3 3 3 4 6 6 5 4 3 3 2 1 1 1 2 2 3 3 3 4 4 5 5 6 7 8 8
4 5 6 6 4 6 4 3 3 4 3 2 2 2 2 2 3 3 4 7 4 4 5 6 5 7 6 5 6 8 7 6 5 4 4 3 3 2 2 2 2 2 2 2 2 3 3 4 5 6 7 8 9 9

GFSWCAN_925_spd_081.txt.gz
Wind_Speed
37 39 38 37 33 29 27 26 26 26 26 27 25 30 38 43 49 49 39 32 27 9 13 15 19 13 14 9 4 5 5 4 2 6 5 5 4 5 7 3 10 11 9 7 8 5 14 8 6 7 7 4 8 9
39 36 37 30 27 26 26 25 25 25 25 27 28 28 32 41 45 51 19 36 34 11 6 19 26 23 20 16 8 9 7 8 8 7 6 4 4 3 8 5 10 6 10 8 11 8 5 8 8 3 7 7 9 11
36 34 24 24 24 24 24 26 26 25 25 26 28 29 29 35 50 50 25 35 23 10 10 13 13 16 24 18 14 4 3 6 5 10 2 3 6 5 5 9 6 8 11 6 3 8 7 8 1 10 9 8 10 11
30 20 20 22 25 27 29 28 27 26 27 26 25 26 26 30 46 47 26 36 24 4 5 9 22 30 13 18 21 18 10 9 10 4 4 3 4 5 6 7 9 2 6 8 9 12 8 11 11 10 10 11 11 12
18 19 24 29 29 31 30 29 26 25 24 26 24 25 29 32 41 38 24 37 33 10 6 11 6 17 26 19 21 18 16 11 4 2 3 5 5 4 6 4 7 6 4 4 2 11 8 10 14 12 11 13 14 13
19 23 27 26 34 33 32 25 21 19 22 23 22 25 31 41 41 28 3 29 38 31 3 4 11 9 20 21 16 15 12 4 3 3 3 5 7 3 3 5 8 10 10 12 5 10 9 11 13 12 11 12 13 12
19 22 27 29 28 22 14 6 14 16 18 21 21 31 40 41 35 6 3 16 40 26 3 2 3 5 17 17 7 7 11 2 3 2 4 5 4 4 3 3 5 8 7 8 10 11 6 10 6 8 9 9 9 8
19 24 24 23 17 11 9 9 14 21 23 29 34 34 33 33 23 4 7 37 37 7 3 3 2 3 13 4 3 3 2 3 4 2 3 7 3 3 2 5 7 9 7 6 11 9 5 7 9 9 8 9 8 8
16 21 16 11 12 9 13 18 21 28 45 40 41 38 18 7 4 9 31 31 14 4 4 2 4 3 8 4 2 2 2 3 2 3 3 3 3 2 5 6 7 9 8 10 11 9 8 9 8 10 10 10 8 7
13 11 17 15 10 21 38 44 40 46 48 43 14 4 3 8 45 22 6 2 2 2 3 3 3 2 4 6 4 4 2 2 3 3 2 1 3 7 5 5 6 7 8 9 10 9 10 9 9 8 7 7 7 7
12 12 23 27 34 37 39 44 46 42 22 4 3 4 33 29 4 3 3 4 3 3 2 1 3 3 2 3 3 3 3 3 3 3 3 4 3 4 5 6 8 9 9 8 8 7 7 8 7 6 5 6 8 9
12 13 22 23 30 36 38 38 29 2 4 9 15 12 5 2 2 3 4 3 2 3 3 3 3 2 1 0 3 3 2 3 1 1 2 3 3 7 7 7 8 9 9 9 10 8 9 9 8 7 7 8 10 11
15 14 19 16 13 18 21 11 21 37 27 10 5 4 3 4 3 1 5 3 4 2 3 3 3 2 2 2 2 2 2 3 1 1 3 4 7 8 8 8 9 11 11 10 11 12 12 12 13 11 11 12 13 14
15 16 17 18 16 14 18 25 15 6 5 4 3 4 4 3 4 3 4 4 3 2 3 2 3 1 0 2 2 3 2 2 3 4 4 5 7 6 7 8 7 8 8 9 10 12 14 14 15 16 15 14 15 17
12 13 14 15 14 15 18 8 5 8 5 4 4 4 4 3 5 3 1 1 4 3 3 1 3 2 3 3 2 3 3 3 5 4 4 5 7 7 7 7 7 8 8 9 12 13 13 14 16 18 18 18 18 18
7 7 6 6 8 10 9 6 12 6 4 4 6 3 1 4 6 6 5 5 5 4 3 1 2 3 4 2 3 3 1 4 3 4 5 6 7 7 7 8 9 11 11 12 13 14 15 15 16 18 18 19 19 19
5 4 3 6 2 4 7 6 6 6 4 4 4 5 4 5 6 4 5 5 5 3 2 2 4 4 2 3 3 5 4 6 6 6 5 6 6 7 7 9 10 11 12 13 13 14 14 14 14 16 16 16 16 16
6 8 9 12 7 8 6 7 4 4 6 5 5 6 7 4 4 5 5 6 4 2 3 3 2 4 4 3 3 4 5 6 5 6 6 6 8 8 9 9 10 10 11 11 12 11 11 11 12 12 12 11 12 12
7 7 8 7 4 5 3 4 4 4 5 4 5 4 4 5 6 5 5 5 7 6 3 3 5 4 4 4 7 6 5 5 5 6 6 9 9 8 8 8 9 10 9 9 9 10 11 11 10 8 8 7 9 8
13 14 14 8 4 4 4 3 4 5 3 4 4 5 4 4 4 5 6 6 6 3 5 4 4 6 6 6 6 6 5 5 5 5 5 5 6 6 7 7 8 7 8 9 9 7 8 9 9 8 8 7 7 7
13 11 7 6 5 9 4 3 4 4 5 3 4 5 4 5 5 5 5 5 6 4 4 5 6 6 10 10 10 9 8 5 4 4 5 4 5 6 6 6 5 6 6 6 6 7 7 7 6 6 6 7 7 7
5 6 5 6 4 4 4 5 5 5 3 5 4 3 3 3 4 4 4 6 4 5 3 5 6 6 7 8 10 10 9 9 9 9 8 5 3 4 5 5 5 5 5 5 5 5 6 5 5 6 6 6 5 5
6 3 3 3 4 4 4 1 3 2 3 4 3 3 3 3 3 1 4 4 3 4 8 8 10 12 12 11 11 10 8 7 8 7 6 6 6 5 5 5 4 3 4 5 4 5 6 6 6 6 6 5 5 5
4 4 4 3 4 4 3 2 3 3 4 2 3 4 3 3 2 3 4 3 4 7 6 8 9 7 8 7 5 8 7 7 7 7 5 4 4 5 5 5 5 5 4 3 4 4 5 5 4 4 4 4 3 3
2 6 3 5 2 4 4 4 3 3 3 3 3 3 3 2 2 3 3 4 6 6 5 6 4 3 5 5 7 7 5 4 4 5 5 5 4 3 4 4 5 4 2 2 3 3 3 3 3 3 2 2 2 1
5 6 4 2 2 3 3 4 3 5 4 3 3 3 2 2 3 4 3 7 6 6 5 4 4 4 4 5 4 5 5 4 3 4 4 4 3 3 2 1 0 3 3 2 2 2 3 2 2 2 2 2 1 2
4 3 3 3 1 4 4 4 4 4 4 3 4 4 3 3 3 3 4 6 6 9 8 6 4 4 6 7 7 6 5 5 5 6 4 4 5 4 3 3 2 3 1 1 0 0 1 2 1 2 1 2 2 3
4 4 3 3 4 4 4 4 3 3 3 2 4 3 3 3 3 3 4 7 13 11 10 9 8 8 8 8 7 7 7 7 7 6 6 6 5 5 4 4 3 3 2 1 0 0 1 1 2 2 3 4 4 4
3 3 4 6 5 5 6 4 3 3 3 1 3 3 3 3 3 9 13 12 11 11 11 10 10 10 9 8 6 6 4 1 1 1 1 1 1 2 1 1 1 1 1 1 2 1 0 1 2 3 4 5 6 6
3 2 4 5 5 5 4 5 5 3 3 6 5 9 11 9 11 11 12 10 10 9 9 9 9 7 6 5 5 4 2 2 2 2 3 2 3 2 2 1 0 1 1 1 2 2 2 3 4 5 4 5 6 7
3 3 4 5 4 6 8 8 9 9 9 10 9 10 8 5 7 8 7 8 9 10 10 9 7 6 5 4 3 3 3 1 1 2 3 3 3 2 1 1 0 0 1 2 2 3 4 5 5 6 6 7 7 8
3 3 5 5 5 5 2 4 5 8 7 7 6 5 4 4 3 4 4 6 8 8 6 7 7 6 5 4 5 4 5 5 4 4 3 2 2 1 0 1 1 2 2 3 4 4 4 5 5 6 7 8 8 9
8 9 10 8 5 6 4 4 4 4 3 3 3 2 3 2 3 3 4 2 3 7 8 7 7 7 6 6 6 7 6 5 4 3 2 3 2 2 2 2 2 2 3 3 3 4 4 5 6 7 8 9 10 11

GFSWCAN_925_spd_084.txt.gz
Wind_Speed
31 36 35 37 35 32 28 25 24 24 25 28 30 31 32 37 39 43 35 27 25 6 12 15 18 14 11 6 6 3 1 3 2 3 4 6 5 5 9 6 12 11 9 6 8 5 11 3 5 6 8 9 6 10
37 36 37 35 30 23 23 24 24 24 23 25 27 27 30 33 44 46 14 35 27 9 6 17 32 26 15 9 1 1 3 2 5 5 6 3 4 2 8 3 13 6 7 6 8 7 5 9 13 10 8 10 11 11
36 37 37 29 21 22 25 25 25 25 25 26 25 25 27 26 39 47 28 32 19 7 9 13 16 22 18 22 12 3 2 4 4 6 3 3 6 5 3 5 2 3 8 2 5 4 12 8 13 11 13 13 14 12
36 34 24 23 25 30 31 29 30 30 29 27 28 27 29 29 31 46 27 30 27 3 5 10 22 31 28 12 19 12 10 6 5 4 2 3 3 5 5 7 4 0 1 13 9 10 11 13 7 7 14 12 12 11
31 25 24 25 29 33 33 36 35 34 31 29 29 28 26 29 30 39 31 36 40 8 6 10 16 17 22 28 13 13 10 6 2 2 2 4 3 4 6 4 4 5 7 4 4 8 8 7 11 13 12 11 11 11
25 23 25 27 33 33 33 31 33 32 30 29 28 29 25 26 30 24 3 24 39 31 3 3 7 14 13 17 17 10 8 5 2 2 3 4 8 2 2 0 5 10 11 14 4 10 8 10 13 12 10 10 10 10
24 25 27 30 30 28 22 17 6 11 22 26 26 28 26 32 40 8 4 12 41 26 2 2 3 5 13 12 4 5 7 2 2 1 3 3 3 5 2 1 5 11 9 11 11 11 8 13 6 10 11 11 10 12
23 24 26 25 24 19 12 3 5 12 18 22 26 26 30 36 24 4 3 14 41 7 3 3 3 3 10 3 4 4 2 3 4 1 3 4 2 3 3 7 8 11 9 13 13 10 9 9 10 11 12 12 9 10
19 20 17 22 13 4 4 12 18 23 29 28 30 41 27 8 3 6 20 37 19 3 4 4 3 2 7 2 3 2 2 2 1 2 3 3 3 4 6 8 9 10 9 11 11 9 12 11 11 11 10 10 9 9
13 11 16 7 5 8 19 31 38 37 42 40 24 6 3 9 41 31 7 2 2 2 2 3 2 2 2 3 3 3 1 2 2 4 1 2 3 7 7 8 9 10 11 11 10 11 11 10 10 11 9 9 9 8
7 15 23 27 26 37 41 41 43 34 19 3 2 3 34 32 6 2 3 4 4 4 4 2 4 3 1 3 3 2 3 3 3 3 4 3 3 4 6 8 9 11 11 10 10 10 10 9 9 8 9 10 11 12
12 19 18 26 31 38 44 28 11 4 4 10 16 12 5 2 3 4 4 3 4 4 2 2 3 3 3 3 0 2 3 1 1 4 2 4 4 8 9 10 11 11 11 11 14 11 12 14 11 11 11 11 13 14
15 14 22 22 27 29 21 7 21 19 21 9 6 4 1 2 2 4 6 4 4 2 2 2 3 2 2 1 1 2 4 1 1 1 3 4 7 7 8 9 10 12 13 13 13 15 15 14 17 16 15 16 17 18
14 16 12 14 13 11 15 10 10 6 7 4 2 4 5 3 4 4 4 4 2 2 3 1 3 2 1 2 2 2 2 2 1 3 4 5 7 8 8 8 8 8 9 9 11 14 15 15 16 17 17 16 17 18
18 18 14 10 14 18 6 12 13 12 6 4 4 4 4 3 4 2 2 4 3 2 2 3 4 2 2 2 2 3 2 3 6 4 4 6 8 7 7 7 7 7 6 8 12 12 12 13 15 17 17 18 19 19
13 11 8 12 11 14 6 7 9 5 3 3 6 2 2 7 6 7 6 6 4 3 2 1 2 3 3 2 3 5 3 5 4 4 5 6 6 6 6 7 8 10 11 11 12 13 14 13 15 16 17 17 17 17
3 4 10 11 11 10 7 4 5 5 4 4 4 6 4 6 6 4 5 4 5 3 3 2 4 3 1 3 3 5 4 5 6 5 5 7 7 6 5 7 7 8 10 11 11 12 13 12 12 13 15 13 14 15
5 12 16 11 7 5 4 6 4 4 6 6 4 5 6 5 5 5 4 5 4 3 3 3 3 5 5 3 3 3 4 6 6 6 6 6 8 10 9 8 8 9 10 10 10 10 10 10 11 10 10 10 10 10
11 11 9 9 8 5 3 4 4 4 4 3 3 4 5 6 6 6 5 5 8 7 3 3 5 3 3 4 7 7 6 6 6 6 5 8 8 7 7 8 9 9 9 8 8 9 9 10 8 7 6 6 8 7
12 14 13 10 6 4 4 3 4 5 3 3 3 6 5 4 4 5 6 6 6 4 5 4 4 6 6 7 6 6 6 6 6 6 5 5 6 6 9 7 7 7 8 7 7 6 7 7 7 8 8 9 8 8
16 12 6 6 6 8 4 3 4 5 4 3 5 4 4 5 6 6 6 5 5 4 4 4 6 7 12 10 9 9 10 7 6 5 6 4 5 6 6 5 5 6 6 5 6 6 7 6 6 6 7 8 8 7
7 6 5 7 4 4 4 6 4 4 3 5 3 3 3 3 3 4 5 5 4 5 3 6 6 6 6 7 10 10 9 10 10 11 10 5 3 5 5 4 5 5 5 5 5 6 5 5 4 5 5 6 7 7
7 3 3 3 4 4 2 1 3 3 4 5 4 3 2 3 2 3 4 3 3 4 8 8 11 13 12 10 10 9 7 8 8 7 6 7 6 5 5 5 5 3 4 5 5 6 5 3 4 4 4 4 6 5
4 4 3 3 4 4 2 1 2 3 3 2 3 4 3 3 2 3 4 3 4 8 6 9 11 7 9 9 5 8 7 7 8 7 5 4 6 6 5 5 5 6 6 4 4 5 5 3 1 3 3 3 4 2
2 5 2 4 3 4 4 4 3 3 3 3 3 3 3 3 2 3 3 4 6 6 5 7 6 5 6 6 7 6 5 5 6 7 6 5 4 4 4 4 5 4 3 0 3 3 3 2 1 1 1 3 3 2
5 5 4 2 2 3 4 4 4 5 4 3 3 4 3 2 3 4 3 7 7 7 5 5 5 5 5 7 6 7 6 4 3 8 6 6 6 6 4 2 1 7 5 5 2 2 3 0 2 0 1 1 1 4
3 3 3 2 1 4 4 4 5 4 3 3 4 4 3 3 3 2 5 8 7 11 8 6 4 7 8 10 9 8 7 8 10 9 6 6 7 7 8 9 7 6 4 3 3 4 1 2 1 2 2 2 2 2
4 4 4 3 5 5 3 3 2 2 3 1 3 3 2 3 3 3 3 14 15 13 12 11 11 11 11 10 10 9 8 8 8 7 7 7 7 7 7 6 5 3 3 1 4 3 4 3 2 2 3 4 5 3
3 3 4 5 5 5 6 4 3 3 4 1 3 3 3 3 6 11 16 14 14 13 12 11 11 11 11 10 9 8 5 4 2 3 2 2 5 6 4 3 3 3 3 1 3 1 2 2 4 4 5 5 6 7
3 2 4 5 4 4 4 4 3 2 5 7 5 10 10 12 15 13 13 12 11 11 11 11 10 9 9 8 7 6 6 6 5 5 5 5 7 4 3 2 2 2 3 4 4 3 3 3 4 6 5 4 6 7
3 3 4 5 4 5 5 6 12 11 9 10 8 9 8 4 8 13 11 12 12 11 11 10 9 7 7 6 6 5 6 4 4 5 5 4 4 3 3 3 2 3 3 4 4 5 6 6 6 7 6 7 8 9
2 3 5 5 5 5 3 4 6 9 7 7 6 8 6 5 3 3 2 5 8 8 9 9 10 9 8 7 7 7 7 8 6 5 4 3 4 3 3 2 4 4 4 4 4 5 5 6 6 7 8 8 9 10
9 9 9 8 5 7 4 3 4 5 4 4 3 3 4 3 4 3 3 5 4 11 10 13 12 10 9 9 9 9 7 6 4 4 4 3 2 3 4 3 3 4 4 4 5 5 6 6 7 8 9 10 11 11

GFSWCAN_925_spd_087.txt.gz
Wind_Speed
26 28 30 33 34 34 31 28 25 22 21 20 21 24 26 27 31 34 29 25 22 3 10 7 6 6 4 4 1 3 4 2 1 2 3 4 1 4 3 9 4 7 7 5 4 3 6 10 5 4 5 10 12 13
27 29 32 35 35 34 29 25 21 20 19 19 20 22 25 29 31 40 16 33 26 5 2 9 23 25 16 5 2 4 2 2 3 1 1 3 2 3 5 3 5 2 6 5 6 5 8 11 12 13 12 14 13 14
28 31 35 36 34 27 22 22 22 24 24 21 20 21 24 26 31 41 27 26 20 4 5 9 14 16 15 15 15 2 2 1 2 5 3 2 3 1 1 4 3 2 8 2 3 10 12 14 15 12 14 13 14 14
29 33 35 34 28 21 23 25 27 28 27 26 25 23 23 24 27 33 26 26 27 3 3 5 13 21 36 28 15 18 8 2 3 0 2 2 2 2 3 4 4 3 2 5 4 11 15 13 10 9 14 14 13 13
31 34 33 29 24 25 27 30 31 30 30 30 27 25 24 24 26 26 28 32 35 8 4 3 8 19 18 25 25 13 10 3 2 1 2 2 3 3 4 2 3 6 5 3 3 7 9 9 11 12 12 13 13 13
33 33 30 27 28 29 30 31 29 29 29 31 29 27 26 26 27 14 2 23 38 30 2 3 4 4 17 23 17 5 4 3 3 2 2 2 5 4 2 2 7 12 13 13 3 5 13 13 10 8 8 8 12 13
32 30 28 27 28 30 28 26 26 21 24 29 33 29 28 28 32 5 5 9 37 25 1 3 3 3 13 6 2 3 4 2 2 2 3 3 3 2 2 3 7 10 11 13 14 5 11 9 7 11 12 10 17 15
30 25 26 26 24 26 18 14 10 7 7 24 29 29 28 32 21 5 2 22 40 8 3 2 2 3 7 3 3 3 3 2 3 2 2 3 0 3 3 6 8 10 8 13 11 12 10 11 10 10 14 11 12 10
20 22 21 23 17 7 2 3 7 14 19 24 31 33 26 7 3 6 10 39 19 4 5 4 3 3 3 3 2 2 2 2 1 3 3 0 3 5 5 7 10 11 9 10 11 13 11 11 10 10 10 10 10 9
16 15 13 4 5 10 14 15 19 26 38 47 28 5 3 11 38 35 9 2 1 2 2 2 1 1 1 2 2 3 2 3 3 4 2 3 3 6 7 8 9 11 12 12 11 12 11 10 9 11 12 10 10 9
4 9 8 12 23 31 33 41 41 36 20 5 2 2 34 38 6 2 3 4 3 2 3 3 3 2 1 2 2 1 2 2 2 3 3 3 3 3 8 9 10 12 10 11 11 11 12 9 9 10 11 12 14 15
7 12 26 30 28 34 30 20 11 5 8 11 18 13 5 2 3 3 4 4 4 3 2 3 2 2 2 2 2 2 2 1 1 2 2 3 3 8 9 10 10 9 11 11 14 11 13 15 14 13 13 14 16 16
16 20 22 29 24 17 20 21 17 24 18 8 6 4 1 1 2 3 5 2 3 2 2 2 3 2 1 2 2 2 3 3 2 3 3 3 6 7 6 6 8 11 11 12 13 14 14 15 16 15 15 15 17 17
20 17 22 16 12 11 12 11 8 7 7 3 3 5 3 3 3 2 2 3 2 1 2 3 3 2 0 2 1 3 1 0 0 3 2 3 6 5 5 6 7 6 6 8 9 12 13 14 15 18 18 17 17 16
17 15 17 13 9 11 14 14 14 11 6 4 4 4 3 1 1 1 2 2 3 2 2 2 3 2 2 3 2 2 1 4 4 2 2 4 4 5 5 6 4 4 5 6 11 11 14 15 14 16 18 19 19 18
18 13 10 12 9 8 9 15 13 5 3 3 6 3 2 4 5 4 4 3 3 2 2 1 3 3 3 2 4 4 2 2 1 3 4 4 4 4 4 4 6 9 10 11 12 12 13 14 14 15 17 17 17 17
7 4 12 11 10 5 7 6 5 5 4 4 3 3 2 4 4 2 3 2 2 1 2 3 4 1 1 3 3 3 2 3 5 5 4 5 5 4 4 7 9 11 12 12 12 12 13 13 12 11 10 12 14 15
4 21 19 18 13 6 5 5 4 4 6 4 3 2 3 4 2 2 3 5 3 2 2 2 3 4 3 3 2 2 4 6 5 5 5 5 10 12 12 10 11 12 10 9 10 10 12 12 10 8 11 12 12 11
27 23 14 9 6 4 3 4 5 4 3 2 2 2 3 2 2 2 2 3 3 4 3 3 4 3 2 2 5 4 4 3 4 2 3 10 9 9 10 11 10 9 7 8 9 8 9 10 8 5 7 8 8 9
18 16 14 10 5 4 4 3 5 4 3 2 2 3 2 2 1 2 4 4 4 3 5 4 3 3 4 6 5 5 4 5 5 4 3 2 7 9 6 8 10 10 9 8 7 6 8 8 7 10 12 13 12 12
17 10 7 5 5 9 4 3 3 3 3 3 3 2 2 2 3 3 2 4 4 3 3 3 4 6 13 13 15 14 13 9 3 3 3 4 8 9 7 7 10 11 7 8 10 10 12 12 10 10 9 9 8 8
7 6 4 7 4 4 4 5 4 3 3 3 3 2 3 2 2 3 2 5 3 3 2 3 3 5 6 5 11 16 16 18 18 17 14 10 3 6 7 6 8 8 10 11 13 14 12 8 7 8 10 9 6 6
5 4 4 4 5 4 0 2 3 4 3 3 2 3 2 2 2 3 3 3 2 4 10 9 12 16 11 12 12 11 13 14 12 12 13 13 12 12 13 15 16 11 12 12 9 8 8 6 5 4 3 3 7 8
4 5 3 3 4 3 1 1 2 3 3 2 2 3 2 2 2 3 3 2 1 6 6 9 11 6 8 10 3 9 12 14 13 13 9 13 13 11 11 10 9 9 9 9 9 9 4 4 4 2 4 5 6 6
5 6 4 4 2 4 3 2 1 3 2 2 3 2 1 1 2 3 3 3 4 2 3 9 9 6 5 4 9 8 12 11 14 10 11 9 7 10 11 8 7 5 5 2 7 8 6 4 4 5 7 6 4 5
5 3 3 2 1 4 3 3 3 3 3 3 2 2 1 2 3 3 2 4 5 3 3 3 4 4 4 11 5 10 6 6 16 14 10 9 11 10 7 7 9 7 4 5 8 4 5 4 4 1 3 2 1 1
4 2 2 2 2 2 3 3 3 4 3 3 3 3 3 4 2 1 3 4 4 12 8 5 11 16 12 14 17 11 7 10 13 13 9 6 6 6 6 11 9 5 2 1 4 8 4 2 2 1 3 1 4 2
3 4 4 3 4 5 3 3 3 2 2 2 3 4 3 4 3 2 2 16 22 21 23 23 22 22 21 18 13 13 14 13 13 12 11 11 10 11 11 9 7 4 6 1 2 1 2 4 5 5 3 3 3 3
3 2 4 5 5 5 5 4 2 2 3 1 3 2 2 2 3 9 16 21 23 22 18 18 20 22 20 16 13 10 9 7 11 2 2 4 7 5 4 5 4 3 5 5 3 6 7 3 4 5 5 6 7 8
1 2 4 4 4 3 2 2 1 1 3 3 3 7 7 6 14 19 20 19 17 16 17 17 17 17 17 16 15 11 7 5 7 9 5 4 7 7 6 5 5 5 3 3 5 4 3 3 4 7 9 5 6 4
2 3 4 4 3 1 5 8 12 10 6 7 5 6 3 3 10 20 15 19 20 19 16 14 15 13 15 14 15 12 7 6 8 10 9 8 7 5 1 0 1 1 3 2 3 4 7 6 5 8 9 8 7 7
2 3 4 4 2 2 2 2 3 5 4 3 2 2 0 3 3 2 5 9 13 12 14 16 15 13 11 11 9 8 10 13 11 10 8 7 5 3 3 3 2 2 3 3 4 4 5 5 5 7 7 8 10 11
5 5 4 4 3 3 3 2 3 3 2 3 2 2 3 3 3 2 3 6 5 17 17 18 15 14 12 11 11 11 9 8 7 6 5 4 4 5 4 2 1 0 1 2 3 5 5 5 6 8 8 9 10 12

GFSWCAN_925_spd_090.txt.gz
Wind_Speed
23 23 23 25 25 25 26 27 27 26 22 21 20 19 20 24 25 32 17 27 22 2 7 4 3 1 2 1 1 3 4 2 1 1 1 2 2 4 3 4 4 6 5 4 3 4 9 14 5 4 4 11 12 11
24 23 25 26 27 27 29 29 28 25 22 18 16 17 19 23 26 32 9 27 29 2 3 5 21 24 18 9 3 2 3 2 1 2 2 2 2 2 3 3 2 4 5 3 6 4 6 10 12 13 10 12 12 11
22 24 25 26 28 29 30 29 24 21 20 19 16 16 18 20 26 32 18 26 16 4 6 9 11 18 17 17 19 4 0 3 3 2 2 1 3 2 2 2 3 3 4 1 3 8 11 12 13 14 14 12 13 13
23 24 26 26 28 29 29 24 20 21 22 21 19 18 18 18 23 29 19 27 22 3 2 4 8 14 30 19 13 18 6 3 3 2 0 1 2 2 2 2 3 5 3 4 5 9 10 11 11 9 12 12 13 14
23 25 26 29 30 29 26 24 24 24 25 25 24 22 22 21 22 26 26 31 33 7 3 3 6 15 14 21 27 22 8 3 2 0 1 2 3 3 2 3 4 6 5 3 2 6 5 4 8 9 9 10 11 10
25 25 28 29 28 25 27 27 29 30 29 28 25 24 25 23 21 13 2 19 33 10 1 2 4 3 6 16 14 9 6 3 3 2 2 3 3 1 3 3 7 8 8 10 4 7 8 10 12 13 10 9 9 12
24 25 28 28 28 28 29 31 30 30 30 29 27 26 27 25 29 5 5 12 36 16 2 2 3 3 2 7 2 2 3 2 3 2 2 2 3 4 2 3 6 7 10 10 12 3 11 13 7 11 11 11 14 16
25 26 26 27 27 28 28 28 26 24 24 25 25 28 29 30 19 9 3 13 35 9 3 2 3 3 1 3 2 2 3 2 2 2 2 2 1 2 3 6 8 8 6 12 12 11 8 8 10 10 12 9 10 9
23 24 23 24 25 18 14 13 10 8 10 17 30 32 26 10 4 8 12 35 17 5 5 4 3 3 2 2 2 2 2 2 1 2 2 1 3 4 5 7 10 11 8 6 8 9 9 8 8 9 9 8 7 8
20 19 19 9 7 5 7 11 15 19 30 42 27 6 3 10 37 29 8 5 2 2 2 3 2 3 1 2 2 3 2 2 3 4 3 3 3 8 8 9 8 9 9 7 3 8 7 5 8 8 8 7 8 8
14 12 6 9 10 12 17 23 38 38 26 6 2 3 31 35 9 2 3 3 2 2 2 3 3 3 2 3 3 2 3 3 3 2 2 2 2 4 7 9 7 7 10 9 9 8 8 7 6 7 8 9 9 10
6 9 23 27 29 30 28 23 19 10 4 7 16 16 8 3 2 4 3 4 4 5 1 4 3 2 2 2 2 2 2 3 2 2 3 2 3 6 6 7 8 8 10 10 11 9 12 13 12 11 10 10 11 11
25 24 25 23 21 15 14 10 22 35 34 18 5 3 1 3 3 5 6 4 3 2 3 3 3 2 1 2 2 2 2 2 1 3 2 2 6 5 5 6 8 10 10 11 12 12 12 12 12 10 11 10 12 14
22 26 23 17 19 20 22 12 18 17 7 3 3 5 3 3 2 2 1 2 1 1 5 3 3 2 1 3 2 3 1 2 2 3 3 1 5 5 5 6 7 7 7 9 10 11 11 12 13 17 17 16 17 15
24 23 17 17 21 18 14 12 5 7 5 3 4 3 2 2 0 2 2 2 2 1 2 2 3 2 2 3 2 2 2 2 1 3 2 3 3 5 6 5 5 5 5 7 12 12 13 14 14 15 15 16 16 15
24 16 7 11 8 6 7 14 8 5 4 3 5 3 2 3 4 3 3 2 3 2 2 3 3 3 3 2 4 1 2 3 2 2 2 4 4 4 4 5 8 12 12 12 12 12 13 14 15 14 15 15 15 14
13 4 11 12 9 6 9 8 6 5 4 4 3 2 2 3 1 2 3 3 3 2 2 3 4 2 2 3 2 2 3 2 5 5 3 3 4 4 6 10 11 13 13 13 13 13 15 14 12 11 11 12 13 13
5 18 17 18 15 14 8 6 4 4 5 3 3 3 2 2 1 2 3 2 2 2 2 2 3 4 2 4 2 1 3 5 4 4 3 4 7 11 13 12 12 12 11 11 11 10 10 9 8 8 10 10 10 9
23 24 17 10 6 5 3 4 4 4 3 1 1 1 2 1 2 2 2 4 3 4 3 3 4 2 2 2 5 4 3 3 5 2 2 8 12 13 12 11 9 7 7 10 10 8 7 6 4 6 10 8 7 8
18 13 11 8 5 4 4 3 5 4 3 2 2 2 2 1 0 2 6 5 3 3 5 4 1 0 3 1 2 4 4 5 5 4 2 1 9 10 9 7 9 9 10 8 5 5 6 8 7 8 9 8 9 9
15 11 8 5 5 8 4 2 3 3 3 3 2 2 2 2 3 3 3 3 4 3 2 2 2 5 10 13 15 15 10 11 3 3 3 3 9 13 12 11 8 8 8 9 10 11 9 9 7 7 6 6 7 10
8 6 4 5 4 4 4 4 4 3 3 2 2 2 2 2 2 2 2 4 2 1 2 2 3 5 7 6 11 18 16 17 17 15 16 14 3 6 7 6 10 11 12 12 13 11 8 6 9 6 5 6 9 9
7 4 4 5 5 5 0 1 4 2 4 3 1 3 2 2 2 3 3 2 2 3 7 6 10 15 15 18 18 17 18 19 14 16 16 17 18 17 16 12 13 15 13 11 8 6 7 6 5 6 5 5 8 8
5 5 4 3 4 1 2 2 2 3 3 2 2 3 1 2 2 3 3 1 1 3 4 9 12 7 10 11 4 8 14 20 16 12 17 17 13 12 10 12 11 9 8 10 7 6 4 6 5 5 6 5 6 7
6 6 4 4 3 4 3 3 2 3 2 2 3 1 2 2 2 2 3 3 3 3 4 10 8 5 5 2 8 13 15 16 15 10 8 9 13 15 13 11 9 8 3 10 10 6 6 5 5 3 4 5 6 6
6 4 3 3 1 4 4 3 3 4 3 2 1 1 2 3 3 2 3 4 3 3 3 5 4 5 3 8 4 8 10 15 15 12 7 7 6 11 13 11 6 4 4 2 6 8 6 6 4 3 3 2 2 3
4 2 2 2 2 2 3 2 3 4 3 4 3 2 3 4 2 2 1 2 3 8 13 15 18 13 10 13 13 10 10 14 7 10 9 7 6 4 3 15 9 4 2 2 1 3 8 5 3 2 1 2 4 4
2 3 4 4 4 4 3 3 3 2 0 3 3 3 5 6 4 1 2 13 25 22 22 21 21 23 23 19 17 17 17 16 16 15 14 12 11 10 8 7 6 5 4 2 2 2 1 3 4 2 1 3 2 2
2 1 3 5 4 4 4 2 1 1 2 1 3 2 1 2 2 5 11 22 27 28 21 22 23 24 22 19 15 14 15 14 14 4 2 2 3 3 5 4 3 2 2 2 3 5 6 4 2 3 2 2 2 2
1 2 4 4 4 3 2 1 1 2 2 3 3 4 3 4 12 20 23 22 21 19 21 24 25 23 19 20 16 11 7 5 8 7 5 5 7 8 6 4 4 2 2 1 2 1 1 1 2 3 3 2 3 1
2 3 4 4 3 2 1 4 11 7 3 4 4 4 2 2 10 15 14 18 22 24 24 21 19 18 17 15 14 12 7 5 4 4 5 8 10 8 4 3 3 2 1 1 1 2 2 2 3 3 3 3 3 5
3 3 4 4 1 3 2 3 2 3 3 4 3 3 4 3 3 5 7 16 21 16 17 18 17 14 12 10 9 6 4 11 9 7 7 7 5 4 3 2 1 1 1 2 1 1 3 2 3 5 6 7 7 8
3 3 3 4 3 0 2 3 2 2 3 2 2 2 1 3 3 3 2 6 13 20 18 15 14 13 11 9 9 11 11 10 8 7 5 4 3 3 2 1 2 2 2 2 2 1 2 3 5 5 7 8 9 10

GFSWCAN_925_spd_093.txt.gz
Wind_Speed
24 23 22 21 21 21 21 20 20 22 23 21 21 19 18 19 23 30 12 23 17 3 4 3 3 3 1 1 1 3 3 2 3 2 1 2 2 2 2 3 2 4 4 3 3 4 7 11 3 1 3 9 9 11
24 23 23 23 22 21 22 21 22 23 23 23 20 19 17 18 23 30 8 23 26 2 4 4 18 20 14 5 2 3 1 2 2 2 2 1 2 3 1 2 4 1 2 2 5 3 6 12 11 12 11 13 14 12
24 24 24 23 22 23 22 22 24 24 22 21 17 13 13 16 20 31 16 21 13 1 4 3 8 23 18 18 19 3 1 4 1 2 2 2 2 1 1 3 3 1 3 3 3 7 9 11 12 14 14 12 13 13
23 24 23 22 23 23 23 24 24 21 18 19 17 16 14 15 18 26 17 25 17 3 2 5 6 8 26 24 22 23 5 3 4 1 1 2 2 1 2 3 2 3 7 7 2 6 4 11 10 10 12 10 12 13
23 24 24 23 24 26 27 26 23 20 19 18 18 20 15 15 15 21 23 30 28 6 3 3 6 14 12 24 22 19 11 3 1 2 1 3 3 2 2 2 3 4 4 3 3 8 4 6 9 10 12 10 12 13
25 26 24 24 26 26 28 27 25 23 21 22 21 21 19 20 17 14 2 24 36 16 1 2 4 1 4 19 17 9 5 2 2 2 2 3 3 2 2 2 5 6 7 8 4 3 9 7 13 13 13 11 12 13
26 24 25 25 27 29 28 29 28 26 25 25 25 24 24 23 24 5 4 8 33 20 2 2 3 2 5 6 3 2 6 3 3 3 2 2 2 2 2 2 5 6 8 10 12 3 6 13 7 10 11 12 14 15
23 25 25 27 29 30 31 29 29 29 28 27 28 27 27 24 22 8 6 17 31 9 2 2 3 2 4 2 3 2 3 2 2 2 1 2 1 2 2 6 6 7 6 9 9 9 7 7 9 11 14 11 9 9
24 24 27 28 30 29 30 29 28 27 26 25 24 24 20 10 4 10 17 33 15 3 5 4 4 3 1 2 2 2 2 2 3 3 2 1 2 3 4 6 5 7 6 8 6 8 6 7 8 9 10 10 8 8
24 26 27 27 26 20 15 13 13 17 19 21 19 6 3 12 38 33 7 3 1 2 2 3 2 4 3 3 2 3 1 2 3 3 3 3 2 5 6 6 6 7 8 8 3 5 7 5 7 9 10 8 7 7
24 23 25 23 15 10 12 15 28 32 29 6 3 3 34 33 8 2 3 4 3 2 3 3 5 4 1 3 4 2 3 3 3 3 3 2 3 3 5 7 6 6 8 7 6 6 8 7 6 6 7 9 10 11
23 20 16 13 14 18 25 31 23 7 6 9 17 13 7 4 2 4 3 3 3 5 3 4 3 2 2 2 2 4 3 3 2 3 3 2 3 7 6 6 6 7 8 8 7 7 8 10 10 10 10 9 10 10
12 22 24 27 30 31 26 23 14 32 33 15 6 4 1 2 4 6 6 4 3 4 4 3 3 2 2 3 2 2 3 2 3 3 2 1 6 6 5 6 6 8 8 8 9 9 9 10 11 9 9 9 9 11
26 21 19 19 24 22 21 17 31 10 4 3 3 4 2 2 1 3 2 4 2 2 6 4 3 2 1 3 1 3 2 2 3 1 3 2 6 5 5 5 6 4 6 8 9 10 10 11 12 14 13 12 14 13
26 26 25 25 23 17 22 15 11 7 6 4 4 3 2 2 1 0 2 2 2 2 2 3 3 2 2 3 2 2 3 1 2 3 2 3 6 6 5 5 4 4 5 6 10 11 12 14 14 13 12 12 12 11
30 22 18 22 19 20 16 11 7 5 4 3 6 3 2 3 3 3 3 2 3 1 1 3 3 3 2 2 3 2 3 4 3 3 3 5 5 5 5 4 6 9 10 10 10 11 11 12 13 13 11 10 10 10
12 5 14 15 17 16 11 6 5 5 3 4 2 2 2 3 2 2 3 3 3 2 2 2 4 2 3 3 2 0 3 3 4 4 2 3 5 5 7 11 12 12 11 11 10 10 12 12 11 10 9 9 9 9
8 22 21 15 15 11 5 7 4 4 5 3 3 2 2 2 1 2 2 2 1 2 2 2 3 4 3 4 3 3 2 3 3 4 3 3 7 11 13 12 11 11 10 10 10 11 11 8 7 7 9 8 7 6
21 20 14 9 7 6 3 5 5 4 2 1 1 1 2 2 2 1 2 3 3 3 3 2 4 2 2 2 3 3 3 2 5 2 2 6 10 11 10 9 9 9 9 10 10 9 7 6 8 10 10 10 7 6
21 15 11 6 5 4 4 2 4 4 3 1 2 2 2 1 0 2 5 5 3 2 5 3 1 1 2 2 2 5 3 5 6 4 3 2 7 10 10 10 8 9 9 8 8 9 8 6 5 5 5 6 9 9
16 11 7 6 5 8 4 3 3 2 3 3 2 2 2 2 3 3 3 3 4 2 2 0 1 2 7 11 15 15 11 12 3 3 3 2 5 11 8 5 10 11 11 9 9 7 5 5 4 3 3 3 4 7
7 6 4 5 4 4 4 5 4 3 3 2 2 2 2 2 2 2 1 4 2 0 2 2 1 2 5 4 8 15 16 12 10 14 14 15 3 5 6 9 9 8 10 9 7 6 5 4 4 3 4 5 7 8
7 3 4 5 5 5 0 1 4 2 4 2 2 3 2 2 1 2 3 2 0 1 6 5 7 13 14 16 16 14 15 19 13 15 15 14 12 10 8 7 10 12 10 8 5 3 3 4 6 4 3 4 7 7
4 5 4 3 4 2 2 3 2 3 3 2 2 3 1 2 1 3 2 0 1 2 3 9 13 7 10 9 3 8 12 18 17 15 16 16 12 8 9 9 7 5 3 6 5 4 3 5 5 4 5 6 8 8
5 7 5 4 3 5 4 3 3 3 2 2 3 0 2 2 2 2 4 2 3 2 4 8 8 6 5 2 8 11 13 17 14 9 5 9 14 13 10 9 7 4 5 7 7 6 6 5 4 3 5 5 6 7
6 4 3 1 1 4 3 3 3 4 3 2 2 0 2 3 3 3 3 4 3 3 4 6 5 5 3 6 4 7 10 13 15 11 5 5 13 15 14 10 6 2 2 1 8 8 6 7 7 5 5 5 4 5
4 2 2 3 2 2 4 3 2 4 3 3 2 2 3 3 3 2 1 1 3 10 24 19 17 12 10 12 12 12 15 11 5 9 9 6 4 2 5 11 7 4 2 2 2 4 9 8 7 5 4 5 6 5
2 3 3 4 4 4 3 3 3 2 0 2 2 3 5 6 3 1 1 8 23 23 19 14 14 17 19 16 16 17 17 15 15 14 13 12 10 9 7 5 4 3 1 1 2 1 1 3 4 4 4 5 4 4
3 2 3 5 5 4 4 2 1 1 2 1 3 2 1 2 3 1 6 20 25 24 21 20 20 22 21 18 16 15 16 16 14 4 3 1 0 3 5 4 3 2 1 1 3 4 3 2 0 0 1 3 4 3
1 2 4 3 4 3 2 0 1 2 2 1 2 2 3 3 10 12 18 21 21 18 22 25 26 23 21 22 18 12 9 8 8 5 3 4 7 7 6 4 1 0 0 1 3 3 3 3 3 3 3 3 3 3
2 3 4 3 3 1 3 1 4 3 3 3 3 4 2 2 7 14 10 14 22 25 25 21 17 19 20 18 15 11 5 4 3 2 2 5 8 6 4 3 2 2 2 2 2 2 2 2 2 2 3 3 5 6
3 3 4 4 1 2 2 2 2 3 3 4 3 3 4 4 3 5 5 11 17 18 19 20 21 17 11 9 8 4 1 9 8 7 7 6 5 3 1 1 0 2 3 2 2 2 2 2 3 5 6 7 7 8
3 2 2 3 2 1 2 3 3 2 3 2 0 2 1 3 3 2 2 10 12 18 17 15 13 12 10 8 7 9 11 10 9 7 5 4 3 3 1 1 2 3 3 3 3 4 5 5 6 7 9 10 10 11

GFSWCAN_925_spd_096.txt.gz
Wind_Speed
22 20 22 23 20 21 21 18 18 18 18 18 17 17 15 15 15 23 11 22 13 3 4 4 4 4 2 0 2 4 4 3 3 4 2 2 1 2 3 2 1 2 3 3 2 3 6 10 2 4 4 12 12 14
23 20 21 22 22 22 21 18 20 19 19 19 19 19 20 17 16 24 7 22 23 3 4 3 12 20 12 5 3 4 1 2 3 3 2 2 2 3 3 2 5 2 2 2 5 2 7 8 9 8 10 10 13 13
22 21 22 22 21 22 21 19 20 19 19 21 20 19 19 17 18 22 15 21 9 1 4 2 8 22 17 23 17 2 2 3 2 0 2 2 1 0 2 2 2 3 6 2 4 5 9 9 10 12 11 11 11 11
23 21 23 23 23 22 20 20 20 20 21 21 18 17 17 12 13 19 16 23 16 3 2 5 4 7 9 22 18 18 3 1 3 0 1 2 2 1 1 3 1 3 7 5 2 5 4 12 9 8 11 11 13 13
23 22 21 22 22 22 21 21 22 23 22 19 16 15 17 13 12 15 24 28 27 5 3 3 9 7 9 10 22 15 11 2 0 1 1 2 2 2 0 1 2 3 4 3 3 8 3 6 9 10 12 11 11 12
22 22 22 23 24 23 22 22 25 23 20 19 17 15 17 14 11 10 2 19 32 12 1 2 3 2 3 8 13 10 6 3 2 2 2 2 3 2 2 2 3 3 6 8 3 3 6 6 9 10 11 10 12 13
23 23 23 27 27 23 22 24 26 24 21 20 18 17 17 17 17 4 3 5 33 16 2 1 3 2 5 5 2 2 2 1 2 1 2 2 0 1 2 2 3 5 5 7 8 4 4 12 6 10 11 12 14 16
24 23 24 27 24 24 25 26 27 25 24 22 21 20 20 17 17 12 10 4 26 7 2 2 3 2 4 2 2 2 3 2 2 2 1 2 2 1 1 3 4 6 3 8 8 8 5 8 10 10 12 10 10 10
24 25 25 24 25 25 27 28 28 29 27 25 22 20 16 12 4 7 18 20 17 4 3 4 4 3 3 2 2 1 2 1 1 2 2 1 1 2 1 4 4 6 4 6 2 7 6 8 8 9 10 11 9 9
24 24 24 26 26 28 30 28 31 31 29 28 20 7 3 11 26 33 6 2 2 2 2 3 2 3 3 3 2 3 1 2 3 4 3 2 1 4 5 6 5 5 6 8 4 5 6 7 8 9 10 8 9 8
23 24 25 25 28 28 28 29 23 23 21 11 3 3 10 40 9 2 3 3 3 3 4 3 6 4 2 3 3 3 3 3 3 3 3 2 2 3 5 6 5 6 7 7 7 6 6 6 6 7 8 11 11 11
23 24 26 27 27 27 17 18 21 18 11 13 15 15 6 3 2 4 4 3 4 5 5 5 5 3 3 1 2 3 4 4 3 2 3 2 1 8 6 6 5 6 6 7 7 8 10 10 11 10 10 11 11 10
22 26 29 28 22 22 29 18 15 25 38 20 5 3 2 1 4 5 6 3 3 5 5 4 4 3 2 2 2 3 5 2 3 3 2 1 7 6 6 6 5 5 6 7 9 9 9 10 11 10 10 10 12 14
22 19 17 24 31 34 27 23 30 20 8 3 3 4 1 1 3 4 3 4 2 4 8 6 3 2 2 3 1 3 2 1 2 0 4 3 5 6 5 5 5 4 6 7 7 8 10 11 13 13 12 10 11 12
14 26 33 30 30 26 33 20 13 6 5 3 3 2 1 2 0 1 1 3 2 5 5 3 2 2 1 2 1 3 2 2 3 3 3 3 5 6 5 5 5 5 6 6 8 10 11 13 14 12 10 10 10 9
30 27 22 34 28 28 21 13 7 4 4 3 5 3 2 3 2 2 3 3 2 2 2 2 3 3 1 3 2 3 4 4 3 2 3 6 6 4 4 4 8 9 9 10 10 10 10 10 11 11 9 9 8 7
17 6 20 31 26 22 10 6 5 5 4 4 2 2 2 2 2 1 2 2 2 2 2 2 3 3 3 3 0 1 4 3 3 3 2 4 6 6 7 10 10 10 10 9 9 8 9 9 9 7 7 7 7 6
23 24 29 25 22 12 6 8 4 4 5 2 3 2 2 1 1 2 1 2 2 2 2 2 2 3 4 5 3 3 2 1 2 3 3 3 8 12 13 12 11 10 10 9 9 10 9 8 4 4 6 6 4 3
29 21 22 15 6 6 3 5 4 4 3 1 2 1 2 1 2 1 2 3 4 3 3 2 4 2 3 2 3 3 5 3 5 3 2 7 13 13 11 11 11 10 10 10 9 9 7 6 8 9 9 9 8 6
20 19 14 9 4 5 4 3 4 4 3 1 2 2 2 2 1 2 4 4 3 2 4 3 2 2 2 3 2 5 3 5 7 6 3 2 8 11 11 10 9 8 7 6 5 6 6 3 1 1 2 8 9 9
15 12 9 7 6 9 3 2 3 2 3 3 2 2 2 2 2 3 3 3 3 2 2 1 1 2 3 8 14 15 12 11 3 3 3 4 5 9 9 6 7 9 7 8 8 5 4 3 2 1 1 1 1 3
8 6 4 5 4 3 4 5 4 3 3 2 2 2 2 2 2 1 1 4 2 1 2 2 4 2 5 5 8 14 16 15 12 16 14 15 3 4 5 8 11 9 7 7 5 5 2 1 2 1 1 2 3 4
7 4 5 4 5 4 0 1 3 2 4 1 2 3 2 2 1 1 3 2 1 1 3 3 6 13 14 15 17 15 14 16 13 15 13 12 10 8 8 6 6 9 8 6 5 2 1 1 2 2 1 2 5 5
4 5 4 3 4 3 2 3 2 3 3 2 2 2 1 2 1 3 2 1 1 1 3 8 13 8 11 10 3 7 10 17 17 13 13 15 12 8 7 7 6 4 3 5 4 3 1 2 3 3 5 6 6 7
5 7 5 5 3 5 4 3 3 3 2 1 3 1 2 2 2 1 3 2 2 3 4 8 8 5 5 2 8 12 15 17 15 9 6 8 13 12 9 7 5 3 3 5 5 4 4 4 4 4 5 6 6 7
6 4 3 0 2 4 3 3 2 4 3 2 1 1 2 3 2 3 2 4 2 3 3 6 5 5 3 6 4 8 9 12 15 10 5 8 10 9 10 7 4 2 1 2 5 7 7 6 6 5 6 6 6 7
4 3 2 3 1 2 4 3 2 4 3 3 2 2 3 2 3 3 0 1 3 8 20 20 17 12 10 13 13 12 13 11 6 9 10 7 4 4 6 7 7 3 2 1 2 3 5 8 8 6 5 6 6 7
2 3 3 3 4 3 4 3 3 2 0 2 2 3 4 5 3 2 1 2 17 23 20 16 15 18 20 18 18 18 16 14 14 14 13 11 9 8 6 5 5 3 2 2 2 2 2 2 1 3 4 5 6 5
3 2 3 5 4 5 4 2 1 1 2 1 3 2 1 2 3 3 3 14 25 27 20 20 17 19 19 18 16 13 16 15 13 4 3 0 1 3 5 4 4 3 2 1 2 4 4 4 2 2 4 5 6 8
2 2 4 3 4 3 2 0 1 2 2 2 2 2 2 3 8 8 11 16 20 20 19 22 26 23 22 21 18 13 13 8 2 2 4 3 4 8 6 4 2 2 1 1 2 3 3 4 5 5 5 5 5 5
1 3 4 3 3 1 3 2 1 3 3 3 2 3 2 1 6 14 8 9 17 22 23 21 16 17 19 19 17 13 5 5 3 3 2 5 8 8 5 3 1 1 1 2 2 3 3 4 4 4 4 5 7 8
3 3 4 3 1 2 3 3 1 3 3 3 3 2 3 3 3 5 4 8 14 16 17 19 19 16 13 12 8 6 4 10 9 9 9 8 7 5 4 3 1 2 2 2 1 2 4 4 5 6 7 8 10 10
3 2 3 3 2 1 2 4 4 2 3 2 2 1 1 3 3 2 2 3 6 13 16 16 16 14 12 9 7 11 13 12 11 9 7 6 5 4 3 1 2 2 3 2 3 4 6 6 8 9 11 11 11 12

GFSWCAN_925_spd_099.txt.gz
Wind_Speed
20 20 19 17 16 18 15 15 16 14 13 15 13 13 14 12 11 19 9 23 11 3 3 6 4 4 2 1 3 4 3 3 4 6 3 3 3 3 3 3 3 3 2 1 1 2 2 12 5 5 1 7 9 11
19 17 20 18 16 18 16 16 17 15 15 16 16 15 16 15 12 20 7 24 20 3 3 4 11 19 15 6 2 2 0 2 3 3 3 3 2 3 5 2 5 3 4 2 3 4 6 11 11 10 10 8 9 8
21 20 20 19 17 18 18 17 17 15 15 17 14 16 18 18 17 18 13 22 9 1 4 2 8 16 19 23 20 1 1 2 1 1 1 2 2 3 3 2 3 2 8 2 2 7 11 11 11 11 11 12 11 12
23 21 19 19 18 19 18 18 17 15 16 17 16 18 19 18 19 17 20 25 17 3 2 4 4 8 5 14 19 20 3 1 1 1 1 2 1 3 2 3 2 2 6 5 1 5 2 12 11 10 11 10 11 12
23 24 22 21 19 20 20 19 17 15 17 16 17 16 14 16 14 16 24 28 25 3 2 3 8 2 5 8 18 15 10 1 1 2 1 1 1 2 1 1 2 3 3 2 3 6 5 6 9 10 10 10 11 10
18 20 23 19 18 18 19 18 17 16 18 17 14 14 13 14 11 13 1 18 28 12 0 2 2 2 5 6 11 10 6 2 2 1 1 1 2 1 2 1 3 4 5 6 2 3 9 9 10 9 9 9 10 11
19 21 23 21 19 18 19 18 18 17 18 17 13 11 11 14 13 4 2 2 31 17 2 2 2 0 6 5 2 2 2 1 1 1 2 2 0 1 1 2 5 5 6 6 7 1 6 11 6 8 8 9 11 13
20 22 21 21 21 21 23 21 17 17 19 17 14 11 10 10 15 9 5 9 23 7 2 2 3 1 5 2 2 1 2 1 1 2 2 2 2 1 2 5 5 4 7 7 7 8 8 8 8 9 9 7 8 9
20 22 21 22 21 20 22 20 17 19 20 18 13 10 7 8 6 7 13 16 21 3 2 2 3 3 2 2 3 1 1 2 1 3 3 2 2 3 3 8 5 5 3 3 3 7 7 8 8 8 8 8 8 8
22 22 23 22 22 22 21 19 19 20 19 16 10 7 2 10 20 26 4 2 2 3 3 4 1 2 2 2 2 3 1 2 3 4 2 3 1 4 6 7 6 5 6 6 5 4 4 6 6 8 9 8 8 7
22 22 21 22 22 22 21 21 22 21 18 7 4 3 7 34 8 2 3 4 4 4 5 4 6 4 2 3 2 2 2 2 2 3 5 2 2 4 7 7 6 7 8 8 8 7 7 6 6 6 7 9 9 9
21 21 22 23 23 23 23 24 26 24 12 18 14 11 11 3 3 5 4 4 4 6 5 5 6 3 2 2 2 3 3 3 4 3 2 2 2 9 8 7 7 7 8 9 9 9 9 10 9 10 10 9 9 9
21 22 22 23 24 24 24 25 30 21 34 17 4 4 3 2 4 7 8 4 5 5 6 6 6 3 2 3 2 3 5 3 2 1 2 0 7 7 7 7 7 8 9 10 10 10 10 12 11 10 10 9 9 10
21 22 23 25 22 26 26 20 30 30 10 2 4 6 3 3 4 3 4 4 3 4 9 9 4 3 3 3 1 3 2 2 2 2 3 5 8 8 6 6 6 5 8 10 10 11 12 12 12 13 12 11 13 13
19 22 25 27 25 19 27 38 25 12 4 2 2 3 3 1 1 1 1 3 2 8 6 5 3 2 1 2 1 3 2 3 3 2 3 6 9 8 7 7 7 7 7 8 8 10 12 12 13 12 10 10 10 9
22 21 14 31 40 37 30 22 9 3 4 3 5 3 1 2 3 2 3 3 2 3 3 3 3 2 2 2 3 5 4 4 3 2 4 8 7 6 7 6 8 10 9 9 9 9 8 8 8 8 8 8 8 8
15 5 39 43 42 29 12 6 4 4 3 4 2 1 2 2 3 2 2 1 2 2 2 3 4 4 3 2 2 3 2 1 4 6 5 6 7 7 8 11 12 12 11 10 9 8 8 8 7 5 4 4 5 5
18 33 38 36 29 16 5 7 4 4 5 3 3 2 2 2 3 3 2 2 1 2 2 2 3 2 4 5 2 3 2 3 4 6 5 5 9 13 13 12 13 12 11 10 9 9 8 7 4 2 4 5 4 3
32 31 28 18 7 7 3 4 4 4 3 2 2 2 3 3 4 2 2 3 3 4 4 2 3 2 2 1 2 4 6 5 6 4 4 8 14 14 13 12 12 10 10 9 8 6 5 3 3 4 4 6 6 5
31 23 14 9 5 5 4 3 4 4 2 1 2 2 3 2 1 2 3 4 3 2 4 3 1 1 1 2 2 7 5 7 8 7 5 3 7 11 11 11 9 9 7 5 4 3 3 2 1 1 2 2 5 6
20 14 8 5 6 10 4 2 3 2 3 3 2 2 2 2 2 3 3 3 3 2 1 1 1 1 2 5 12 16 13 13 6 4 6 6 6 9 8 7 8 8 5 5 5 4 3 1 1 1 2 2 2 3
9 6 3 7 5 4 3 5 4 3 3 3 2 2 2 2 2 2 1 4 2 0 1 2 4 6 7 7 9 15 18 16 12 15 15 16 5 5 4 7 7 6 5 4 4 4 2 1 2 2 1 2 3 4
8 4 5 5 5 4 1 1 3 2 3 3 2 3 2 2 1 1 3 2 1 0 2 3 6 12 15 16 19 17 15 18 12 13 14 13 11 9 9 7 5 6 5 5 5 4 2 2 2 2 1 1 2 3
5 5 4 3 4 3 2 3 2 3 3 2 2 3 1 2 1 2 2 0 0 2 4 10 14 9 12 11 5 8 12 17 15 14 14 14 9 6 7 8 7 6 4 6 5 3 2 1 1 1 2 3 4 4
6 7 4 5 3 4 4 3 3 3 2 1 3 1 2 2 2 1 3 3 3 4 5 8 8 7 6 4 8 9 14 18 15 11 8 10 13 10 7 6 5 4 3 4 3 3 3 3 3 3 3 3 4 4
7 4 4 1 2 4 3 3 2 4 3 2 1 1 1 2 2 2 2 4 3 3 4 7 6 6 4 7 6 7 11 15 18 11 8 9 9 7 6 5 3 2 1 1 3 4 5 5 5 5 4 4 5 5
4 3 2 3 1 3 3 3 3 3 3 3 2 2 2 3 2 1 0 2 2 7 18 16 15 12 10 13 15 13 15 12 8 10 10 8 5 4 4 4 5 3 3 1 2 3 3 4 6 5 4 4 4 5
2 3 3 3 4 3 4 3 3 2 1 1 2 3 4 4 2 1 1 1 11 21 17 13 14 21 23 20 19 19 19 18 18 16 15 12 9 8 7 6 6 5 3 3 3 4 3 2 1 1 2 4 5 5
3 2 3 5 4 5 4 2 1 1 2 1 3 2 2 2 2 2 2 10 21 25 20 19 18 20 21 20 17 14 19 18 14 4 3 2 2 3 6 6 6 4 3 3 2 3 4 4 3 3 3 5 5 6
2 2 4 3 4 3 2 0 0 1 2 2 2 2 2 3 7 5 8 14 16 17 20 23 24 23 21 20 18 15 14 7 6 5 4 3 4 9 8 6 4 3 2 2 0 1 2 3 4 4 4 4 4 5
2 3 4 3 2 1 2 1 1 2 2 3 2 3 2 1 5 13 10 9 16 20 22 20 16 18 20 19 18 14 7 5 3 4 4 6 10 10 8 5 2 1 1 0 1 1 2 3 3 3 4 6 7 8
3 3 4 3 0 1 2 2 1 2 3 3 2 2 2 3 3 4 5 5 11 14 16 20 20 15 12 13 10 7 6 11 10 11 10 10 10 8 6 4 3 2 2 2 1 1 3 4 5 6 7 8 10 10
2 2 3 3 2 2 2 3 4 2 3 2 2 1 1 2 3 0 3 3 6 12 17 15 16 17 15 11 11 14 15 14 13 12 10 9 8 7 5 3 2 2 2 2 2 3 4 6 7 8 9 10 10 11

GFSWCAN_925_spd_102.txt.gz
Wind_Speed
20 21 22 20 20 15 15 14 16 14 11 12 14 8 10 9 7 18 8 18 7 3 6 6 7 8 5 4 4 9 4 5 5 4 4 4 4 5 3 6 4 4 3 2 1 1 2 16 7 6 5 9 9 10
22 21 22 21 21 16 15 16 16 16 14 13 14 11 12 10 9 12 6 19 15 3 5 4 10 16 16 11 6 2 5 3 4 3 3 3 2 3 4 2 7 2 5 4 5 3 5 7 10 9 11 8 9 8
23 21 19 20 22 19 15 16 16 17 14 12 13 15 14 13 11 10 8 18 8 1 6 9 7 9 13 19 13 3 1 2 1 4 2 2 3 3 2 3 3 3 8 2 4 6 9 8 10 10 10 10 10 10
22 24 23 19 21 19 16 18 19 18 15 12 13 13 14 16 15 12 16 22 12 2 3 2 2 5 4 8 17 16 4 1 3 4 2 2 3 3 2 4 3 4 5 4 4 7 7 11 10 9 10 10 10 9
20 21 21 20 21 20 18 17 18 17 15 12 13 13 15 14 15 15 19 25 23 5 2 2 6 1 2 5 11 13 12 8 4 3 2 2 2 3 0 2 1 4 3 2 2 4 6 6 8 8 9 9 8 8
15 20 23 21 20 19 19 17 17 17 15 13 12 13 13 12 11 12 1 13 28 10 1 2 2 1 2 3 6 11 6 4 3 3 3 2 1 3 2 1 3 5 6 5 2 8 10 8 8 8 8 7 8 8
14 17 18 24 21 20 18 18 17 16 16 12 14 12 10 8 19 4 2 2 28 16 2 2 3 3 5 5 3 4 6 3 3 2 2 4 1 2 2 2 7 6 5 6 6 7 6 6 4 5 5 6 7 9
16 16 19 21 23 19 18 17 16 14 14 11 12 11 5 9 14 7 4 12 26 7 1 2 2 3 7 3 3 3 4 4 3 2 1 3 2 2 3 6 6 6 6 6 7 9 8 7 5 5 5 3 4 6
18 18 18 21 23 22 19 18 17 14 11 12 12 7 4 5 4 5 15 17 17 3 2 3 3 3 4 2 2 2 3 3 1 3 3 3 3 4 2 8 6 3 2 4 5 7 7 5 5 6 5 5 6 6
18 19 19 23 22 22 18 17 17 15 12 13 9 4 2 5 15 26 5 2 2 2 2 3 1 3 4 3 3 3 3 3 3 4 1 3 2 4 3 5 6 5 4 1 6 3 3 4 4 5 6 6 7 6
21 21 22 22 21 19 18 16 17 15 15 9 4 3 5 28 6 1 3 4 4 4 4 4 8 5 4 4 3 3 2 1 3 3 3 4 3 5 7 7 6 6 6 7 8 7 5 4 4 5 6 8 8 8
22 22 22 22 20 20 19 19 17 20 6 10 8 7 7 3 3 4 5 4 6 6 8 6 6 3 4 2 3 3 3 2 4 5 3 3 4 9 9 8 7 7 7 8 8 9 8 8 8 8 9 9 9 9
22 21 22 22 21 22 22 20 21 22 15 2 5 3 4 3 6 7 10 5 6 7 7 8 8 4 2 3 2 4 5 4 0 3 3 3 8 8 8 7 7 8 9 9 10 10 10 11 10 10 10 9 8 8
21 21 21 20 22 24 24 22 22 21 8 3 6 7 6 5 7 5 7 4 4 6 11 9 6 4 2 4 2 3 3 2 3 3 2 5 10 9 7 7 8 8 9 10 10 11 11 11 11 10 9 8 8 8
20 20 21 22 23 23 22 22 26 23 10 4 3 6 5 2 0 3 5 5 4 10 11 6 4 3 3 3 3 1 4 4 4 1 3 7 11 10 9 9 9 9 10 11 11 11 11 10 10 9 7 7 7 6
19 17 23 23 22 23 24 19 18 4 3 2 2 2 3 5 4 5 4 4 3 9 8 3 4 4 3 3 5 6 3 4 3 3 7 10 10 9 9 9 11 11 12 12 11 11 10 9 8 8 7 6 5 5
16 11 20 21 22 35 31 12 5 4 3 3 2 1 0 4 4 3 2 2 1 7 3 3 6 3 4 3 4 3 1 3 6 8 7 9 10 10 11 12 11 11 11 11 10 9 8 7 6 5 5 4 4 3
9 28 48 51 40 27 10 5 4 3 4 2 3 3 2 2 5 3 2 1 2 4 3 2 4 4 4 4 3 4 4 7 8 8 8 9 13 13 13 13 11 10 10 8 8 7 6 4 2 1 1 1 1 0
42 46 45 36 20 8 3 3 3 4 4 3 4 3 3 4 4 3 3 3 4 4 4 2 2 2 2 1 3 7 9 9 9 9 8 12 13 13 13 12 10 9 8 8 7 5 4 3 2 3 3 4 6 5
36 30 21 14 5 5 4 3 3 4 3 3 3 3 3 3 2 2 4 3 2 1 1 1 1 2 2 3 3 9 9 10 10 10 9 8 11 12 12 11 9 9 8 6 5 4 4 3 2 2 3 4 6 6
22 16 15 13 6 8 4 3 4 3 4 3 4 2 3 2 2 2 2 2 2 1 2 2 2 3 3 6 13 16 16 15 8 7 10 9 11 11 10 8 9 7 6 6 5 3 3 3 2 2 2 2 2 2
7 9 6 5 4 4 4 5 4 4 3 4 3 2 3 3 2 2 0 2 2 2 2 2 4 7 8 10 13 15 16 15 14 16 16 17 8 9 9 8 8 6 5 5 4 3 3 2 2 2 1 1 1 1
8 8 7 5 5 4 4 1 3 2 4 4 3 3 2 2 2 1 2 2 2 2 5 8 10 12 15 16 17 15 12 15 14 14 15 12 11 9 8 7 5 6 5 4 4 3 2 2 2 2 2 2 2 3
5 5 4 3 3 4 2 2 2 3 3 2 2 3 3 2 2 1 2 2 3 7 7 12 16 11 14 14 7 11 11 13 15 12 12 13 11 8 7 7 5 4 2 5 4 3 3 2 3 2 3 3 3 4
4 5 3 4 2 3 4 4 2 2 3 3 3 3 3 3 2 3 3 4 7 7 8 12 12 10 9 8 11 11 10 13 13 11 8 9 11 10 8 6 5 3 3 4 4 4 3 3 3 4 4 3 4 5
5 4 3 2 2 2 3 4 3 4 4 3 2 3 2 3 3 2 2 6 7 8 9 9 9 8 7 11 9 12 10 9 11 10 8 8 7 7 7 6 5 4 3 3 3 4 5 5 5 5 5 4 4 4
4 4 3 3 1 3 4 3 3 3 3 3 4 4 4 4 3 2 2 3 5 12 14 12 13 12 11 14 12 11 11 8 5 8 10 8 6 4 3 3 4 3 4 2 1 2 4 4 5 5 5 4 4 4
3 4 3 3 4 4 3 3 3 2 2 2 3 2 3 1 2 2 2 2 7 15 13 11 10 14 16 15 15 15 13 13 15 14 13 10 8 7 6 6 6 5 3 3 2 2 2 1 0 1 2 3 4 3
4 2 2 4 4 5 5 3 2 2 2 1 2 2 2 2 3 2 2 6 11 14 14 13 12 15 16 15 12 11 13 12 10 7 5 4 5 3 6 7 6 5 5 3 2 2 2 2 1 1 2 3 4 4
3 3 3 3 3 4 3 3 3 2 3 3 3 3 3 2 6 4 3 8 12 12 12 14 15 14 14 14 12 9 9 6 3 2 3 3 4 10 9 7 5 5 4 3 2 1 1 2 3 3 2 2 3 4
2 2 3 3 3 3 3 2 2 2 2 3 3 4 4 3 4 9 8 5 8 12 15 14 11 11 13 13 13 11 7 5 4 5 5 7 11 11 9 7 5 4 3 2 2 1 1 1 1 2 3 4 5 6
3 3 3 3 3 2 0 1 2 2 2 2 2 2 2 2 3 3 6 4 7 8 7 10 12 10 9 10 10 7 6 10 9 10 11 11 11 9 7 6 5 3 3 2 2 1 1 2 3 4 5 6 7 7
3 2 2 4 3 3 2 2 2 3 2 2 2 2 2 3 3 3 3 3 3 5 10 11 13 16 14 11 11 13 14 14 13 12 11 9 9 8 7 5 4 3 2 1 0 1 2 3 4 5 6 7 8 9

GFSWCAN_925_spd_105.txt.gz
Wind_Speed
26 28 27 24 22 21 19 18 16 19 15 15 14 9 10 8 5 10 3 9 4 3 7 8 6 7 6 6 6 11 7 7 6 7 5 4 4 6 4 7 6 7 6 5 3 2 4 18 8 6 5 7 8 10
24 26 28 26 22 22 20 18 17 19 16 15 14 14 10 9 7 8 4 9 10 5 6 11 13 15 14 13 7 4 2 6 4 3 5 4 3 3 5 1 10 3 5 4 6 3 4 7 9 8 7 7 9 9
25 28 25 24 23 24 18 19 20 19 17 15 14 14 10 10 9 10 4 12 6 2 8 10 1 3 5 10 10 5 2 4 4 5 2 3 4 4 4 5 3 3 8 3 5 5 7 8 9 10 9 9 9 9
22 23 24 25 24 25 20 18 14 19 18 15 15 13 15 12 11 10 8 14 7 1 3 1 3 2 2 3 10 13 8 4 6 5 1 3 3 5 3 4 4 4 5 4 5 7 8 8 8 8 10 10 9 8
22 26 23 22 23 23 23 19 19 19 18 16 13 12 14 12 12 11 13 15 19 5 2 3 4 1 1 2 5 9 9 7 5 4 2 3 4 4 3 2 2 5 3 2 3 3 7 6 7 8 8 8 8 9
22 23 22 23 20 23 22 18 17 19 18 17 13 13 12 13 13 7 1 13 22 13 1 3 2 2 1 3 4 6 7 5 5 1 4 3 2 3 3 2 4 5 5 5 3 7 10 8 6 7 6 7 8 9
21 21 24 22 19 20 20 18 17 17 16 17 11 13 13 10 12 6 3 3 25 18 2 3 2 2 1 3 3 3 5 2 3 2 3 4 1 2 3 3 6 5 5 6 5 6 5 4 4 4 4 5 5 8
17 20 23 23 24 20 19 18 18 17 16 13 12 14 14 10 8 9 3 8 27 6 2 3 2 4 5 2 2 1 3 3 3 3 2 5 2 2 3 7 7 6 5 5 6 7 8 6 4 3 3 3 3 6
18 17 20 21 23 23 20 19 18 17 15 10 9 8 6 5 2 6 13 24 10 1 2 3 3 3 4 2 1 2 2 3 2 2 3 3 4 4 4 6 7 8 3 6 5 6 6 5 4 4 4 4 5 5
18 18 18 19 22 23 21 18 18 16 14 10 9 3 3 6 11 24 4 2 2 2 2 3 4 3 4 3 5 3 3 3 3 5 1 3 5 4 3 5 7 5 3 3 5 5 3 4 4 5 6 6 7 7
18 17 19 19 23 25 23 19 20 18 13 9 4 3 5 27 7 2 3 3 3 4 5 5 9 5 4 4 4 3 2 2 3 2 3 3 3 5 6 6 6 5 4 5 7 7 5 5 5 6 6 7 7 8
19 19 18 18 24 24 22 20 22 21 10 10 4 5 6 2 2 4 5 5 6 6 7 6 6 3 3 2 3 3 3 2 4 3 3 3 4 8 8 7 6 6 7 8 9 9 9 9 9 9 9 9 9 8
22 20 20 20 23 24 23 20 21 17 10 6 4 3 3 4 6 7 10 5 5 5 6 7 6 3 3 3 1 3 4 4 1 3 3 3 8 8 8 7 7 9 9 10 10 10 11 11 11 10 10 9 8 8
22 20 21 22 26 24 23 22 19 16 2 2 3 6 4 6 6 5 7 7 4 7 10 9 4 3 2 4 2 4 3 2 3 4 1 5 9 9 8 8 8 8 8 10 10 10 11 11 10 10 9 7 6 6
22 21 21 24 25 24 24 23 21 12 3 3 4 6 8 1 2 3 3 5 6 9 10 7 4 3 3 3 4 2 3 4 4 1 3 8 12 10 9 8 9 8 9 10 10 11 10 9 9 8 6 5 5 4
23 20 23 25 24 23 24 20 14 6 2 2 4 3 0 5 4 3 4 4 6 9 9 4 4 4 4 3 5 7 3 4 2 3 7 10 11 10 9 9 11 12 11 11 10 10 9 7 6 6 5 4 4 3
26 11 22 26 25 22 26 9 5 4 4 4 4 3 2 1 4 3 3 3 8 9 4 3 6 5 4 4 4 3 1 3 7 8 8 10 11 11 13 14 14 13 13 12 10 9 8 6 6 5 4 3 2 2
18 21 22 31 28 21 6 5 4 5 7 4 4 4 1 2 4 3 2 5 6 5 4 1 3 4 4 4 3 4 4 6 7 8 9 10 14 15 15 15 13 12 11 10 9 8 7 5 4 4 2 3 3 5
21 21 21 35 33 12 4 5 5 3 1 2 4 3 2 3 3 4 4 3 2 1 3 2 2 3 2 2 4 6 8 9 9 9 9 14 15 15 15 14 13 12 11 10 8 5 4 1 3 3 4 4 7 7
27 26 43 39 16 6 5 4 3 3 3 3 3 4 3 4 3 3 4 2 2 2 1 1 1 2 2 3 3 8 8 9 10 11 10 9 14 15 14 13 11 11 9 6 4 2 3 3 3 3 5 7 8 9
36 31 27 17 4 4 3 3 3 3 4 3 5 4 3 3 3 3 3 1 2 2 2 2 3 4 2 6 12 15 15 15 8 9 11 10 15 14 13 10 10 8 6 5 4 4 3 4 3 3 5 5 5 6
15 17 9 7 3 3 3 3 4 4 2 5 5 3 3 3 3 2 3 2 2 2 2 3 5 7 8 9 13 15 13 13 14 17 16 18 9 11 11 11 9 6 5 4 4 3 3 2 3 4 5 4 4 4
11 6 5 4 4 3 4 2 3 2 4 5 4 4 3 3 3 4 2 1 3 2 5 7 12 13 16 16 16 15 14 16 15 15 16 13 12 11 10 9 7 6 5 4 3 3 3 1 2 3 3 4 5 5
7 5 3 3 3 4 2 2 2 4 3 3 4 3 4 3 4 3 3 3 3 7 6 11 14 11 14 15 8 12 13 13 16 14 13 12 10 9 8 7 6 4 2 3 4 3 3 3 2 4 4 5 6 6
4 4 2 4 2 4 4 5 3 3 3 3 4 3 4 4 4 4 3 4 6 7 8 12 12 10 9 8 12 12 11 13 13 12 11 8 9 9 8 7 6 5 4 4 4 4 4 4 5 5 6 6 6 7
4 3 3 2 3 2 4 4 4 5 4 4 3 4 3 4 5 3 3 5 6 7 8 9 8 8 8 12 9 12 12 12 13 12 9 8 7 7 7 7 6 4 3 3 3 4 5 5 6 6 7 7 6 6
4 3 2 2 0 3 4 3 3 3 3 4 4 6 5 4 3 3 2 3 4 11 12 12 12 11 11 15 15 15 13 10 8 11 11 8 6 4 3 3 4 5 4 2 1 2 4 4 5 5 6 6 6 6
4 3 3 2 3 3 3 3 2 2 2 1 3 2 2 3 3 3 3 1 3 10 10 9 8 13 15 15 16 15 14 13 14 13 12 9 7 6 6 5 5 7 5 4 3 2 1 1 1 2 3 5 5 5
3 2 3 4 4 4 4 3 2 3 2 2 2 2 3 3 3 2 3 3 10 13 13 13 14 16 17 16 13 12 14 12 11 8 6 4 6 4 5 6 6 5 4 3 3 3 2 1 1 1 2 4 5 6
3 2 3 3 3 3 3 4 4 4 3 4 3 4 5 4 5 2 3 6 10 11 13 14 15 15 15 16 15 12 9 6 5 3 2 3 4 9 8 6 5 4 3 2 2 1 2 1 3 3 3 4 5 6
1 1 3 4 3 4 5 4 6 5 3 4 5 6 6 4 6 8 9 8 11 13 14 14 13 12 12 12 12 12 8 4 6 6 7 8 9 9 7 6 5 4 3 2 1 1 2 2 3 4 5 6 7 7
3 3 3 3 3 4 2 1 2 2 2 3 3 3 3 3 3 3 7 6 6 10 10 11 13 12 11 11 10 9 10 10 8 8 9 9 8 7 6 5 4 3 3 2 1 1 2 3 4 5 7 7 8 9
3 4 5 4 4 4 2 2 2 3 2 2 3 2 4 4 4 3 4 9 9 10 12 13 13 13 12 12 12 13 13 12 12 11 10 8 8 8 6 5 4 3 3 1 1 2 3 4 5 6 7 8 9 10

GFSWCAN_925_spd_108.txt.gz
Wind_Speed
34 29 28 26 24 21 21 20 19 16 18 13 12 9 8 6 5 8 1 3 2 2 7 6 7 5 8 8 7 12 7 8 6 7 5 4 4 5 4 13 9 7 5 5 6 5 4 22 6 6 2 3 7 9
27 30 28 27 26 22 19 20 19 16 18 14 14 12 8 7 7 6 1 3 1 2 6 12 13 15 11 11 7 7 4 5 4 4 5 4 3 4 9 1 12 5 4 3 5 3 4 7 10 8 9 9 9 10
25 28 30 27 24 21 19 18 19 17 19 16 16 10 9 9 7 5 2 4 3 1 7 6 1 3 4 6 7 5 6 6 3 4 3 2 4 5 5 5 4 5 10 3 6 6 8 8 9 9 9 8 7 8
22 24 27 29 24 22 19 18 17 16 19 15 15 12 9 9 9 6 3 7 3 3 3 2 3 2 2 2 5 8 8 7 7 5 2 2 3 6 4 4 5 5 5 3 5 8 9 8 7 7 8 8 9 8
19 22 25 26 27 23 22 19 15 17 20 14 16 12 10 11 9 6 8 9 9 3 3 5 10 4 2 0 2 4 5 5 5 4 2 3 4 5 4 1 5 6 4 3 2 4 7 5 5 6 7 8 9 10
23 21 23 23 25 23 25 19 15 18 17 17 15 11 8 10 10 5 2 10 16 9 1 3 3 5 2 1 2 2 5 4 5 4 3 3 4 3 3 2 4 6 7 7 4 7 9 6 4 4 6 8 10 11
20 24 24 20 22 21 23 20 15 17 17 16 14 9 10 10 13 5 2 2 16 14 2 3 2 2 2 2 1 2 3 2 3 3 3 5 3 2 1 2 7 7 6 6 6 6 5 1 3 3 4 6 8 12
24 26 25 22 21 19 20 19 15 17 16 16 11 7 9 10 10 13 18 3 21 5 3 3 1 3 4 1 1 1 1 2 3 3 3 5 2 1 2 7 9 7 6 5 5 5 6 4 5 3 5 5 8 9
25 25 25 25 22 20 20 18 18 17 16 14 8 9 5 6 4 4 14 12 10 3 2 3 3 2 4 2 1 2 2 2 3 2 3 3 3 3 4 8 9 6 5 9 6 5 6 5 6 7 8 9 9 8
22 22 26 25 22 21 20 18 18 19 18 12 9 5 2 6 9 19 7 1 2 1 2 3 5 3 4 3 3 2 2 2 2 4 1 2 2 4 3 6 9 7 4 6 6 5 4 6 7 8 9 10 10 10
19 20 22 24 23 23 20 19 20 19 17 8 4 3 3 21 5 2 3 3 3 3 4 4 7 5 4 3 3 3 2 2 2 2 2 3 3 6 6 9 8 6 6 7 11 9 9 9 8 7 8 11 11 11
19 18 19 20 24 26 23 21 22 21 8 9 5 3 6 2 2 4 5 5 6 5 8 5 6 6 3 3 3 2 2 2 4 2 2 2 3 7 8 8 7 8 9 10 11 11 12 12 12 12 11 10 10 9
19 18 18 20 25 27 25 22 24 17 9 3 3 4 4 4 6 6 9 4 5 3 4 5 4 3 2 2 0 1 2 4 2 2 3 3 8 7 8 8 9 10 11 13 13 14 14 15 13 12 12 10 9 8
20 18 18 18 25 26 24 22 26 14 4 3 4 6 4 5 5 4 6 6 3 7 8 6 4 2 2 3 2 3 3 2 3 3 0 5 9 8 8 8 9 9 11 13 14 14 14 12 12 13 11 9 8 8
20 19 20 20 25 25 24 21 23 7 2 3 2 4 6 1 2 2 3 5 5 8 9 5 3 2 2 3 3 3 3 4 4 1 3 8 10 10 9 10 9 8 9 10 11 11 11 11 10 9 7 6 6 5
21 16 19 22 27 25 24 21 12 3 2 2 3 3 2 2 2 1 1 2 6 8 7 4 4 4 4 3 5 6 3 4 2 4 7 10 10 9 9 9 11 11 11 12 11 11 10 9 7 7 5 3 3 2
24 11 23 27 28 25 24 9 4 4 3 2 2 2 4 4 1 2 2 4 9 9 4 3 6 6 4 4 4 4 1 3 7 7 6 9 10 10 12 13 12 13 12 12 11 10 8 7 7 7 8 7 7 6
19 18 29 32 27 24 10 2 4 4 5 4 3 3 1 2 1 2 2 4 5 7 4 2 2 3 4 4 3 4 4 6 7 7 8 9 14 15 15 15 13 13 13 11 11 9 8 8 9 8 5 7 6 10
19 26 33 33 27 9 5 4 4 3 3 2 1 1 0 1 1 1 2 1 3 1 1 2 1 3 1 2 3 6 7 8 8 8 7 14 15 15 16 15 14 13 12 12 11 10 9 5 2 2 4 3 6 6
19 24 33 33 24 3 4 3 7 2 3 3 2 4 2 2 2 1 0 1 1 2 2 2 1 2 3 2 1 6 7 8 9 9 9 8 14 16 16 15 13 13 12 10 6 3 5 5 5 2 2 5 5 7
22 18 28 24 9 4 1 3 4 3 4 4 4 5 2 4 3 4 3 3 2 2 2 1 2 3 3 4 10 14 14 14 8 8 9 9 15 15 14 12 13 13 10 9 7 7 3 3 2 2 3 4 4 5
13 25 11 16 6 4 0 5 4 5 3 4 5 4 3 3 3 3 4 3 2 2 2 3 5 6 6 7 10 12 12 11 13 17 17 18 8 11 12 12 12 9 7 6 5 4 2 1 2 1 2 2 2 3
22 18 7 3 3 6 3 4 2 6 4 6 5 5 3 3 3 5 3 1 2 2 4 7 11 10 12 13 13 12 13 15 13 14 16 13 13 12 12 11 9 8 6 6 3 3 3 3 1 0 3 3 5 6
12 5 5 7 5 4 3 3 3 3 3 4 4 4 5 3 5 3 3 3 3 6 6 10 14 9 11 12 8 12 13 13 14 14 13 13 11 11 10 8 6 5 2 7 5 4 4 2 2 3 4 3 6 7
3 2 1 4 3 5 4 5 4 4 3 4 4 3 4 4 4 4 3 4 6 6 6 11 11 9 8 7 10 12 13 15 12 10 11 11 12 11 10 8 7 6 4 5 4 4 4 4 2 4 5 6 6 7
4 2 3 2 3 3 5 5 5 5 4 4 2 4 2 3 4 2 3 3 4 6 6 7 7 7 7 13 9 11 11 12 15 12 10 11 11 10 9 8 7 5 3 1 0 2 3 4 4 4 6 7 8 6
2 2 1 1 2 3 3 3 3 3 3 4 5 6 4 4 4 3 3 6 3 10 9 9 9 9 10 14 14 14 12 10 12 15 13 12 11 9 7 4 6 8 6 4 2 0 2 3 3 4 5 6 5 6
2 2 4 3 3 3 2 2 2 2 2 2 5 4 3 4 3 2 3 5 3 9 6 4 5 13 19 20 18 16 14 20 20 17 16 13 9 8 7 8 9 10 7 6 4 3 2 1 1 2 3 4 5 6
3 2 4 4 3 3 3 3 2 3 3 3 2 3 3 3 4 4 3 3 9 13 14 16 17 20 21 18 14 11 13 12 13 9 8 6 7 6 6 8 7 6 5 4 4 2 2 2 1 1 2 4 5 6
2 1 3 3 2 3 3 4 4 3 3 5 4 6 6 6 5 3 1 1 7 9 11 12 13 14 14 14 14 12 9 7 5 3 4 5 8 12 9 7 6 5 4 3 3 1 3 2 3 4 3 4 6 6
1 1 3 3 3 4 5 5 6 5 3 5 6 7 6 3 4 9 11 14 13 17 15 12 11 11 12 12 13 12 9 6 9 9 10 12 14 12 10 8 6 5 4 3 2 1 1 2 3 4 5 6 8 8
2 2 3 4 4 4 4 2 2 2 3 3 3 4 4 3 3 3 10 15 2 9 12 13 13 13 14 15 13 12 14 14 12 12 13 14 12 10 8 7 7 5 4 3 2 1 2 3 4 6 7 8 9 10
4 5 5 5 4 6 3 3 3 3 2 3 3 3 4 4 4 3 4 13 12 14 15 16 15 14 14 14 15 17 16 16 14 14 13 12 12 10 9 7 5 5 4 3 2 2 3 4 5 6 7 8 9 10

GFSWCAN_925_spd_111.txt.gz
Wind_Speed
26 26 27 27 27 24 22 23 22 21 17 14 10 9 8 5 6 6 2 1 4 2 4 4 5 3 4 4 2 5 5 5 4 6 4 4 3 3 1 6 4 5 5 4 4 4 4 20 7 6 4 6 8 8
29 28 28 29 26 24 25 22 22 20 19 15 13 10 9 7 6 7 3 4 2 2 4 8 13 15 9 4 0 4 3 5 2 3 3 3 3 4 4 3 8 4 3 3 5 4 4 8 10 10 8 6 6 7
33 34 29 28 26 23 22 22 22 19 19 16 13 12 9 8 6 6 4 4 4 3 4 2 3 0 7 11 6 2 3 4 3 1 1 2 2 3 3 2 3 3 4 4 3 5 8 8 8 9 7 5 6 8
37 35 29 28 26 23 21 21 19 18 20 17 15 11 10 8 7 5 3 2 2 1 1 4 3 3 4 2 5 6 3 6 4 1 2 2 2 3 2 3 4 4 4 3 5 8 9 7 7 6 8 8 10 10
24 28 29 27 27 25 23 19 17 18 20 18 15 12 9 8 8 5 2 2 3 2 2 4 16 5 5 2 2 3 4 1 2 3 1 2 2 3 3 3 3 4 3 1 2 5 5 5 5 6 6 7 9 9
20 24 30 28 27 25 22 19 16 19 18 17 16 13 8 7 10 4 2 5 10 4 1 3 6 3 7 3 4 5 3 2 0 1 2 3 1 2 2 2 5 7 4 4 4 8 10 7 3 3 6 7 14 13
24 25 28 28 27 24 22 18 18 20 18 17 16 12 7 9 13 4 2 2 12 10 1 2 2 3 4 1 2 2 3 1 2 2 2 2 2 2 2 2 7 7 5 8 7 8 6 5 4 4 6 14 19 18
25 27 27 23 22 22 22 18 16 19 18 18 14 7 8 7 7 9 12 3 19 4 1 1 3 1 2 1 1 1 1 2 2 2 2 1 2 2 1 9 9 9 8 8 8 9 8 7 6 7 13 17 12 10
24 26 29 22 25 23 22 20 17 18 19 19 12 10 6 3 3 4 5 8 11 2 2 2 1 3 2 1 1 1 1 1 3 1 2 2 2 1 3 11 11 10 7 9 9 7 6 7 9 10 11 10 11 9
25 23 27 26 25 24 23 20 20 21 21 17 12 5 2 6 7 17 5 2 2 1 1 3 2 2 3 1 0 0 1 2 1 4 1 2 1 1 4 8 7 7 12 10 7 7 8 9 9 9 9 11 13 12
26 28 28 27 25 24 22 23 23 23 20 6 4 3 3 17 4 1 3 3 3 3 3 4 5 3 2 3 2 3 2 2 1 3 3 2 3 2 7 9 7 10 15 14 14 14 15 14 9 9 10 14 14 12
24 25 27 27 25 24 22 23 25 19 9 9 8 4 7 3 2 3 4 4 4 5 4 3 4 4 1 2 2 1 2 3 3 1 3 2 2 8 8 8 8 13 17 17 19 17 18 18 18 17 15 13 12 10
24 25 25 25 25 25 24 25 27 15 12 7 1 1 2 3 5 4 6 3 3 3 4 3 2 3 3 2 2 1 1 3 1 1 3 1 6 7 8 10 10 17 19 18 17 20 21 19 18 16 14 13 10 10
22 22 22 23 26 27 25 23 26 9 3 2 3 4 4 4 4 4 4 5 4 4 5 4 2 3 1 2 2 3 3 1 2 2 3 4 8 7 9 7 10 9 15 15 15 17 16 17 17 15 13 10 10 10
21 19 20 22 28 27 25 20 21 9 2 2 2 4 5 3 1 2 3 2 1 4 5 3 3 3 1 2 2 3 2 3 5 3 2 7 9 11 10 10 9 8 12 13 16 17 17 17 16 14 9 9 8 7
19 16 16 22 26 25 21 21 13 1 0 2 3 3 2 1 1 2 2 3 1 3 3 3 3 3 4 3 4 6 3 5 2 2 5 9 10 9 9 9 14 18 18 17 17 16 15 14 13 12 7 5 4 3
19 6 19 24 27 26 24 9 4 3 3 2 3 2 1 1 2 1 1 2 3 4 3 3 5 6 3 2 4 4 4 1 5 6 6 9 10 9 13 16 18 19 19 18 16 14 13 10 10 9 8 7 6 6
10 15 25 28 28 23 7 2 4 3 4 3 3 2 1 1 1 1 2 1 2 2 2 2 2 2 4 4 3 3 2 4 5 6 7 9 13 16 18 17 20 20 19 18 16 13 12 10 10 12 12 10 9 11
14 24 30 31 25 8 4 2 2 2 3 1 2 1 1 0 1 2 1 4 2 1 2 2 0 2 2 1 2 4 7 3 7 6 6 14 19 19 21 20 19 19 18 18 16 14 12 11 9 4 7 13 5 7
18 33 32 32 17 3 3 2 5 2 2 3 2 2 2 1 1 1 1 2 2 1 1 2 1 2 1 1 1 5 6 7 8 7 6 6 17 20 19 17 16 17 16 14 14 11 14 13 10 8 6 2 4 5
27 30 30 28 3 2 0 3 3 2 2 2 3 3 2 2 1 2 1 1 0 2 2 1 2 2 4 4 11 15 14 14 6 5 8 8 15 15 18 17 18 18 16 16 15 12 9 4 13 9 7 4 3 0
18 23 8 8 1 1 2 3 1 3 2 2 3 2 2 2 2 2 2 3 2 1 1 2 3 3 2 2 9 15 18 19 17 19 19 19 9 11 13 16 18 14 15 19 16 18 11 13 9 6 4 3 1 1
18 15 5 4 3 3 2 0 3 4 3 4 3 2 2 2 2 3 2 1 1 1 5 5 11 12 12 13 14 13 16 20 15 16 18 17 18 18 20 20 18 15 12 12 11 14 12 8 5 4 3 1 1 4
13 4 5 6 5 3 2 3 2 2 2 3 4 3 4 2 3 1 3 2 2 3 4 6 13 7 8 9 2 9 17 20 18 18 19 19 14 18 20 16 13 10 11 15 11 12 9 7 4 2 2 5 4 5
5 4 3 4 3 4 4 3 2 3 3 4 3 2 2 3 2 3 3 3 2 2 4 10 7 5 3 2 8 11 18 21 15 9 19 19 19 20 19 17 13 11 11 12 11 10 9 7 6 5 4 3 2 3
5 4 4 6 4 4 5 4 5 4 3 3 2 2 2 2 3 1 2 1 2 3 5 5 4 3 2 11 4 10 17 18 21 14 15 20 21 21 15 12 10 5 7 6 9 8 8 10 8 6 4 3 5 6
4 3 2 2 2 2 2 1 2 3 3 4 3 4 3 4 3 2 1 5 2 7 12 11 9 10 10 15 18 16 17 20 20 19 18 16 13 12 17 16 14 11 9 8 7 6 4 5 4 3 1 1 3 2
2 1 4 2 2 2 2 2 2 1 1 3 3 5 2 1 2 2 2 11 6 15 16 14 12 22 25 25 24 23 25 25 24 21 18 15 11 11 12 14 13 11 8 6 6 6 5 5 4 3 1 1 3 4
1 1 3 4 3 3 4 4 2 2 3 2 2 3 2 3 4 6 7 12 14 18 17 18 18 25 25 22 19 21 20 19 18 6 5 3 5 6 8 10 9 7 6 5 4 3 3 2 2 1 2 3 4 5
2 0 3 2 3 2 2 3 2 1 1 3 4 3 2 3 9 12 14 13 8 12 14 16 17 18 16 17 16 16 12 9 9 9 6 5 11 13 12 11 10 8 5 5 6 6 5 4 4 4 3 4 4 6
1 1 3 3 3 2 1 0 2 5 3 4 4 3 3 3 4 15 20 18 13 18 17 14 15 16 16 16 16 15 10 8 7 8 11 16 17 15 12 10 10 10 8 6 5 3 2 2 3 5 4 5 6 6
1 2 3 3 2 1 1 2 2 2 3 2 2 2 2 3 3 6 18 19 2 12 12 15 15 15 15 14 11 7 9 14 13 14 15 17 16 14 12 11 9 8 7 7 5 4 3 3 3 4 5 7 8 9
2 3 3 3 2 3 2 1 2 1 2 2 2 2 3 3 3 2 9 19 18 20 21 21 20 18 16 16 16 18 18 16 14 13 13 13 13 13 12 9 8 9 8 5 3 3 3 4 4 6 5 6 9 12

GFSWCAN_925_spd_114.txt.gz
Wind_Speed
29 31 30 28 27 26 27 27 25 24 19 16 12 11 10 9 11 6 6 6 3 2 4 3 3 1 3 3 2 4 4 4 4 5 3 2 2 3 2 4 4 6 4 4 3 4 3 18 4 5 5 6 8 8
28 28 28 28 27 24 23 25 24 22 19 17 13 13 11 9 10 7 5 5 4 4 4 5 14 14 7 4 3 3 1 2 2 3 1 2 2 3 4 3 6 4 3 2 5 3 4 6 10 8 5 5 5 7
31 28 29 26 27 24 23 26 24 23 21 16 16 13 12 10 9 10 9 5 3 3 3 3 3 3 4 9 6 3 3 1 2 3 1 1 2 2 3 2 3 3 1 3 3 4 8 7 8 7 6 6 8 9
32 29 29 30 27 26 25 24 24 22 20 18 15 15 12 10 9 9 6 5 5 3 2 3 8 2 3 4 9 5 3 2 0 2 1 1 1 0 1 2 3 2 4 3 4 7 8 7 7 5 8 10 11 13
32 30 28 27 25 26 25 25 23 21 22 19 17 14 13 11 9 8 7 5 3 2 2 3 12 1 4 4 4 4 2 1 2 2 2 1 1 3 2 2 2 3 2 0 2 7 5 5 6 6 9 10 10 11
35 39 31 29 26 25 25 24 22 22 21 20 18 14 12 12 11 5 3 4 6 2 1 2 5 3 5 3 2 2 1 1 2 2 2 2 2 3 2 1 3 5 7 0 3 6 10 7 5 8 10 11 15 15
40 37 33 31 28 26 24 23 23 24 22 20 17 13 9 12 12 4 3 2 9 4 1 2 2 2 1 1 2 3 3 1 2 1 1 1 2 3 2 2 7 6 6 7 8 9 7 4 3 8 17 18 20 19
30 31 34 33 30 26 24 20 25 23 22 20 16 11 10 10 8 2 2 5 14 4 1 1 3 3 1 1 2 1 2 3 2 2 2 0 3 2 2 8 10 9 9 8 7 7 8 12 13 16 18 17 12 10
26 31 33 33 30 27 24 23 25 24 23 21 15 14 10 3 3 3 4 8 3 2 1 1 2 3 1 2 0 1 1 1 2 1 2 2 2 0 3 9 11 11 8 9 8 9 10 12 10 10 11 10 11 8
30 31 32 32 30 29 25 23 25 25 25 20 15 3 2 5 13 14 5 1 1 1 1 2 1 1 3 1 1 1 1 2 0 3 1 2 1 2 2 5 7 8 11 10 11 8 9 7 8 9 10 12 11 10
31 33 31 31 29 28 27 25 26 28 23 5 3 2 3 18 5 2 2 2 2 2 3 4 4 2 1 2 2 2 2 1 1 3 3 1 2 1 7 9 8 11 12 9 7 9 10 13 11 10 10 12 11 10
28 33 31 31 29 29 26 27 31 20 10 8 7 5 7 2 2 3 3 3 4 4 3 4 4 4 1 3 3 0 1 2 3 0 3 3 1 6 11 10 9 14 17 15 17 17 17 17 17 16 13 12 11 10
28 30 29 29 29 28 30 30 29 15 12 7 2 2 2 1 4 4 6 3 2 3 4 2 1 3 2 3 2 1 1 3 1 1 3 2 4 7 10 11 10 15 19 18 17 19 19 17 15 15 14 13 13 11
28 30 30 30 29 29 29 29 18 12 3 2 2 4 4 4 4 4 4 4 4 3 5 3 2 2 1 3 1 3 4 1 2 2 4 3 10 11 9 9 12 8 12 14 14 16 17 18 16 14 14 13 13 12
29 26 25 27 28 27 27 28 16 5 3 1 1 3 4 3 3 1 1 1 2 4 4 3 3 3 1 3 2 3 0 3 4 4 3 6 10 12 10 8 10 9 12 13 18 18 19 19 18 16 13 12 11 10
27 25 20 27 27 27 27 21 10 4 2 2 1 2 2 1 2 1 2 1 1 4 2 3 2 3 2 3 3 5 3 5 4 2 2 8 10 9 10 9 12 17 19 19 20 21 20 18 17 14 12 10 9 7
17 7 22 28 27 26 21 8 3 1 2 1 2 0 1 2 1 1 1 1 1 3 2 3 4 6 2 2 4 5 5 3 2 2 2 5 10 9 11 15 17 20 20 21 21 19 18 15 14 13 12 11 10 10
11 23 26 30 32 23 8 2 3 3 3 3 1 2 1 1 2 2 1 2 2 2 2 3 3 2 5 5 4 3 1 2 2 3 2 5 11 15 18 18 21 22 21 22 20 19 17 16 15 14 10 8 8 9
20 27 33 34 23 8 4 1 1 2 4 2 0 0 1 2 3 2 1 2 2 1 2 2 2 3 3 2 3 2 4 3 3 2 2 11 19 19 21 23 22 21 21 21 19 17 17 16 15 13 13 13 11 7
23 29 31 25 12 3 3 1 4 1 2 3 2 1 2 2 1 0 1 2 2 1 1 2 3 3 3 2 2 3 3 5 7 5 3 2 16 21 20 19 16 21 20 18 17 13 12 13 14 12 9 11 13 9
25 23 30 13 3 4 1 2 2 3 2 2 2 3 2 0 1 1 0 1 1 2 2 3 3 3 1 2 7 12 12 14 6 5 5 6 13 16 18 18 20 19 15 16 14 15 15 17 15 14 13 9 6 4
14 17 6 4 3 2 1 4 2 2 2 2 2 2 1 1 2 2 2 1 3 3 3 3 3 3 2 3 6 12 15 14 13 15 15 21 7 11 14 17 17 14 17 19 18 16 16 12 13 14 10 7 5 5
18 10 4 3 2 2 3 3 3 3 3 3 2 2 1 2 2 2 0 3 2 2 3 3 6 11 8 9 11 12 18 19 11 13 15 15 17 17 18 17 21 18 13 17 18 19 14 16 12 9 7 7 4 4
15 5 4 5 4 3 0 2 2 2 2 2 3 3 3 2 1 1 3 2 3 1 1 4 11 4 5 7 2 7 13 18 15 14 18 18 13 15 20 20 22 21 18 15 16 18 18 14 9 6 5 7 6 5
4 4 4 5 3 3 3 2 3 2 2 4 4 1 2 2 2 3 3 1 2 1 1 7 6 3 3 1 5 11 15 20 14 10 18 17 15 14 14 14 12 11 16 19 18 16 13 9 8 6 7 7 8 8
5 6 7 6 3 5 5 4 6 6 3 2 3 1 2 2 3 4 0 3 0 2 3 4 4 2 1 5 3 7 13 16 20 13 8 20 22 20 15 12 12 8 10 10 11 12 11 11 11 10 9 8 7 6
4 4 2 2 1 1 1 0 2 3 3 4 3 3 3 4 4 1 1 3 2 2 9 12 13 9 8 11 13 13 15 18 18 15 14 17 20 21 23 20 16 11 9 8 8 9 10 11 12 9 7 5 3 2
1 1 3 2 1 1 3 1 3 4 3 1 2 4 3 0 2 2 2 12 5 12 12 11 11 18 23 22 21 22 22 23 23 21 19 16 11 9 11 11 11 10 7 5 5 5 5 6 6 6 5 3 2 0
1 0 2 2 2 3 3 2 1 1 1 1 2 2 2 2 4 5 7 10 6 14 15 15 15 21 21 19 18 20 26 26 23 6 4 2 4 7 10 10 10 8 6 5 5 4 4 3 3 2 1 2 2 3
3 2 3 2 2 1 1 1 0 1 2 3 3 2 2 3 8 12 11 9 9 13 13 14 17 19 17 18 17 14 10 9 5 9 6 5 10 13 12 10 9 9 9 8 9 9 6 5 5 4 2 0 1 3
2 2 3 3 2 0 2 2 3 4 3 3 2 3 3 2 3 17 17 9 13 15 16 14 13 15 17 17 16 14 10 6 4 5 5 10 15 15 12 11 9 8 8 7 6 5 4 4 4 3 2 2 4 6
2 2 4 3 0 2 3 1 1 2 1 3 2 2 3 3 3 7 17 8 9 13 13 14 16 12 12 13 11 7 9 13 11 12 14 16 16 14 12 11 9 7 6 6 5 4 3 3 2 3 4 4 5 8
2 3 3 3 2 1 3 2 2 2 3 2 0 2 2 3 2 2 9 10 12 17 18 17 16 15 14 12 13 15 15 15 14 14 15 14 13 11 10 9 8 8 7 6 4 4 3 3 3 3 4 6 8 9

GFSWCAN_925_spd_120.txt.gz
Wind_Speed
28 29 26 28 27 27 24 22 24 21 17 14 16 13 13 12 13 8 11 9 5 3 1 2 2 4 3 2 3 2 3 3 3 3 2 1 1 1 2 2 3 3 4 3 2 2 1 12 2 2 5 5 7 5
32 33 28 27 28 28 27 23 24 21 16 14 16 13 14 12 13 10 7 11 13 4 3 3 3 3 4 6 4 1 4 1 2 3 1 2 1 2 1 1 3 2 2 2 4 2 3 6 9 7 5 4 2 6
33 35 33 30 29 29 28 25 24 21 17 17 16 13 14 12 9 7 13 9 7 3 4 4 3 7 8 6 3 3 2 2 1 2 2 2 3 1 2 0 2 2 1 3 3 3 5 5 7 6 6 6 6 7
39 37 32 31 32 29 28 26 26 23 19 18 16 13 14 12 9 11 9 9 6 4 3 0 4 4 4 7 5 3 4 3 4 2 2 1 2 1 1 2 2 1 2 3 4 6 8 5 5 7 8 8 10 10
29 40 34 29 32 30 28 26 24 22 18 18 17 16 14 14 14 16 16 12 7 4 3 2 1 4 5 6 6 4 4 3 2 2 2 0 0 2 1 2 2 1 3 2 3 8 3 5 6 7 8 7 7 9
30 40 35 35 33 29 29 29 25 22 22 20 19 17 17 19 19 6 3 5 7 5 4 2 3 2 4 6 7 5 3 3 2 2 1 1 2 2 2 1 3 2 2 1 4 3 6 10 7 6 9 7 11 12
34 37 35 34 32 29 30 30 27 23 21 21 19 17 14 10 6 7 3 5 6 5 3 2 3 2 3 3 3 3 4 2 2 1 1 0 1 3 2 2 4 4 6 8 12 12 7 7 4 9 15 14 15 14
39 37 35 37 31 30 31 30 27 25 24 22 19 16 15 15 13 8 9 9 6 7 4 3 1 1 4 2 1 2 2 2 3 1 1 0 1 1 1 2 7 8 9 7 3 4 6 13 14 10 14 14 9 7
41 39 34 34 32 31 31 30 27 26 24 21 19 18 12 5 3 4 13 9 10 6 3 2 5 3 2 1 1 2 2 2 2 1 1 2 1 2 3 9 8 9 8 8 8 10 10 11 10 9 9 7 7 6
41 38 36 35 34 31 29 31 31 28 25 26 14 5 2 4 19 13 3 3 4 2 2 1 1 2 3 1 1 2 1 1 1 2 1 1 3 2 1 7 8 8 12 12 10 6 7 8 8 7 5 6 8 8
40 38 36 33 33 31 31 33 30 28 23 4 3 2 7 15 3 2 2 2 1 1 2 2 3 2 1 3 2 1 2 1 1 3 2 2 3 3 1 7 8 10 15 9 6 6 10 10 10 8 7 9 11 12
39 38 36 33 31 32 35 34 31 12 7 6 12 9 5 2 2 3 2 2 2 4 3 4 3 3 1 2 3 1 2 2 2 0 1 3 3 3 5 5 7 11 13 9 9 12 14 14 15 14 13 13 12 12
39 38 35 31 33 34 35 34 17 18 23 11 4 2 3 1 2 5 6 2 3 3 3 2 2 3 2 3 3 2 3 3 1 1 3 4 2 4 5 5 6 8 12 13 12 15 17 16 16 16 15 14 14 13
39 37 34 33 35 34 34 22 18 13 4 3 3 3 4 3 2 3 2 2 2 3 4 3 2 2 1 3 1 4 3 2 3 1 4 3 6 7 6 5 7 6 9 12 13 17 18 18 16 14 16 17 16 14
38 36 32 31 33 33 27 19 11 7 3 2 2 2 3 2 2 2 2 0 1 3 3 3 3 2 2 3 1 3 4 2 5 4 3 3 4 8 7 4 6 6 9 11 16 17 19 19 18 17 16 14 12 12
34 31 26 29 32 28 23 15 8 4 3 2 2 2 2 0 1 1 1 2 2 2 2 3 3 3 1 3 3 4 4 5 4 3 3 1 5 5 6 5 9 13 15 17 19 20 19 19 20 18 16 12 10 8
24 11 30 33 28 23 17 7 3 3 1 2 2 1 0 1 1 1 2 2 3 2 2 3 4 5 2 2 1 3 4 4 3 3 1 3 5 6 8 12 15 17 17 19 18 18 18 17 17 16 14 13 10 7
22 34 36 33 27 19 10 3 3 2 2 1 2 2 0 1 1 2 2 2 1 1 2 3 4 3 4 4 3 3 3 2 1 2 1 1 5 12 16 15 19 19 20 20 19 19 20 19 17 15 12 11 9 8
36 37 32 27 17 5 3 1 2 2 2 1 1 1 1 1 2 2 1 4 2 2 3 2 3 2 3 3 4 3 3 3 2 1 1 2 7 15 15 16 19 19 20 21 20 20 21 18 15 13 12 10 8 6
36 34 28 17 4 3 3 2 1 2 1 2 1 1 2 1 0 0 1 1 0 2 2 2 4 3 4 3 4 3 3 3 3 2 0 1 6 13 17 19 17 20 18 17 16 16 15 13 11 10 10 9 7 8
27 19 17 8 4 7 3 2 1 0 1 1 0 1 1 2 2 2 1 1 1 2 3 3 4 3 4 1 2 3 8 10 3 3 3 2 8 13 14 14 16 18 15 16 15 16 16 16 13 13 11 11 9 7
10 16 7 5 4 3 3 0 2 1 2 0 1 1 1 1 2 2 1 1 3 3 3 3 2 2 2 2 2 3 7 10 8 8 10 15 4 7 10 16 16 14 16 20 19 19 18 14 10 9 10 10 8 7
15 8 2 2 4 3 2 1 1 1 3 2 1 0 1 2 2 1 1 3 3 1 2 0 1 1 6 6 7 6 8 11 9 9 9 6 10 12 15 18 18 19 15 18 18 15 14 11 10 9 7 7 8 7
9 3 2 2 2 1 0 2 3 3 2 3 3 2 3 2 2 1 3 3 2 4 3 3 3 3 5 5 2 3 6 9 10 8 9 11 9 10 15 18 17 16 16 13 14 13 12 10 9 9 9 8 7 8
4 3 5 2 1 2 1 2 0 2 3 4 2 2 3 2 2 3 3 2 3 1 1 1 5 2 3 1 1 5 7 11 12 6 9 8 12 12 10 12 13 12 11 10 12 13 12 11 12 12 10 8 7 7
2 3 5 5 4 4 4 2 3 5 3 3 4 1 2 2 1 4 0 2 2 2 2 1 1 2 1 2 2 4 6 8 9 8 8 10 14 17 14 9 7 9 11 11 11 9 10 12 13 11 9 7 6 5
1 3 2 2 2 2 1 0 1 2 3 4 2 3 2 2 5 2 1 2 2 6 12 8 4 2 4 6 8 8 9 9 5 8 11 10 8 9 14 13 11 6 6 6 6 6 9 11 11 10 7 5 2 0
3 2 4 3 2 0 2 2 4 5 3 1 2 3 4 4 2 2 2 8 12 9 5 5 4 5 9 10 11 14 13 14 17 18 16 14 10 9 8 7 11 10 9 8 6 5 5 5 6 6 7 6 5 3
2 2 3 2 1 1 2 3 2 1 1 1 3 3 3 1 1 3 5 11 9 3 3 7 10 12 15 14 11 12 18 17 13 5 5 3 5 9 13 14 13 11 9 9 9 9 10 10 10 9 8 7 7 5
3 2 2 2 4 4 3 2 2 1 2 3 2 2 2 1 5 7 8 7 7 7 6 5 8 10 11 14 16 13 10 8 6 6 5 3 8 17 15 13 12 11 10 11 13 14 12 12 12 10 8 7 4 3
3 2 2 2 1 1 1 2 4 4 2 2 2 2 2 1 2 13 14 9 3 5 8 12 12 10 11 11 12 11 8 7 7 6 6 13 21 18 15 14 13 13 12 12 12 11 11 10 9 7 6 5 4 5
2 2 3 2 1 0 1 1 1 2 1 1 1 1 1 1 2 6 17 8 6 10 9 12 15 13 12 11 10 10 12 13 14 16 18 21 20 18 16 14 12 11 11 11 11 10 9 8 8 7 6 6 6 7
2 2 2 2 1 1 0 1 1 2 2 1 1 1 1 2 2 1 7 9 7 10 14 16 16 16 16 16 17 18 18 20 20 19 19 19 18 17 15 13 11 10 11 11 11 9 9 8 8 7 6 6 7 7

GFSWCAN_925_spd_123.txt.gz
Wind_Speed
27 25 25 24 26 25 23 21 20 17 14 14 12 12 10 9 6 10 9 9 4 3 2 2 2 4 3 2 3 3 2 1 2 3 2 2 2 2 2 2 2 1 0 2 0 1 2 8 1 1 6 8 7 7
28 28 25 28 27 26 24 21 21 18 15 14 12 12 11 7 9 7 7 15 15 6 3 5 9 7 6 6 5 1 3 2 2 3 1 2 2 1 2 2 2 1 1 2 2 2 3 4 8 6 5 8 6 8
33 28 26 27 29 27 26 23 21 17 14 14 13 13 11 8 5 5 12 9 12 4 4 4 4 5 8 9 7 4 0 3 2 1 2 2 3 2 2 1 2 2 1 3 4 3 4 6 7 6 7 10 10 10
32 32 29 28 29 29 26 24 21 17 14 15 13 14 11 8 8 11 9 7 8 3 3 1 3 4 6 8 12 10 7 5 4 1 2 2 2 1 2 2 1 0 1 5 3 7 6 3 5 9 10 12 12 12
33 34 31 31 30 30 27 26 22 20 16 16 14 15 12 9 11 16 17 14 9 4 3 3 2 5 9 10 12 9 9 3 1 2 2 1 2 2 2 2 1 2 4 3 3 9 3 5 8 8 9 9 9 11
35 39 36 32 31 29 28 27 23 20 17 17 16 16 15 18 18 6 3 8 9 8 4 2 1 1 6 12 13 10 6 3 2 2 1 1 0 1 2 1 3 3 1 0 2 6 4 11 8 6 9 8 10 12
40 38 36 32 33 31 31 28 23 21 22 21 19 18 16 8 7 7 3 3 6 4 3 3 2 2 3 4 3 3 4 2 2 1 1 1 1 2 2 2 8 5 6 9 12 13 8 9 5 9 13 13 13 13
41 39 34 35 34 34 33 29 25 21 22 22 20 18 19 17 13 9 11 9 6 8 3 3 2 2 4 2 2 2 2 2 3 1 1 1 1 0 2 4 9 9 11 11 5 2 7 13 15 12 13 14 10 8
41 37 38 36 34 35 34 30 25 24 23 22 21 18 11 6 4 5 8 9 11 6 3 2 4 3 2 2 1 2 2 1 1 0 1 1 0 3 3 13 13 14 10 10 8 10 12 14 13 12 12 10 9 8
39 39 39 36 33 36 34 31 27 25 25 25 16 5 2 2 17 8 3 3 4 3 2 2 0 3 2 0 1 1 1 1 1 1 1 1 3 1 2 10 12 12 12 14 13 8 9 11 12 12 11 10 9 11
41 42 36 35 37 37 36 32 28 28 25 4 3 2 8 9 3 2 2 2 0 2 1 2 1 4 1 3 2 0 2 0 1 1 1 1 3 2 5 9 10 12 16 13 6 10 13 12 13 11 10 11 12 12
41 41 39 38 35 36 36 33 28 12 5 6 13 9 5 2 2 3 1 1 1 3 2 4 2 2 2 1 3 1 2 1 1 0 1 2 3 2 5 9 11 13 14 10 9 12 13 14 15 14 13 12 12 12
42 40 39 38 37 36 33 28 13 15 26 8 4 3 2 1 3 4 5 2 3 3 4 3 2 2 2 2 3 2 2 2 0 1 2 4 1 3 6 7 9 11 13 12 11 12 13 14 13 14 14 13 16 15
41 39 37 38 36 34 29 21 18 15 4 3 3 4 2 1 2 3 1 2 1 3 5 2 3 2 1 3 1 3 0 0 2 1 4 2 3 5 7 6 8 8 10 12 12 14 16 17 16 16 17 19 19 17
39 36 36 38 38 31 25 16 14 5 4 3 3 3 1 2 0 1 1 2 1 3 3 3 3 2 2 3 1 3 2 2 4 3 2 2 2 6 7 5 6 7 8 10 14 15 18 20 19 17 17 17 15 16
38 36 36 36 31 24 18 12 12 3 3 2 3 2 0 1 1 1 1 2 2 2 2 3 3 3 2 3 2 3 5 4 3 2 1 3 2 5 5 5 8 12 13 14 16 19 20 21 21 20 18 16 15 15
26 17 35 32 26 22 11 6 4 4 2 3 2 1 1 2 1 2 2 2 3 1 2 2 4 3 3 2 1 3 4 3 2 1 1 2 4 5 6 10 13 15 15 16 18 18 18 17 19 18 14 15 15 13
31 37 33 29 28 14 6 6 3 2 4 2 2 1 1 1 1 3 2 2 1 2 1 2 4 3 4 4 2 3 3 2 3 2 2 1 3 9 14 12 16 17 17 18 19 19 19 20 16 12 13 15 13 12
38 34 29 25 13 6 2 3 3 2 1 0 1 0 1 1 2 1 1 3 3 2 3 2 3 2 3 3 3 2 2 3 2 1 0 2 4 9 13 15 17 17 18 19 17 15 16 19 14 14 14 15 11 11
36 30 21 12 4 4 3 2 2 2 1 1 1 2 2 2 1 1 2 2 2 1 1 1 3 3 3 2 3 2 2 3 3 2 1 1 3 10 12 15 13 15 15 13 12 14 12 11 10 14 15 13 10 9
25 17 10 4 5 7 3 1 2 2 1 2 1 1 2 1 2 2 2 2 1 1 2 3 3 0 1 1 1 1 3 7 3 1 2 3 6 8 9 10 15 14 13 14 14 12 14 13 15 15 15 14 12 9
9 11 5 6 5 4 3 4 2 1 2 1 2 2 2 1 1 0 1 1 2 2 1 1 1 0 1 1 1 1 2 7 6 6 8 12 4 6 9 12 14 12 12 13 14 14 14 15 13 14 13 11 9 8
12 6 4 5 4 4 1 2 2 2 2 1 1 1 2 1 1 1 1 2 2 1 2 2 2 2 3 3 5 5 5 6 4 4 5 3 5 8 10 13 12 13 11 12 14 14 14 13 12 12 9 8 7 7
6 4 3 3 3 1 1 1 2 2 1 1 1 1 2 1 2 1 2 1 1 3 2 4 0 2 4 3 1 2 3 5 7 5 4 5 5 4 8 11 13 13 11 11 14 12 11 12 11 10 9 9 8 5
4 3 4 3 1 3 2 1 2 2 2 3 3 2 2 1 2 2 2 1 3 2 3 4 2 1 1 1 0 2 3 7 6 4 5 3 7 8 6 7 8 8 9 12 13 12 11 11 10 11 10 8 5 3
3 2 3 4 1 3 3 2 3 4 3 4 4 1 1 2 2 4 2 1 1 2 4 5 4 1 1 2 1 3 4 6 6 5 5 5 8 10 9 9 7 7 10 8 11 11 10 10 12 11 9 6 4 2
2 2 2 1 2 2 1 0 1 2 3 4 2 3 2 2 5 2 0 2 2 5 9 9 7 4 0 4 6 6 7 7 3 7 10 7 6 4 9 10 8 6 9 8 8 7 8 11 12 9 8 6 5 4
3 2 4 3 1 1 3 2 4 5 3 2 3 3 5 5 1 1 1 3 9 9 6 5 4 4 6 7 9 12 13 14 17 18 17 16 13 12 10 11 13 12 11 10 8 7 8 9 9 10 10 10 9 7
2 2 3 2 1 1 2 3 2 1 2 1 2 2 2 1 2 2 4 10 8 4 1 4 7 10 13 12 10 13 16 14 7 4 5 4 4 10 14 15 14 13 12 12 11 11 12 13 14 14 13 12 11 8
3 2 2 2 3 4 1 0 2 1 2 2 2 2 2 1 3 5 6 6 7 6 4 4 7 8 9 11 13 13 10 7 5 6 5 4 8 17 15 14 14 13 12 14 17 17 15 16 15 14 12 10 8 6
3 2 2 2 1 1 1 3 3 3 2 2 2 2 2 2 2 10 13 7 3 4 7 10 11 9 12 11 9 10 7 8 8 7 10 18 22 18 16 15 15 15 15 16 16 15 15 14 13 11 10 9 8 7
2 2 3 3 1 1 2 1 1 2 1 1 1 2 1 1 1 5 15 7 6 10 8 11 14 11 11 11 11 12 14 14 16 19 22 22 21 19 18 16 15 14 15 15 14 13 11 12 11 10 9 8 7 7
2 2 2 2 2 2 1 1 1 1 1 1 1 1 1 1 2 2 6 9 8 11 14 15 15 15 16 17 19 20 21 22 21 21 20 20 19 17 16 15 14 13 14 14 13 12 11 10 11 10 9 7 7 7

GFSWCAN_925_spd_126.txt.gz
Wind_Speed
22 24 26 27 26 23 22 19 17 15 19 14 13 10 9 7 4 8 6 7 4 4 6 5 3 5 5 6 7 6 5 2 3 5 4 3 3 2 3 2 2 2 2 3 2 3 4 2 4 4 8 9 9 9
26 26 25 27 26 26 24 20 17 16 15 13 12 10 9 9 8 8 7 13 14 6 5 9 13 10 6 5 6 4 2 5 2 3 2 3 3 3 4 4 2 3 3 2 4 4 5 6 9 10 9 11 10 11
24 27 26 26 30 27 24 22 18 15 15 14 12 10 9 9 8 17 12 15 21 8 8 6 7 9 10 8 2 3 2 3 3 2 3 2 3 3 4 3 3 3 2 2 5 4 6 7 7 7 8 10 10 10
33 29 27 27 31 27 24 24 19 16 15 15 14 12 10 9 11 12 10 7 7 5 5 5 4 5 5 7 10 9 11 5 5 1 2 2 2 2 2 3 2 3 6 6 4 6 7 4 7 10 11 11 11 10
28 31 29 28 31 28 25 25 20 15 15 15 14 12 12 13 15 21 21 13 7 3 4 6 10 5 5 9 12 11 9 5 3 3 2 2 2 3 2 2 3 5 5 3 2 12 2 12 11 11 11 11 10 10
36 32 31 32 31 29 27 25 22 18 17 17 16 15 15 17 12 7 4 10 12 17 5 4 2 3 5 10 12 10 6 3 1 2 3 3 2 2 3 2 3 4 4 2 4 11 8 14 12 11 12 11 12 12
36 36 34 33 32 30 29 25 24 18 18 18 18 17 15 8 5 6 3 2 6 8 4 5 5 3 3 2 3 3 5 3 2 2 2 2 3 2 1 2 8 7 6 8 13 15 13 16 8 13 15 14 14 13
44 38 36 34 33 31 30 27 25 19 20 21 21 19 19 18 14 9 12 8 7 7 3 4 3 5 1 2 2 2 2 0 3 2 2 1 3 2 3 4 10 9 9 11 13 2 10 14 19 16 17 17 13 11
42 40 36 35 33 36 32 28 25 23 23 24 23 18 9 7 4 4 7 11 13 6 3 2 7 4 3 2 2 2 1 2 1 1 2 2 2 4 2 11 12 12 11 13 9 11 15 15 15 15 15 13 12 11
42 40 39 38 39 35 33 30 27 25 25 23 12 5 2 3 12 4 3 2 3 3 2 3 2 4 3 3 2 2 1 2 2 2 1 2 3 0 1 7 10 12 10 14 13 12 13 14 14 14 13 12 12 13
44 42 40 42 39 36 33 30 28 24 18 4 3 2 7 6 2 3 2 1 1 2 2 3 3 6 1 2 3 1 2 1 2 3 2 1 2 2 5 8 10 11 12 13 9 9 12 13 13 13 11 12 12 13
41 40 40 40 39 36 32 29 30 15 5 5 13 9 3 2 2 3 2 2 2 3 3 4 5 3 3 1 2 2 2 1 2 2 2 2 1 3 7 10 11 11 12 10 9 11 12 14 15 14 14 13 13 13
41 38 40 41 37 35 31 27 16 14 26 8 4 3 1 1 3 4 6 3 4 5 4 5 5 2 3 1 3 2 2 2 1 2 2 2 3 4 7 10 11 12 12 12 10 11 12 13 14 15 15 13 15 14
40 41 41 39 37 33 28 18 20 15 3 2 2 5 1 3 3 2 2 3 3 4 8 6 4 2 2 2 1 3 2 2 2 2 3 2 2 5 8 9 11 11 11 11 12 13 13 15 14 14 15 17 19 16
42 41 39 37 36 30 20 22 10 5 3 2 1 3 2 2 2 3 3 3 2 6 6 4 3 2 2 3 1 3 3 3 3 2 1 2 3 5 8 8 8 8 9 11 13 13 13 14 14 13 15 16 16 17
43 39 35 33 29 19 16 17 4 3 3 2 3 2 2 4 4 3 2 3 3 5 2 2 3 2 2 3 3 3 3 3 1 1 1 2 1 5 7 7 8 10 11 11 12 13 14 15 15 15 14 13 15 15
28 17 37 29 22 18 17 9 4 4 3 2 3 2 2 3 3 2 2 3 5 2 2 2 2 2 3 3 3 2 2 1 1 1 1 2 3 4 6 9 9 11 12 12 13 14 14 13 15 16 14 12 12 12
34 37 33 26 22 18 7 5 3 2 4 3 1 3 2 2 2 3 2 3 2 1 1 2 3 3 3 4 3 2 2 1 0 1 2 2 0 3 8 10 11 11 12 12 13 14 14 15 15 13 13 14 12 10
34 29 27 21 7 5 3 3 4 3 3 1 1 1 2 2 3 2 2 2 3 3 3 1 2 2 2 1 1 2 1 1 1 1 1 1 1 4 8 9 11 11 12 13 14 13 14 14 12 13 13 15 12 11
34 27 17 11 3 3 3 2 2 3 2 2 1 2 2 2 2 2 3 3 2 2 2 1 1 1 1 2 1 2 3 3 3 2 2 2 3 6 8 10 11 11 12 11 11 11 12 12 10 12 12 13 11 10
20 14 8 5 5 7 3 3 3 3 2 2 1 2 2 2 2 2 2 2 1 1 2 1 2 2 3 3 2 2 3 3 1 2 2 3 5 6 8 9 10 11 12 12 12 12 12 12 12 12 12 11 9 8
12 6 4 6 4 4 3 6 2 1 2 2 2 2 2 1 2 2 0 2 2 2 2 3 2 3 2 2 2 2 2 4 4 5 7 9 3 5 7 10 12 11 11 11 12 12 13 11 11 11 11 10 9 8
9 6 5 6 3 4 3 3 2 2 2 2 2 2 2 1 1 1 1 1 2 2 2 2 4 4 3 1 2 3 3 3 3 4 4 3 3 3 5 8 9 10 10 9 9 9 10 12 13 11 10 9 8 7
5 5 4 3 4 3 1 1 2 2 1 1 1 2 1 1 2 2 2 1 2 1 2 3 2 0 1 0 1 2 2 3 5 5 3 2 2 3 3 5 6 6 5 7 9 9 10 11 12 11 10 8 8 7
2 4 2 3 2 2 2 2 2 2 1 2 2 1 2 2 2 2 2 2 1 3 3 4 3 2 2 1 2 2 2 2 3 4 3 3 4 5 5 5 5 5 6 9 10 11 11 11 10 9 9 9 8 6
3 2 2 2 1 1 3 2 3 3 2 3 3 1 2 2 3 4 1 1 1 2 4 4 4 2 1 2 1 2 2 2 3 4 4 4 2 2 5 6 7 5 5 6 10 11 10 10 9 10 9 8 7 6
2 2 1 1 1 3 1 1 1 2 4 4 3 4 3 3 4 1 2 2 1 3 5 5 5 5 3 3 4 4 4 4 4 7 7 7 6 5 4 6 6 6 7 6 7 7 8 9 11 11 11 9 7 6
1 3 2 4 2 2 2 2 3 3 2 2 3 5 3 2 1 2 2 2 4 5 3 3 3 3 4 5 6 7 8 10 13 13 13 13 11 10 10 11 11 11 10 8 8 9 10 11 12 12 12 12 10 9
1 2 3 2 2 2 2 2 1 2 2 1 2 2 2 2 2 3 2 5 5 2 0 1 4 5 6 7 8 9 8 7 6 6 7 5 7 8 9 11 11 12 12 13 12 12 13 14 14 15 14 13 11 9
2 3 2 3 3 4 2 1 1 2 2 2 2 2 2 2 3 4 4 4 4 3 2 2 2 3 5 7 8 7 6 4 2 1 4 6 9 10 10 11 11 11 12 14 17 18 17 17 17 15 13 11 8 8
2 3 2 2 1 1 1 4 4 3 2 1 2 1 2 3 3 6 8 5 4 2 2 3 5 4 5 6 6 7 6 6 7 7 11 17 17 14 13 13 12 13 14 15 14 14 14 13 12 12 11 11 9 8
0 1 2 3 1 2 2 1 1 1 1 2 2 2 2 2 2 3 11 7 2 4 5 5 6 6 6 7 9 9 11 11 13 17 18 19 18 17 16 15 15 15 15 15 14 13 12 12 11 11 10 9 9 8
1 1 1 2 2 3 2 2 2 1 1 1 1 1 1 1 2 3 5 8 6 5 7 9 10 11 12 13 15 16 18 19 18 19 19 19 18 18 17 16 15 15 15 15 14 13 12 12 12 10 10 9 8 7